<?xml version="1.0" encoding="UTF-8" standalone="no" ?>
<gpx xmlns="http://www.topografix.com/GPX/1/1" xmlns:xsi="http://www.w3.org/2001/XMLSchema-instance" xsi:schemaLocation="http://www.topografix.com/GPX/1/1 http://www.topografix.com/GPX/1/1/gpx.xsd" version="1.1" creator="VisuGPX - https://www.visugpx.com">
  <metadata>
    <name>marche individuelle du 16 févier 2020</name>
    <desc><![CDATA[
]]></desc>
  </metadata>
  <trk>
    <name><![CDATA[marche individuelle du 16 févier 2020_1]]></name>
    <trkseg>
      <trkpt lat="46.9733" lon="0.61546">
        <ele>80.900001525879</ele>
        <time>2020-02-16T07:12:21Z</time>
      </trkpt>
      <trkpt lat="46.9733" lon="0.61546">
        <ele>80.900001525879</ele>
        <time>2020-02-16T07:12:21Z</time>
      </trkpt>
      <trkpt lat="46.97331" lon="0.61544">
        <ele>80.900001525879</ele>
        <time>2020-02-16T07:12:26Z</time>
      </trkpt>
      <trkpt lat="46.97329" lon="0.61542">
        <ele>81.900001525879</ele>
        <time>2020-02-16T07:12:29Z</time>
      </trkpt>
      <trkpt lat="46.97313" lon="0.6154">
        <ele>80.900001525879</ele>
        <time>2020-02-16T07:12:39Z</time>
      </trkpt>
      <trkpt lat="46.97306" lon="0.61541">
        <ele>81.900001525879</ele>
        <time>2020-02-16T07:12:44Z</time>
      </trkpt>
      <trkpt lat="46.97289" lon="0.61542">
        <ele>82.900001525879</ele>
        <time>2020-02-16T07:12:54Z</time>
      </trkpt>
      <trkpt lat="46.97287" lon="0.61542">
        <ele>81.900001525879</ele>
        <time>2020-02-16T07:12:55Z</time>
      </trkpt>
      <trkpt lat="46.97285" lon="0.61544">
        <ele>81.900001525879</ele>
        <time>2020-02-16T07:12:56Z</time>
      </trkpt>
      <trkpt lat="46.97283" lon="0.61558">
        <ele>80.900001525879</ele>
        <time>2020-02-16T07:13:02Z</time>
      </trkpt>
      <trkpt lat="46.97281" lon="0.61572">
        <ele>80.900001525879</ele>
        <time>2020-02-16T07:13:08Z</time>
      </trkpt>
      <trkpt lat="46.97278" lon="0.61587">
        <ele>83.900001525879</ele>
        <time>2020-02-16T07:13:15Z</time>
      </trkpt>
      <trkpt lat="46.97272" lon="0.61608">
        <ele>85.900001525879</ele>
        <time>2020-02-16T07:13:25Z</time>
      </trkpt>
      <trkpt lat="46.97269" lon="0.61614">
        <ele>87.900001525879</ele>
        <time>2020-02-16T07:13:29Z</time>
      </trkpt>
      <trkpt lat="46.97267" lon="0.61616">
        <ele>85.900001525879</ele>
        <time>2020-02-16T07:13:31Z</time>
      </trkpt>
      <trkpt lat="46.97261" lon="0.61624">
        <ele>87.900001525879</ele>
        <time>2020-02-16T07:13:36Z</time>
      </trkpt>
      <trkpt lat="46.9726" lon="0.61629">
        <ele>88.900001525879</ele>
        <time>2020-02-16T07:13:38Z</time>
      </trkpt>
      <trkpt lat="46.97256" lon="0.61652">
        <ele>90.900001525879</ele>
        <time>2020-02-16T07:13:48Z</time>
      </trkpt>
      <trkpt lat="46.97255" lon="0.61665">
        <ele>94.900001525879</ele>
        <time>2020-02-16T07:13:54Z</time>
      </trkpt>
      <trkpt lat="46.97253" lon="0.61677">
        <ele>94.900001525879</ele>
        <time>2020-02-16T07:14:00Z</time>
      </trkpt>
      <trkpt lat="46.97252" lon="0.61681">
        <ele>94.900001525879</ele>
        <time>2020-02-16T07:14:02Z</time>
      </trkpt>
      <trkpt lat="46.9725" lon="0.61686">
        <ele>93.900001525879</ele>
        <time>2020-02-16T07:14:05Z</time>
      </trkpt>
      <trkpt lat="46.97248" lon="0.61689">
        <ele>93.900001525879</ele>
        <time>2020-02-16T07:14:07Z</time>
      </trkpt>
      <trkpt lat="46.97235" lon="0.61702">
        <ele>91.900001525879</ele>
        <time>2020-02-16T07:14:16Z</time>
      </trkpt>
      <trkpt lat="46.97223" lon="0.61714">
        <ele>88.900001525879</ele>
        <time>2020-02-16T07:14:24Z</time>
      </trkpt>
      <trkpt lat="46.97216" lon="0.61725">
        <ele>86.900001525879</ele>
        <time>2020-02-16T07:14:30Z</time>
      </trkpt>
      <trkpt lat="46.97212" lon="0.61729">
        <ele>86.900001525879</ele>
        <time>2020-02-16T07:14:33Z</time>
      </trkpt>
      <trkpt lat="46.97199" lon="0.61742">
        <ele>85.900001525879</ele>
        <time>2020-02-16T07:14:43Z</time>
      </trkpt>
      <trkpt lat="46.97184" lon="0.61754">
        <ele>86.900001525879</ele>
        <time>2020-02-16T07:14:53Z</time>
      </trkpt>
      <trkpt lat="46.97175" lon="0.61764">
        <ele>83.900001525879</ele>
        <time>2020-02-16T07:14:59Z</time>
      </trkpt>
      <trkpt lat="46.97168" lon="0.61772">
        <ele>85.900001525879</ele>
        <time>2020-02-16T07:15:04Z</time>
      </trkpt>
      <trkpt lat="46.97155" lon="0.61785">
        <ele>83.900001525879</ele>
        <time>2020-02-16T07:15:13Z</time>
      </trkpt>
      <trkpt lat="46.97141" lon="0.61799">
        <ele>83.900001525879</ele>
        <time>2020-02-16T07:15:24Z</time>
      </trkpt>
      <trkpt lat="46.97129" lon="0.61815">
        <ele>84.900001525879</ele>
        <time>2020-02-16T07:15:35Z</time>
      </trkpt>
      <trkpt lat="46.97118" lon="0.61829">
        <ele>86.900001525879</ele>
        <time>2020-02-16T07:15:44Z</time>
      </trkpt>
      <trkpt lat="46.97106" lon="0.61845">
        <ele>85.900001525879</ele>
        <time>2020-02-16T07:15:53Z</time>
      </trkpt>
      <trkpt lat="46.97095" lon="0.61862">
        <ele>84.900001525879</ele>
        <time>2020-02-16T07:16:02Z</time>
      </trkpt>
      <trkpt lat="46.97083" lon="0.61879">
        <ele>83.900001525879</ele>
        <time>2020-02-16T07:16:12Z</time>
      </trkpt>
      <trkpt lat="46.97072" lon="0.61897">
        <ele>83.900001525879</ele>
        <time>2020-02-16T07:16:22Z</time>
      </trkpt>
      <trkpt lat="46.97062" lon="0.61915">
        <ele>84.900001525879</ele>
        <time>2020-02-16T07:16:32Z</time>
      </trkpt>
      <trkpt lat="46.97051" lon="0.61933">
        <ele>83.900001525879</ele>
        <time>2020-02-16T07:16:42Z</time>
      </trkpt>
      <trkpt lat="46.97041" lon="0.61953">
        <ele>82.900001525879</ele>
        <time>2020-02-16T07:16:52Z</time>
      </trkpt>
      <trkpt lat="46.97031" lon="0.61972">
        <ele>82.900001525879</ele>
        <time>2020-02-16T07:17:02Z</time>
      </trkpt>
      <trkpt lat="46.97022" lon="0.61992">
        <ele>82.900001525879</ele>
        <time>2020-02-16T07:17:13Z</time>
      </trkpt>
      <trkpt lat="46.97013" lon="0.62013">
        <ele>82.900001525879</ele>
        <time>2020-02-16T07:17:23Z</time>
      </trkpt>
      <trkpt lat="46.97004" lon="0.62034">
        <ele>82.900001525879</ele>
        <time>2020-02-16T07:17:33Z</time>
      </trkpt>
      <trkpt lat="46.96997" lon="0.62055">
        <ele>81.900001525879</ele>
        <time>2020-02-16T07:17:43Z</time>
      </trkpt>
      <trkpt lat="46.96989" lon="0.62076">
        <ele>80.900001525879</ele>
        <time>2020-02-16T07:17:53Z</time>
      </trkpt>
      <trkpt lat="46.96982" lon="0.62098">
        <ele>81.900001525879</ele>
        <time>2020-02-16T07:18:03Z</time>
      </trkpt>
      <trkpt lat="46.96975" lon="0.62118">
        <ele>82.900001525879</ele>
        <time>2020-02-16T07:18:13Z</time>
      </trkpt>
      <trkpt lat="46.96967" lon="0.6214">
        <ele>83.900001525879</ele>
        <time>2020-02-16T07:18:23Z</time>
      </trkpt>
      <trkpt lat="46.96959" lon="0.62163">
        <ele>83.900001525879</ele>
        <time>2020-02-16T07:18:33Z</time>
      </trkpt>
      <trkpt lat="46.9695" lon="0.62185">
        <ele>82.900001525879</ele>
        <time>2020-02-16T07:18:43Z</time>
      </trkpt>
      <trkpt lat="46.96942" lon="0.62206">
        <ele>80.900001525879</ele>
        <time>2020-02-16T07:18:53Z</time>
      </trkpt>
      <trkpt lat="46.96934" lon="0.62226">
        <ele>81.900001525879</ele>
        <time>2020-02-16T07:19:02Z</time>
      </trkpt>
      <trkpt lat="46.96925" lon="0.62245">
        <ele>80.900001525879</ele>
        <time>2020-02-16T07:19:12Z</time>
      </trkpt>
      <trkpt lat="46.96917" lon="0.62265">
        <ele>80.900001525879</ele>
        <time>2020-02-16T07:19:21Z</time>
      </trkpt>
      <trkpt lat="46.96908" lon="0.62285">
        <ele>80.900001525879</ele>
        <time>2020-02-16T07:19:31Z</time>
      </trkpt>
      <trkpt lat="46.96904" lon="0.62293">
        <ele>82.900001525879</ele>
        <time>2020-02-16T07:19:35Z</time>
      </trkpt>
      <trkpt lat="46.96899" lon="0.623">
        <ele>82.900001525879</ele>
        <time>2020-02-16T07:19:39Z</time>
      </trkpt>
      <trkpt lat="46.96898" lon="0.62302">
        <ele>81.900001525879</ele>
        <time>2020-02-16T07:19:40Z</time>
      </trkpt>
      <trkpt lat="46.96889" lon="0.62323">
        <ele>80.900001525879</ele>
        <time>2020-02-16T07:19:50Z</time>
      </trkpt>
      <trkpt lat="46.9688" lon="0.62344">
        <ele>79.900001525879</ele>
        <time>2020-02-16T07:20:00Z</time>
      </trkpt>
      <trkpt lat="46.9687" lon="0.62363">
        <ele>78.900001525879</ele>
        <time>2020-02-16T07:20:10Z</time>
      </trkpt>
      <trkpt lat="46.96861" lon="0.62384">
        <ele>77.900001525879</ele>
        <time>2020-02-16T07:20:20Z</time>
      </trkpt>
      <trkpt lat="46.96856" lon="0.62396">
        <ele>75.900001525879</ele>
        <time>2020-02-16T07:20:26Z</time>
      </trkpt>
      <trkpt lat="46.9685" lon="0.62418">
        <ele>77.900001525879</ele>
        <time>2020-02-16T07:20:36Z</time>
      </trkpt>
      <trkpt lat="46.96843" lon="0.62441">
        <ele>77.900001525879</ele>
        <time>2020-02-16T07:20:46Z</time>
      </trkpt>
      <trkpt lat="46.96836" lon="0.62462">
        <ele>77.900001525879</ele>
        <time>2020-02-16T07:20:55Z</time>
      </trkpt>
      <trkpt lat="46.96828" lon="0.62484">
        <ele>77.900001525879</ele>
        <time>2020-02-16T07:21:05Z</time>
      </trkpt>
      <trkpt lat="46.96822" lon="0.62506">
        <ele>78.900001525879</ele>
        <time>2020-02-16T07:21:15Z</time>
      </trkpt>
      <trkpt lat="46.96814" lon="0.62528">
        <ele>76.900001525879</ele>
        <time>2020-02-16T07:21:25Z</time>
      </trkpt>
      <trkpt lat="46.96807" lon="0.6255">
        <ele>76.900001525879</ele>
        <time>2020-02-16T07:21:35Z</time>
      </trkpt>
      <trkpt lat="46.96804" lon="0.62561">
        <ele>76.900001525879</ele>
        <time>2020-02-16T07:21:40Z</time>
      </trkpt>
      <trkpt lat="46.96803" lon="0.62565">
        <ele>76.900001525879</ele>
        <time>2020-02-16T07:21:42Z</time>
      </trkpt>
      <trkpt lat="46.96801" lon="0.62569">
        <ele>76.900001525879</ele>
        <time>2020-02-16T07:21:44Z</time>
      </trkpt>
      <trkpt lat="46.96796" lon="0.62573">
        <ele>75.900001525879</ele>
        <time>2020-02-16T07:21:47Z</time>
      </trkpt>
      <trkpt lat="46.96793" lon="0.62574">
        <ele>74.900001525879</ele>
        <time>2020-02-16T07:21:49Z</time>
      </trkpt>
      <trkpt lat="46.9679" lon="0.62575">
        <ele>74.900001525879</ele>
        <time>2020-02-16T07:21:51Z</time>
      </trkpt>
      <trkpt lat="46.96786" lon="0.62574">
        <ele>74.900001525879</ele>
        <time>2020-02-16T07:21:53Z</time>
      </trkpt>
      <trkpt lat="46.96771" lon="0.62572">
        <ele>74.900001525879</ele>
        <time>2020-02-16T07:22:02Z</time>
      </trkpt>
      <trkpt lat="46.96756" lon="0.62563">
        <ele>73.900001525879</ele>
        <time>2020-02-16T07:22:12Z</time>
      </trkpt>
      <trkpt lat="46.9674" lon="0.62555">
        <ele>74.900001525879</ele>
        <time>2020-02-16T07:22:22Z</time>
      </trkpt>
      <trkpt lat="46.96725" lon="0.62549">
        <ele>73.900001525879</ele>
        <time>2020-02-16T07:22:31Z</time>
      </trkpt>
      <trkpt lat="46.96709" lon="0.62546">
        <ele>73.900001525879</ele>
        <time>2020-02-16T07:22:40Z</time>
      </trkpt>
      <trkpt lat="46.96693" lon="0.62546">
        <ele>72.900001525879</ele>
        <time>2020-02-16T07:22:49Z</time>
      </trkpt>
      <trkpt lat="46.96678" lon="0.62545">
        <ele>72.900001525879</ele>
        <time>2020-02-16T07:22:58Z</time>
      </trkpt>
      <trkpt lat="46.96661" lon="0.62545">
        <ele>72.900001525879</ele>
        <time>2020-02-16T07:23:08Z</time>
      </trkpt>
      <trkpt lat="46.96645" lon="0.62545">
        <ele>73.900001525879</ele>
        <time>2020-02-16T07:23:17Z</time>
      </trkpt>
      <trkpt lat="46.96628" lon="0.62546">
        <ele>73.900001525879</ele>
        <time>2020-02-16T07:23:27Z</time>
      </trkpt>
      <trkpt lat="46.96611" lon="0.62549">
        <ele>73.900001525879</ele>
        <time>2020-02-16T07:23:37Z</time>
      </trkpt>
      <trkpt lat="46.966" lon="0.62552">
        <ele>71.900001525879</ele>
        <time>2020-02-16T07:23:44Z</time>
      </trkpt>
      <trkpt lat="46.96585" lon="0.62556">
        <ele>73.900001525879</ele>
        <time>2020-02-16T07:23:52Z</time>
      </trkpt>
      <trkpt lat="46.96576" lon="0.62558">
        <ele>71.900001525879</ele>
        <time>2020-02-16T07:23:58Z</time>
      </trkpt>
      <trkpt lat="46.96558" lon="0.62562">
        <ele>73.900001525879</ele>
        <time>2020-02-16T07:24:08Z</time>
      </trkpt>
      <trkpt lat="46.96543" lon="0.62565">
        <ele>71.900001525879</ele>
        <time>2020-02-16T07:24:17Z</time>
      </trkpt>
      <trkpt lat="46.96526" lon="0.62565">
        <ele>71.900001525879</ele>
        <time>2020-02-16T07:24:27Z</time>
      </trkpt>
      <trkpt lat="46.9651" lon="0.62564">
        <ele>70.900001525879</ele>
        <time>2020-02-16T07:24:36Z</time>
      </trkpt>
      <trkpt lat="46.96493" lon="0.62562">
        <ele>69.900001525879</ele>
        <time>2020-02-16T07:24:45Z</time>
      </trkpt>
      <trkpt lat="46.96477" lon="0.62559">
        <ele>68.900001525879</ele>
        <time>2020-02-16T07:24:55Z</time>
      </trkpt>
      <trkpt lat="46.9646" lon="0.62554">
        <ele>69.900001525879</ele>
        <time>2020-02-16T07:25:06Z</time>
      </trkpt>
      <trkpt lat="46.96445" lon="0.6255">
        <ele>70.900001525879</ele>
        <time>2020-02-16T07:25:15Z</time>
      </trkpt>
      <trkpt lat="46.96429" lon="0.62549">
        <ele>72.900001525879</ele>
        <time>2020-02-16T07:25:25Z</time>
      </trkpt>
      <trkpt lat="46.96425" lon="0.62549">
        <ele>73.900001525879</ele>
        <time>2020-02-16T07:25:27Z</time>
      </trkpt>
      <trkpt lat="46.96409" lon="0.62548">
        <ele>74.900001525879</ele>
        <time>2020-02-16T07:25:36Z</time>
      </trkpt>
      <trkpt lat="46.96392" lon="0.62547">
        <ele>72.900001525879</ele>
        <time>2020-02-16T07:25:46Z</time>
      </trkpt>
      <trkpt lat="46.96375" lon="0.62546">
        <ele>71.900001525879</ele>
        <time>2020-02-16T07:25:57Z</time>
      </trkpt>
      <trkpt lat="46.96358" lon="0.62546">
        <ele>70.900001525879</ele>
        <time>2020-02-16T07:26:07Z</time>
      </trkpt>
      <trkpt lat="46.96341" lon="0.62549">
        <ele>70.900001525879</ele>
        <time>2020-02-16T07:26:17Z</time>
      </trkpt>
      <trkpt lat="46.96326" lon="0.62555">
        <ele>72.900001525879</ele>
        <time>2020-02-16T07:26:26Z</time>
      </trkpt>
      <trkpt lat="46.96319" lon="0.6256">
        <ele>70.900001525879</ele>
        <time>2020-02-16T07:26:30Z</time>
      </trkpt>
      <trkpt lat="46.96305" lon="0.62573">
        <ele>72.900001525879</ele>
        <time>2020-02-16T07:26:40Z</time>
      </trkpt>
      <trkpt lat="46.96292" lon="0.62587">
        <ele>74.900001525879</ele>
        <time>2020-02-16T07:26:50Z</time>
      </trkpt>
      <trkpt lat="46.9628" lon="0.62604">
        <ele>72.900001525879</ele>
        <time>2020-02-16T07:27:00Z</time>
      </trkpt>
      <trkpt lat="46.96269" lon="0.62622">
        <ele>73.900001525879</ele>
        <time>2020-02-16T07:27:10Z</time>
      </trkpt>
      <trkpt lat="46.96258" lon="0.62639">
        <ele>74.900001525879</ele>
        <time>2020-02-16T07:27:20Z</time>
      </trkpt>
      <trkpt lat="46.96248" lon="0.62658">
        <ele>74.900001525879</ele>
        <time>2020-02-16T07:27:30Z</time>
      </trkpt>
      <trkpt lat="46.96237" lon="0.62677">
        <ele>75.900001525879</ele>
        <time>2020-02-16T07:27:40Z</time>
      </trkpt>
      <trkpt lat="46.96226" lon="0.62694">
        <ele>75.900001525879</ele>
        <time>2020-02-16T07:27:50Z</time>
      </trkpt>
      <trkpt lat="46.96215" lon="0.62713">
        <ele>75.900001525879</ele>
        <time>2020-02-16T07:28:00Z</time>
      </trkpt>
      <trkpt lat="46.96204" lon="0.6273">
        <ele>75.900001525879</ele>
        <time>2020-02-16T07:28:10Z</time>
      </trkpt>
      <trkpt lat="46.96191" lon="0.62746">
        <ele>75.900001525879</ele>
        <time>2020-02-16T07:28:20Z</time>
      </trkpt>
      <trkpt lat="46.96179" lon="0.62762">
        <ele>77.900001525879</ele>
        <time>2020-02-16T07:28:30Z</time>
      </trkpt>
      <trkpt lat="46.96166" lon="0.62777">
        <ele>76.900001525879</ele>
        <time>2020-02-16T07:28:40Z</time>
      </trkpt>
      <trkpt lat="46.96153" lon="0.62794">
        <ele>74.900001525879</ele>
        <time>2020-02-16T07:28:50Z</time>
      </trkpt>
      <trkpt lat="46.96139" lon="0.62805">
        <ele>76.900001525879</ele>
        <time>2020-02-16T07:29:00Z</time>
      </trkpt>
      <trkpt lat="46.96136" lon="0.62809">
        <ele>78.900001525879</ele>
        <time>2020-02-16T07:29:03Z</time>
      </trkpt>
      <trkpt lat="46.96122" lon="0.62822">
        <ele>77.900001525879</ele>
        <time>2020-02-16T07:29:13Z</time>
      </trkpt>
      <trkpt lat="46.96108" lon="0.62835">
        <ele>78.900001525879</ele>
        <time>2020-02-16T07:29:23Z</time>
      </trkpt>
      <trkpt lat="46.96098" lon="0.62845">
        <ele>76.900001525879</ele>
        <time>2020-02-16T07:29:31Z</time>
      </trkpt>
      <trkpt lat="46.96084" lon="0.62858">
        <ele>77.900001525879</ele>
        <time>2020-02-16T07:29:41Z</time>
      </trkpt>
      <trkpt lat="46.96069" lon="0.6287">
        <ele>76.900001525879</ele>
        <time>2020-02-16T07:29:51Z</time>
      </trkpt>
      <trkpt lat="46.96054" lon="0.62881">
        <ele>77.900001525879</ele>
        <time>2020-02-16T07:30:01Z</time>
      </trkpt>
      <trkpt lat="46.96039" lon="0.62893">
        <ele>77.900001525879</ele>
        <time>2020-02-16T07:30:11Z</time>
      </trkpt>
      <trkpt lat="46.96024" lon="0.62904">
        <ele>78.900001525879</ele>
        <time>2020-02-16T07:30:21Z</time>
      </trkpt>
      <trkpt lat="46.9601" lon="0.62914">
        <ele>77.900001525879</ele>
        <time>2020-02-16T07:30:31Z</time>
      </trkpt>
      <trkpt lat="46.95996" lon="0.62926">
        <ele>77.900001525879</ele>
        <time>2020-02-16T07:30:41Z</time>
      </trkpt>
      <trkpt lat="46.95982" lon="0.62937">
        <ele>76.900001525879</ele>
        <time>2020-02-16T07:30:50Z</time>
      </trkpt>
      <trkpt lat="46.95968" lon="0.62948">
        <ele>76.900001525879</ele>
        <time>2020-02-16T07:30:59Z</time>
      </trkpt>
      <trkpt lat="46.95953" lon="0.6296">
        <ele>75.900001525879</ele>
        <time>2020-02-16T07:31:09Z</time>
      </trkpt>
      <trkpt lat="46.95939" lon="0.6297">
        <ele>74.900001525879</ele>
        <time>2020-02-16T07:31:19Z</time>
      </trkpt>
      <trkpt lat="46.95924" lon="0.62983">
        <ele>75.900001525879</ele>
        <time>2020-02-16T07:31:29Z</time>
      </trkpt>
      <trkpt lat="46.95906" lon="0.62996">
        <ele>73.900001525879</ele>
        <time>2020-02-16T07:31:41Z</time>
      </trkpt>
      <trkpt lat="46.95891" lon="0.63007">
        <ele>72.900001525879</ele>
        <time>2020-02-16T07:31:52Z</time>
      </trkpt>
      <trkpt lat="46.95877" lon="0.6302">
        <ele>73.900001525879</ele>
        <time>2020-02-16T07:32:02Z</time>
      </trkpt>
      <trkpt lat="46.95862" lon="0.63032">
        <ele>74.900001525879</ele>
        <time>2020-02-16T07:32:12Z</time>
      </trkpt>
      <trkpt lat="46.95848" lon="0.63043">
        <ele>75.900001525879</ele>
        <time>2020-02-16T07:32:22Z</time>
      </trkpt>
      <trkpt lat="46.95832" lon="0.63054">
        <ele>74.900001525879</ele>
        <time>2020-02-16T07:32:32Z</time>
      </trkpt>
      <trkpt lat="46.95817" lon="0.63065">
        <ele>73.900001525879</ele>
        <time>2020-02-16T07:32:42Z</time>
      </trkpt>
      <trkpt lat="46.95803" lon="0.63077">
        <ele>72.900001525879</ele>
        <time>2020-02-16T07:32:52Z</time>
      </trkpt>
      <trkpt lat="46.95788" lon="0.63088">
        <ele>73.900001525879</ele>
        <time>2020-02-16T07:33:01Z</time>
      </trkpt>
      <trkpt lat="46.95774" lon="0.63099">
        <ele>73.900001525879</ele>
        <time>2020-02-16T07:33:10Z</time>
      </trkpt>
      <trkpt lat="46.95763" lon="0.63107">
        <ele>71.900001525879</ele>
        <time>2020-02-16T07:33:17Z</time>
      </trkpt>
      <trkpt lat="46.95748" lon="0.63118">
        <ele>70.900001525879</ele>
        <time>2020-02-16T07:33:27Z</time>
      </trkpt>
      <trkpt lat="46.95733" lon="0.6313">
        <ele>71.900001525879</ele>
        <time>2020-02-16T07:33:38Z</time>
      </trkpt>
      <trkpt lat="46.95718" lon="0.63141">
        <ele>72.900001525879</ele>
        <time>2020-02-16T07:33:48Z</time>
      </trkpt>
      <trkpt lat="46.95703" lon="0.63152">
        <ele>72.900001525879</ele>
        <time>2020-02-16T07:33:58Z</time>
      </trkpt>
      <trkpt lat="46.95689" lon="0.63165">
        <ele>71.900001525879</ele>
        <time>2020-02-16T07:34:08Z</time>
      </trkpt>
      <trkpt lat="46.95675" lon="0.63178">
        <ele>71.900001525879</ele>
        <time>2020-02-16T07:34:18Z</time>
      </trkpt>
      <trkpt lat="46.9566" lon="0.63189">
        <ele>72.900001525879</ele>
        <time>2020-02-16T07:34:28Z</time>
      </trkpt>
      <trkpt lat="46.95647" lon="0.63202">
        <ele>72.900001525879</ele>
        <time>2020-02-16T07:34:37Z</time>
      </trkpt>
      <trkpt lat="46.95634" lon="0.63218">
        <ele>71.900001525879</ele>
        <time>2020-02-16T07:34:47Z</time>
      </trkpt>
      <trkpt lat="46.95621" lon="0.63232">
        <ele>70.900001525879</ele>
        <time>2020-02-16T07:34:56Z</time>
      </trkpt>
      <trkpt lat="46.9561" lon="0.63248">
        <ele>70.900001525879</ele>
        <time>2020-02-16T07:35:06Z</time>
      </trkpt>
      <trkpt lat="46.95597" lon="0.63267">
        <ele>68.900001525879</ele>
        <time>2020-02-16T07:35:17Z</time>
      </trkpt>
      <trkpt lat="46.95585" lon="0.63285">
        <ele>68.900001525879</ele>
        <time>2020-02-16T07:35:28Z</time>
      </trkpt>
      <trkpt lat="46.95575" lon="0.63303">
        <ele>69.900001525879</ele>
        <time>2020-02-16T07:35:38Z</time>
      </trkpt>
      <trkpt lat="46.95566" lon="0.63323">
        <ele>70.900001525879</ele>
        <time>2020-02-16T07:35:48Z</time>
      </trkpt>
      <trkpt lat="46.95554" lon="0.63342">
        <ele>68.900001525879</ele>
        <time>2020-02-16T07:35:58Z</time>
      </trkpt>
      <trkpt lat="46.95549" lon="0.63353">
        <ele>69.900001525879</ele>
        <time>2020-02-16T07:36:04Z</time>
      </trkpt>
      <trkpt lat="46.95545" lon="0.6336">
        <ele>69.900001525879</ele>
        <time>2020-02-16T07:36:08Z</time>
      </trkpt>
      <trkpt lat="46.95536" lon="0.63378">
        <ele>70.900001525879</ele>
        <time>2020-02-16T07:36:18Z</time>
      </trkpt>
      <trkpt lat="46.95529" lon="0.63388">
        <ele>69.900001525879</ele>
        <time>2020-02-16T07:36:24Z</time>
      </trkpt>
      <trkpt lat="46.95527" lon="0.63393">
        <ele>70.900001525879</ele>
        <time>2020-02-16T07:36:27Z</time>
      </trkpt>
      <trkpt lat="46.95514" lon="0.6341">
        <ele>70.900001525879</ele>
        <time>2020-02-16T07:36:37Z</time>
      </trkpt>
      <trkpt lat="46.95499" lon="0.63423">
        <ele>70.900001525879</ele>
        <time>2020-02-16T07:36:47Z</time>
      </trkpt>
      <trkpt lat="46.95492" lon="0.6343">
        <ele>70.900001525879</ele>
        <time>2020-02-16T07:36:52Z</time>
      </trkpt>
      <trkpt lat="46.95481" lon="0.63435">
        <ele>71.900001525879</ele>
        <time>2020-02-16T07:36:59Z</time>
      </trkpt>
      <trkpt lat="46.95467" lon="0.63438">
        <ele>72.900001525879</ele>
        <time>2020-02-16T07:37:08Z</time>
      </trkpt>
      <trkpt lat="46.95451" lon="0.63444">
        <ele>71.900001525879</ele>
        <time>2020-02-16T07:37:18Z</time>
      </trkpt>
      <trkpt lat="46.95435" lon="0.6345">
        <ele>70.900001525879</ele>
        <time>2020-02-16T07:37:28Z</time>
      </trkpt>
      <trkpt lat="46.95419" lon="0.63456">
        <ele>69.900001525879</ele>
        <time>2020-02-16T07:37:38Z</time>
      </trkpt>
      <trkpt lat="46.95403" lon="0.63463">
        <ele>71.900001525879</ele>
        <time>2020-02-16T07:37:49Z</time>
      </trkpt>
      <trkpt lat="46.95387" lon="0.63469">
        <ele>72.900001525879</ele>
        <time>2020-02-16T07:37:59Z</time>
      </trkpt>
      <trkpt lat="46.95371" lon="0.63476">
        <ele>72.900001525879</ele>
        <time>2020-02-16T07:38:09Z</time>
      </trkpt>
      <trkpt lat="46.95356" lon="0.63483">
        <ele>72.900001525879</ele>
        <time>2020-02-16T07:38:19Z</time>
      </trkpt>
      <trkpt lat="46.9534" lon="0.63488">
        <ele>72.900001525879</ele>
        <time>2020-02-16T07:38:29Z</time>
      </trkpt>
      <trkpt lat="46.95325" lon="0.63495">
        <ele>72.900001525879</ele>
        <time>2020-02-16T07:38:39Z</time>
      </trkpt>
      <trkpt lat="46.9531" lon="0.635">
        <ele>73.900001525879</ele>
        <time>2020-02-16T07:38:49Z</time>
      </trkpt>
      <trkpt lat="46.95293" lon="0.63507">
        <ele>75.900001525879</ele>
        <time>2020-02-16T07:39:01Z</time>
      </trkpt>
      <trkpt lat="46.95278" lon="0.63517">
        <ele>76.900001525879</ele>
        <time>2020-02-16T07:39:12Z</time>
      </trkpt>
      <trkpt lat="46.95269" lon="0.63525">
        <ele>77.900001525879</ele>
        <time>2020-02-16T07:39:18Z</time>
      </trkpt>
      <trkpt lat="46.95264" lon="0.63532">
        <ele>79.900001525879</ele>
        <time>2020-02-16T07:39:22Z</time>
      </trkpt>
      <trkpt lat="46.95257" lon="0.63552">
        <ele>79.900001525879</ele>
        <time>2020-02-16T07:39:31Z</time>
      </trkpt>
      <trkpt lat="46.95249" lon="0.63577">
        <ele>75.900001525879</ele>
        <time>2020-02-16T07:39:42Z</time>
      </trkpt>
      <trkpt lat="46.95247" lon="0.63584">
        <ele>74.900001525879</ele>
        <time>2020-02-16T07:39:45Z</time>
      </trkpt>
      <trkpt lat="46.95246" lon="0.63588">
        <ele>73.900001525879</ele>
        <time>2020-02-16T07:39:47Z</time>
      </trkpt>
      <trkpt lat="46.95245" lon="0.63592">
        <ele>73.900001525879</ele>
        <time>2020-02-16T07:39:49Z</time>
      </trkpt>
      <trkpt lat="46.95244" lon="0.63602">
        <ele>75.900001525879</ele>
        <time>2020-02-16T07:39:54Z</time>
      </trkpt>
      <trkpt lat="46.9524" lon="0.63615">
        <ele>77.900001525879</ele>
        <time>2020-02-16T07:40:01Z</time>
      </trkpt>
      <trkpt lat="46.95239" lon="0.63618">
        <ele>77.900001525879</ele>
        <time>2020-02-16T07:40:02Z</time>
      </trkpt>
      <trkpt lat="46.95238" lon="0.6362">
        <ele>77.900001525879</ele>
        <time>2020-02-16T07:40:03Z</time>
      </trkpt>
      <trkpt lat="46.95236" lon="0.63623">
        <ele>78.900001525879</ele>
        <time>2020-02-16T07:40:05Z</time>
      </trkpt>
      <trkpt lat="46.95231" lon="0.63622">
        <ele>78.900001525879</ele>
        <time>2020-02-16T07:40:08Z</time>
      </trkpt>
      <trkpt lat="46.95215" lon="0.63618">
        <ele>77.900001525879</ele>
        <time>2020-02-16T07:40:19Z</time>
      </trkpt>
      <trkpt lat="46.952" lon="0.63615">
        <ele>78.900001525879</ele>
        <time>2020-02-16T07:40:31Z</time>
      </trkpt>
      <trkpt lat="46.9519" lon="0.63614">
        <ele>78.900001525879</ele>
        <time>2020-02-16T07:40:39Z</time>
      </trkpt>
      <trkpt lat="46.95174" lon="0.63609">
        <ele>78.900001525879</ele>
        <time>2020-02-16T07:40:50Z</time>
      </trkpt>
      <trkpt lat="46.95158" lon="0.63605">
        <ele>78.900001525879</ele>
        <time>2020-02-16T07:40:58Z</time>
      </trkpt>
      <trkpt lat="46.95152" lon="0.63604">
        <ele>78.900001525879</ele>
        <time>2020-02-16T07:41:02Z</time>
      </trkpt>
      <trkpt lat="46.95148" lon="0.63602">
        <ele>79.900001525879</ele>
        <time>2020-02-16T07:41:05Z</time>
      </trkpt>
      <trkpt lat="46.95135" lon="0.63598">
        <ele>78.900001525879</ele>
        <time>2020-02-16T07:41:13Z</time>
      </trkpt>
      <trkpt lat="46.95123" lon="0.6359">
        <ele>81.900001525879</ele>
        <time>2020-02-16T07:41:21Z</time>
      </trkpt>
      <trkpt lat="46.95119" lon="0.63588">
        <ele>82.900001525879</ele>
        <time>2020-02-16T07:41:23Z</time>
      </trkpt>
      <trkpt lat="46.95105" lon="0.63576">
        <ele>84.900001525879</ele>
        <time>2020-02-16T07:41:33Z</time>
      </trkpt>
      <trkpt lat="46.9509" lon="0.63562">
        <ele>87.900001525879</ele>
        <time>2020-02-16T07:41:44Z</time>
      </trkpt>
      <trkpt lat="46.95085" lon="0.63557">
        <ele>85.900001525879</ele>
        <time>2020-02-16T07:41:48Z</time>
      </trkpt>
      <trkpt lat="46.95081" lon="0.63552">
        <ele>88.900001525879</ele>
        <time>2020-02-16T07:41:52Z</time>
      </trkpt>
      <trkpt lat="46.95075" lon="0.63545">
        <ele>89.900001525879</ele>
        <time>2020-02-16T07:41:57Z</time>
      </trkpt>
      <trkpt lat="46.95066" lon="0.63536">
        <ele>88.900001525879</ele>
        <time>2020-02-16T07:42:04Z</time>
      </trkpt>
      <trkpt lat="46.95056" lon="0.63522">
        <ele>87.900001525879</ele>
        <time>2020-02-16T07:42:13Z</time>
      </trkpt>
      <trkpt lat="46.9505" lon="0.63516">
        <ele>87.900001525879</ele>
        <time>2020-02-16T07:42:17Z</time>
      </trkpt>
      <trkpt lat="46.95039" lon="0.63503">
        <ele>88.900001525879</ele>
        <time>2020-02-16T07:42:26Z</time>
      </trkpt>
      <trkpt lat="46.95037" lon="0.635">
        <ele>87.900001525879</ele>
        <time>2020-02-16T07:42:28Z</time>
      </trkpt>
      <trkpt lat="46.95033" lon="0.63495">
        <ele>86.900001525879</ele>
        <time>2020-02-16T07:42:31Z</time>
      </trkpt>
      <trkpt lat="46.9502" lon="0.63483">
        <ele>88.900001525879</ele>
        <time>2020-02-16T07:42:41Z</time>
      </trkpt>
      <trkpt lat="46.95015" lon="0.63477">
        <ele>87.900001525879</ele>
        <time>2020-02-16T07:42:45Z</time>
      </trkpt>
      <trkpt lat="46.95001" lon="0.63465">
        <ele>86.900001525879</ele>
        <time>2020-02-16T07:42:54Z</time>
      </trkpt>
      <trkpt lat="46.94989" lon="0.63456">
        <ele>83.900001525879</ele>
        <time>2020-02-16T07:43:01Z</time>
      </trkpt>
      <trkpt lat="46.94973" lon="0.63449">
        <ele>82.900001525879</ele>
        <time>2020-02-16T07:43:11Z</time>
      </trkpt>
      <trkpt lat="46.94957" lon="0.63442">
        <ele>82.900001525879</ele>
        <time>2020-02-16T07:43:21Z</time>
      </trkpt>
      <trkpt lat="46.94941" lon="0.63437">
        <ele>81.900001525879</ele>
        <time>2020-02-16T07:43:31Z</time>
      </trkpt>
      <trkpt lat="46.94926" lon="0.63432">
        <ele>79.900001525879</ele>
        <time>2020-02-16T07:43:41Z</time>
      </trkpt>
      <trkpt lat="46.94909" lon="0.63428">
        <ele>78.900001525879</ele>
        <time>2020-02-16T07:43:52Z</time>
      </trkpt>
      <trkpt lat="46.94893" lon="0.63424">
        <ele>78.900001525879</ele>
        <time>2020-02-16T07:44:02Z</time>
      </trkpt>
      <trkpt lat="46.94877" lon="0.63419">
        <ele>78.900001525879</ele>
        <time>2020-02-16T07:44:12Z</time>
      </trkpt>
      <trkpt lat="46.94862" lon="0.63413">
        <ele>77.900001525879</ele>
        <time>2020-02-16T07:44:22Z</time>
      </trkpt>
      <trkpt lat="46.94846" lon="0.63405">
        <ele>76.900001525879</ele>
        <time>2020-02-16T07:44:32Z</time>
      </trkpt>
      <trkpt lat="46.9483" lon="0.63396">
        <ele>76.900001525879</ele>
        <time>2020-02-16T07:44:42Z</time>
      </trkpt>
      <trkpt lat="46.94815" lon="0.63386">
        <ele>76.900001525879</ele>
        <time>2020-02-16T07:44:51Z</time>
      </trkpt>
      <trkpt lat="46.94801" lon="0.63377">
        <ele>77.900001525879</ele>
        <time>2020-02-16T07:45:01Z</time>
      </trkpt>
      <trkpt lat="46.94785" lon="0.63366">
        <ele>77.900001525879</ele>
        <time>2020-02-16T07:45:11Z</time>
      </trkpt>
      <trkpt lat="46.94769" lon="0.63357">
        <ele>78.900001525879</ele>
        <time>2020-02-16T07:45:21Z</time>
      </trkpt>
      <trkpt lat="46.94755" lon="0.63345">
        <ele>78.900001525879</ele>
        <time>2020-02-16T07:45:31Z</time>
      </trkpt>
      <trkpt lat="46.94741" lon="0.63331">
        <ele>76.900001525879</ele>
        <time>2020-02-16T07:45:42Z</time>
      </trkpt>
      <trkpt lat="46.9473" lon="0.63315">
        <ele>76.900001525879</ele>
        <time>2020-02-16T07:45:52Z</time>
      </trkpt>
      <trkpt lat="46.94717" lon="0.63298">
        <ele>76.900001525879</ele>
        <time>2020-02-16T07:46:02Z</time>
      </trkpt>
      <trkpt lat="46.94707" lon="0.63281">
        <ele>77.900001525879</ele>
        <time>2020-02-16T07:46:11Z</time>
      </trkpt>
      <trkpt lat="46.94695" lon="0.63263">
        <ele>78.900001525879</ele>
        <time>2020-02-16T07:46:21Z</time>
      </trkpt>
      <trkpt lat="46.94682" lon="0.63247">
        <ele>78.900001525879</ele>
        <time>2020-02-16T07:46:31Z</time>
      </trkpt>
      <trkpt lat="46.94668" lon="0.63236">
        <ele>77.900001525879</ele>
        <time>2020-02-16T07:46:41Z</time>
      </trkpt>
      <trkpt lat="46.94652" lon="0.63228">
        <ele>78.900001525879</ele>
        <time>2020-02-16T07:46:52Z</time>
      </trkpt>
      <trkpt lat="46.94637" lon="0.63223">
        <ele>79.900001525879</ele>
        <time>2020-02-16T07:47:02Z</time>
      </trkpt>
      <trkpt lat="46.94621" lon="0.63218">
        <ele>81.900001525879</ele>
        <time>2020-02-16T07:47:12Z</time>
      </trkpt>
      <trkpt lat="46.94604" lon="0.63213">
        <ele>83.900001525879</ele>
        <time>2020-02-16T07:47:23Z</time>
      </trkpt>
      <trkpt lat="46.94588" lon="0.63205">
        <ele>84.900001525879</ele>
        <time>2020-02-16T07:47:32Z</time>
      </trkpt>
      <trkpt lat="46.94576" lon="0.63199">
        <ele>86.900001525879</ele>
        <time>2020-02-16T07:47:41Z</time>
      </trkpt>
      <trkpt lat="46.94572" lon="0.63197">
        <ele>86.900001525879</ele>
        <time>2020-02-16T07:47:44Z</time>
      </trkpt>
      <trkpt lat="46.94569" lon="0.63194">
        <ele>87.900001525879</ele>
        <time>2020-02-16T07:47:47Z</time>
      </trkpt>
      <trkpt lat="46.94564" lon="0.63188">
        <ele>90.900001525879</ele>
        <time>2020-02-16T07:47:52Z</time>
      </trkpt>
      <trkpt lat="46.94551" lon="0.63177">
        <ele>91.900001525879</ele>
        <time>2020-02-16T07:48:01Z</time>
      </trkpt>
      <trkpt lat="46.94536" lon="0.63166">
        <ele>89.900001525879</ele>
        <time>2020-02-16T07:48:10Z</time>
      </trkpt>
      <trkpt lat="46.9453" lon="0.63162">
        <ele>91.900001525879</ele>
        <time>2020-02-16T07:48:13Z</time>
      </trkpt>
      <trkpt lat="46.94514" lon="0.63151">
        <ele>90.900001525879</ele>
        <time>2020-02-16T07:48:21Z</time>
      </trkpt>
      <trkpt lat="46.94497" lon="0.63142">
        <ele>92.900001525879</ele>
        <time>2020-02-16T07:48:30Z</time>
      </trkpt>
      <trkpt lat="46.94482" lon="0.63137">
        <ele>92.900001525879</ele>
        <time>2020-02-16T07:48:40Z</time>
      </trkpt>
      <trkpt lat="46.94466" lon="0.6313">
        <ele>93.900001525879</ele>
        <time>2020-02-16T07:48:49Z</time>
      </trkpt>
      <trkpt lat="46.94455" lon="0.63123">
        <ele>91.900001525879</ele>
        <time>2020-02-16T07:48:57Z</time>
      </trkpt>
      <trkpt lat="46.94452" lon="0.63122">
        <ele>91.900001525879</ele>
        <time>2020-02-16T07:49:00Z</time>
      </trkpt>
      <trkpt lat="46.94442" lon="0.63113">
        <ele>89.900001525879</ele>
        <time>2020-02-16T07:49:08Z</time>
      </trkpt>
      <trkpt lat="46.9444" lon="0.63111">
        <ele>90.900001525879</ele>
        <time>2020-02-16T07:49:10Z</time>
      </trkpt>
      <trkpt lat="46.94438" lon="0.63109">
        <ele>89.900001525879</ele>
        <time>2020-02-16T07:49:12Z</time>
      </trkpt>
      <trkpt lat="46.94422" lon="0.631">
        <ele>85.900001525879</ele>
        <time>2020-02-16T07:49:22Z</time>
      </trkpt>
      <trkpt lat="46.94416" lon="0.63098">
        <ele>84.900001525879</ele>
        <time>2020-02-16T07:49:25Z</time>
      </trkpt>
      <trkpt lat="46.94414" lon="0.63098">
        <ele>84.900001525879</ele>
        <time>2020-02-16T07:49:26Z</time>
      </trkpt>
      <trkpt lat="46.94411" lon="0.631">
        <ele>84.900001525879</ele>
        <time>2020-02-16T07:49:28Z</time>
      </trkpt>
      <trkpt lat="46.94405" lon="0.63105">
        <ele>84.900001525879</ele>
        <time>2020-02-16T07:49:32Z</time>
      </trkpt>
      <trkpt lat="46.94403" lon="0.63106">
        <ele>83.900001525879</ele>
        <time>2020-02-16T07:49:33Z</time>
      </trkpt>
      <trkpt lat="46.94402" lon="0.63108">
        <ele>83.900001525879</ele>
        <time>2020-02-16T07:49:34Z</time>
      </trkpt>
      <trkpt lat="46.94401" lon="0.6311">
        <ele>83.900001525879</ele>
        <time>2020-02-16T07:49:35Z</time>
      </trkpt>
      <trkpt lat="46.944" lon="0.63112">
        <ele>83.900001525879</ele>
        <time>2020-02-16T07:49:36Z</time>
      </trkpt>
      <trkpt lat="46.94395" lon="0.63135">
        <ele>85.900001525879</ele>
        <time>2020-02-16T07:49:45Z</time>
      </trkpt>
      <trkpt lat="46.94394" lon="0.6314">
        <ele>86.900001525879</ele>
        <time>2020-02-16T07:49:47Z</time>
      </trkpt>
      <trkpt lat="46.94394" lon="0.63142">
        <ele>86.900001525879</ele>
        <time>2020-02-16T07:49:48Z</time>
      </trkpt>
      <trkpt lat="46.94394" lon="0.63152">
        <ele>88.900001525879</ele>
        <time>2020-02-16T07:49:52Z</time>
      </trkpt>
      <trkpt lat="46.94393" lon="0.63155">
        <ele>88.900001525879</ele>
        <time>2020-02-16T07:49:54Z</time>
      </trkpt>
      <trkpt lat="46.94386" lon="0.63174">
        <ele>88.900001525879</ele>
        <time>2020-02-16T07:50:03Z</time>
      </trkpt>
      <trkpt lat="46.94378" lon="0.63194">
        <ele>89.900001525879</ele>
        <time>2020-02-16T07:50:12Z</time>
      </trkpt>
      <trkpt lat="46.94377" lon="0.63198">
        <ele>91.900001525879</ele>
        <time>2020-02-16T07:50:14Z</time>
      </trkpt>
      <trkpt lat="46.94373" lon="0.6322">
        <ele>91.900001525879</ele>
        <time>2020-02-16T07:50:23Z</time>
      </trkpt>
      <trkpt lat="46.9437" lon="0.63243">
        <ele>90.900001525879</ele>
        <time>2020-02-16T07:50:32Z</time>
      </trkpt>
      <trkpt lat="46.94367" lon="0.63251">
        <ele>89.900001525879</ele>
        <time>2020-02-16T07:50:36Z</time>
      </trkpt>
      <trkpt lat="46.94365" lon="0.63252">
        <ele>88.900001525879</ele>
        <time>2020-02-16T07:50:39Z</time>
      </trkpt>
      <trkpt lat="46.94363" lon="0.63249">
        <ele>89.900001525879</ele>
        <time>2020-02-16T07:50:42Z</time>
      </trkpt>
      <trkpt lat="46.94357" lon="0.63234">
        <ele>92.900001525879</ele>
        <time>2020-02-16T07:50:50Z</time>
      </trkpt>
      <trkpt lat="46.94352" lon="0.63218">
        <ele>93.900001525879</ele>
        <time>2020-02-16T07:50:59Z</time>
      </trkpt>
      <trkpt lat="46.94352" lon="0.63205">
        <ele>91.900001525879</ele>
        <time>2020-02-16T07:51:05Z</time>
      </trkpt>
      <trkpt lat="46.94353" lon="0.63179">
        <ele>87.900001525879</ele>
        <time>2020-02-16T07:51:14Z</time>
      </trkpt>
      <trkpt lat="46.94354" lon="0.63165">
        <ele>83.900001525879</ele>
        <time>2020-02-16T07:51:20Z</time>
      </trkpt>
      <trkpt lat="46.94354" lon="0.63161">
        <ele>83.900001525879</ele>
        <time>2020-02-16T07:51:22Z</time>
      </trkpt>
      <trkpt lat="46.94356" lon="0.63139">
        <ele>82.900001525879</ele>
        <time>2020-02-16T07:51:33Z</time>
      </trkpt>
      <trkpt lat="46.94356" lon="0.63123">
        <ele>81.900001525879</ele>
        <time>2020-02-16T07:51:42Z</time>
      </trkpt>
      <trkpt lat="46.94356" lon="0.6312">
        <ele>81.900001525879</ele>
        <time>2020-02-16T07:51:44Z</time>
      </trkpt>
      <trkpt lat="46.94355" lon="0.63107">
        <ele>83.900001525879</ele>
        <time>2020-02-16T07:51:51Z</time>
      </trkpt>
      <trkpt lat="46.94352" lon="0.63099">
        <ele>84.900001525879</ele>
        <time>2020-02-16T07:51:56Z</time>
      </trkpt>
      <trkpt lat="46.94352" lon="0.63095">
        <ele>83.900001525879</ele>
        <time>2020-02-16T07:51:58Z</time>
      </trkpt>
      <trkpt lat="46.94352" lon="0.63071">
        <ele>84.900001525879</ele>
        <time>2020-02-16T07:52:09Z</time>
      </trkpt>
      <trkpt lat="46.94352" lon="0.63057">
        <ele>82.900001525879</ele>
        <time>2020-02-16T07:52:16Z</time>
      </trkpt>
      <trkpt lat="46.94354" lon="0.63033">
        <ele>83.900001525879</ele>
        <time>2020-02-16T07:52:25Z</time>
      </trkpt>
      <trkpt lat="46.94355" lon="0.63009">
        <ele>83.900001525879</ele>
        <time>2020-02-16T07:52:36Z</time>
      </trkpt>
      <trkpt lat="46.94356" lon="0.62983">
        <ele>82.900001525879</ele>
        <time>2020-02-16T07:52:46Z</time>
      </trkpt>
      <trkpt lat="46.94356" lon="0.62976">
        <ele>80.900001525879</ele>
        <time>2020-02-16T07:52:49Z</time>
      </trkpt>
      <trkpt lat="46.94356" lon="0.62965">
        <ele>81.900001525879</ele>
        <time>2020-02-16T07:52:53Z</time>
      </trkpt>
      <trkpt lat="46.94357" lon="0.62939">
        <ele>79.900001525879</ele>
        <time>2020-02-16T07:53:03Z</time>
      </trkpt>
      <trkpt lat="46.94357" lon="0.62932">
        <ele>78.900001525879</ele>
        <time>2020-02-16T07:53:06Z</time>
      </trkpt>
      <trkpt lat="46.94359" lon="0.62914">
        <ele>77.900001525879</ele>
        <time>2020-02-16T07:53:13Z</time>
      </trkpt>
      <trkpt lat="46.94358" lon="0.62905">
        <ele>77.900001525879</ele>
        <time>2020-02-16T07:53:17Z</time>
      </trkpt>
      <trkpt lat="46.94357" lon="0.62901">
        <ele>76.900001525879</ele>
        <time>2020-02-16T07:53:19Z</time>
      </trkpt>
      <trkpt lat="46.94354" lon="0.62894">
        <ele>76.900001525879</ele>
        <time>2020-02-16T07:53:23Z</time>
      </trkpt>
      <trkpt lat="46.94357" lon="0.62889">
        <ele>76.900001525879</ele>
        <time>2020-02-16T07:54:42Z</time>
      </trkpt>
      <trkpt lat="46.94359" lon="0.62888">
        <ele>76.900001525879</ele>
        <time>2020-02-16T07:54:45Z</time>
      </trkpt>
      <trkpt lat="46.9436" lon="0.62886">
        <ele>76.900001525879</ele>
        <time>2020-02-16T07:54:47Z</time>
      </trkpt>
      <trkpt lat="46.94363" lon="0.62863">
        <ele>75.900001525879</ele>
        <time>2020-02-16T07:54:57Z</time>
      </trkpt>
      <trkpt lat="46.94364" lon="0.62839">
        <ele>72.900001525879</ele>
        <time>2020-02-16T07:55:07Z</time>
      </trkpt>
      <trkpt lat="46.94366" lon="0.62815">
        <ele>71.900001525879</ele>
        <time>2020-02-16T07:55:17Z</time>
      </trkpt>
      <trkpt lat="46.94367" lon="0.62791">
        <ele>69.900001525879</ele>
        <time>2020-02-16T07:55:27Z</time>
      </trkpt>
      <trkpt lat="46.94369" lon="0.62766">
        <ele>70.900001525879</ele>
        <time>2020-02-16T07:55:38Z</time>
      </trkpt>
      <trkpt lat="46.9437" lon="0.62746">
        <ele>69.900001525879</ele>
        <time>2020-02-16T07:55:47Z</time>
      </trkpt>
      <trkpt lat="46.9437" lon="0.62741">
        <ele>68.900001525879</ele>
        <time>2020-02-16T07:55:49Z</time>
      </trkpt>
      <trkpt lat="46.94363" lon="0.62724">
        <ele>70.900001525879</ele>
        <time>2020-02-16T07:55:57Z</time>
      </trkpt>
      <trkpt lat="46.9436" lon="0.62722">
        <ele>70.900001525879</ele>
        <time>2020-02-16T07:55:59Z</time>
      </trkpt>
      <trkpt lat="46.94352" lon="0.6272">
        <ele>73.900001525879</ele>
        <time>2020-02-16T07:56:06Z</time>
      </trkpt>
      <trkpt lat="46.94337" lon="0.62718">
        <ele>72.900001525879</ele>
        <time>2020-02-16T07:56:18Z</time>
      </trkpt>
      <trkpt lat="46.94323" lon="0.62715">
        <ele>69.900001525879</ele>
        <time>2020-02-16T07:56:29Z</time>
      </trkpt>
      <trkpt lat="46.94308" lon="0.62713">
        <ele>68.900001525879</ele>
        <time>2020-02-16T07:56:36Z</time>
      </trkpt>
      <trkpt lat="46.94291" lon="0.62712">
        <ele>68.900001525879</ele>
        <time>2020-02-16T07:56:44Z</time>
      </trkpt>
      <trkpt lat="46.94275" lon="0.62711">
        <ele>68.900001525879</ele>
        <time>2020-02-16T07:56:53Z</time>
      </trkpt>
      <trkpt lat="46.94259" lon="0.62709">
        <ele>70.900001525879</ele>
        <time>2020-02-16T07:57:02Z</time>
      </trkpt>
      <trkpt lat="46.94249" lon="0.62708">
        <ele>73.900001525879</ele>
        <time>2020-02-16T07:57:08Z</time>
      </trkpt>
      <trkpt lat="46.94232" lon="0.62707">
        <ele>73.900001525879</ele>
        <time>2020-02-16T07:57:18Z</time>
      </trkpt>
      <trkpt lat="46.94215" lon="0.62707">
        <ele>75.900001525879</ele>
        <time>2020-02-16T07:57:28Z</time>
      </trkpt>
      <trkpt lat="46.94199" lon="0.62707">
        <ele>74.900001525879</ele>
        <time>2020-02-16T07:57:38Z</time>
      </trkpt>
      <trkpt lat="46.94182" lon="0.62706">
        <ele>74.900001525879</ele>
        <time>2020-02-16T07:57:49Z</time>
      </trkpt>
      <trkpt lat="46.94166" lon="0.62704">
        <ele>73.900001525879</ele>
        <time>2020-02-16T07:57:59Z</time>
      </trkpt>
      <trkpt lat="46.9415" lon="0.62703">
        <ele>73.900001525879</ele>
        <time>2020-02-16T07:58:09Z</time>
      </trkpt>
      <trkpt lat="46.94134" lon="0.62702">
        <ele>73.900001525879</ele>
        <time>2020-02-16T07:58:20Z</time>
      </trkpt>
      <trkpt lat="46.94118" lon="0.62701">
        <ele>73.900001525879</ele>
        <time>2020-02-16T07:58:30Z</time>
      </trkpt>
      <trkpt lat="46.94101" lon="0.627">
        <ele>74.900001525879</ele>
        <time>2020-02-16T07:58:40Z</time>
      </trkpt>
      <trkpt lat="46.94084" lon="0.62699">
        <ele>74.900001525879</ele>
        <time>2020-02-16T07:58:50Z</time>
      </trkpt>
      <trkpt lat="46.94068" lon="0.62696">
        <ele>75.900001525879</ele>
        <time>2020-02-16T07:58:59Z</time>
      </trkpt>
      <trkpt lat="46.94052" lon="0.62695">
        <ele>75.900001525879</ele>
        <time>2020-02-16T07:59:09Z</time>
      </trkpt>
      <trkpt lat="46.94036" lon="0.62693">
        <ele>75.900001525879</ele>
        <time>2020-02-16T07:59:20Z</time>
      </trkpt>
      <trkpt lat="46.94019" lon="0.62693">
        <ele>75.900001525879</ele>
        <time>2020-02-16T07:59:31Z</time>
      </trkpt>
      <trkpt lat="46.94002" lon="0.62691">
        <ele>76.900001525879</ele>
        <time>2020-02-16T07:59:41Z</time>
      </trkpt>
      <trkpt lat="46.93986" lon="0.62691">
        <ele>76.900001525879</ele>
        <time>2020-02-16T07:59:51Z</time>
      </trkpt>
      <trkpt lat="46.9397" lon="0.6269">
        <ele>76.900001525879</ele>
        <time>2020-02-16T08:00:01Z</time>
      </trkpt>
      <trkpt lat="46.93954" lon="0.62689">
        <ele>78.900001525879</ele>
        <time>2020-02-16T08:00:11Z</time>
      </trkpt>
      <trkpt lat="46.9395" lon="0.62688">
        <ele>78.900001525879</ele>
        <time>2020-02-16T08:00:15Z</time>
      </trkpt>
      <trkpt lat="46.93938" lon="0.62686">
        <ele>79.900001525879</ele>
        <time>2020-02-16T08:00:24Z</time>
      </trkpt>
      <trkpt lat="46.93934" lon="0.62687">
        <ele>79.900001525879</ele>
        <time>2020-02-16T08:00:26Z</time>
      </trkpt>
      <trkpt lat="46.93917" lon="0.62684">
        <ele>80.900001525879</ele>
        <time>2020-02-16T08:00:36Z</time>
      </trkpt>
      <trkpt lat="46.93901" lon="0.62683">
        <ele>80.900001525879</ele>
        <time>2020-02-16T08:00:46Z</time>
      </trkpt>
      <trkpt lat="46.93884" lon="0.62683">
        <ele>82.900001525879</ele>
        <time>2020-02-16T08:00:55Z</time>
      </trkpt>
      <trkpt lat="46.93867" lon="0.62682">
        <ele>82.900001525879</ele>
        <time>2020-02-16T08:01:05Z</time>
      </trkpt>
      <trkpt lat="46.9385" lon="0.62681">
        <ele>82.900001525879</ele>
        <time>2020-02-16T08:01:16Z</time>
      </trkpt>
      <trkpt lat="46.93835" lon="0.62679">
        <ele>83.900001525879</ele>
        <time>2020-02-16T08:01:27Z</time>
      </trkpt>
      <trkpt lat="46.93822" lon="0.62679">
        <ele>83.900001525879</ele>
        <time>2020-02-16T08:01:36Z</time>
      </trkpt>
      <trkpt lat="46.93819" lon="0.62676">
        <ele>83.900001525879</ele>
        <time>2020-02-16T08:01:40Z</time>
      </trkpt>
      <trkpt lat="46.93814" lon="0.62674">
        <ele>84.900001525879</ele>
        <time>2020-02-16T08:01:43Z</time>
      </trkpt>
      <trkpt lat="46.93808" lon="0.62673">
        <ele>83.900001525879</ele>
        <time>2020-02-16T08:01:47Z</time>
      </trkpt>
      <trkpt lat="46.93805" lon="0.62671">
        <ele>83.900001525879</ele>
        <time>2020-02-16T08:01:49Z</time>
      </trkpt>
      <trkpt lat="46.93803" lon="0.6267">
        <ele>84.900001525879</ele>
        <time>2020-02-16T08:01:51Z</time>
      </trkpt>
      <trkpt lat="46.93801" lon="0.62667">
        <ele>83.900001525879</ele>
        <time>2020-02-16T08:01:53Z</time>
      </trkpt>
      <trkpt lat="46.93793" lon="0.62641">
        <ele>81.900001525879</ele>
        <time>2020-02-16T08:02:06Z</time>
      </trkpt>
      <trkpt lat="46.93789" lon="0.62618">
        <ele>81.900001525879</ele>
        <time>2020-02-16T08:02:15Z</time>
      </trkpt>
      <trkpt lat="46.93785" lon="0.62596">
        <ele>80.900001525879</ele>
        <time>2020-02-16T08:02:24Z</time>
      </trkpt>
      <trkpt lat="46.93781" lon="0.62573">
        <ele>79.900001525879</ele>
        <time>2020-02-16T08:02:34Z</time>
      </trkpt>
      <trkpt lat="46.93775" lon="0.62551">
        <ele>80.900001525879</ele>
        <time>2020-02-16T08:02:44Z</time>
      </trkpt>
      <trkpt lat="46.93775" lon="0.62547">
        <ele>82.900001525879</ele>
        <time>2020-02-16T08:02:46Z</time>
      </trkpt>
      <trkpt lat="46.93772" lon="0.62527">
        <ele>82.900001525879</ele>
        <time>2020-02-16T08:02:55Z</time>
      </trkpt>
      <trkpt lat="46.93768" lon="0.62505">
        <ele>84.900001525879</ele>
        <time>2020-02-16T08:03:06Z</time>
      </trkpt>
      <trkpt lat="46.93763" lon="0.62483">
        <ele>85.900001525879</ele>
        <time>2020-02-16T08:03:17Z</time>
      </trkpt>
      <trkpt lat="46.93761" lon="0.62473">
        <ele>85.900001525879</ele>
        <time>2020-02-16T08:03:22Z</time>
      </trkpt>
      <trkpt lat="46.9376" lon="0.62469">
        <ele>86.900001525879</ele>
        <time>2020-02-16T08:03:24Z</time>
      </trkpt>
      <trkpt lat="46.93759" lon="0.62459">
        <ele>85.900001525879</ele>
        <time>2020-02-16T08:03:28Z</time>
      </trkpt>
      <trkpt lat="46.93758" lon="0.62455">
        <ele>85.900001525879</ele>
        <time>2020-02-16T08:03:30Z</time>
      </trkpt>
      <trkpt lat="46.93756" lon="0.62451">
        <ele>86.900001525879</ele>
        <time>2020-02-16T08:03:33Z</time>
      </trkpt>
      <trkpt lat="46.93755" lon="0.62447">
        <ele>86.900001525879</ele>
        <time>2020-02-16T08:03:35Z</time>
      </trkpt>
      <trkpt lat="46.93751" lon="0.62424">
        <ele>87.900001525879</ele>
        <time>2020-02-16T08:03:46Z</time>
      </trkpt>
      <trkpt lat="46.93749" lon="0.624">
        <ele>85.900001525879</ele>
        <time>2020-02-16T08:03:55Z</time>
      </trkpt>
      <trkpt lat="46.93744" lon="0.62378">
        <ele>87.900001525879</ele>
        <time>2020-02-16T08:04:06Z</time>
      </trkpt>
      <trkpt lat="46.93738" lon="0.62353">
        <ele>87.900001525879</ele>
        <time>2020-02-16T08:04:18Z</time>
      </trkpt>
      <trkpt lat="46.93736" lon="0.62347">
        <ele>87.900001525879</ele>
        <time>2020-02-16T08:04:21Z</time>
      </trkpt>
      <trkpt lat="46.93734" lon="0.62327">
        <ele>85.900001525879</ele>
        <time>2020-02-16T08:04:30Z</time>
      </trkpt>
      <trkpt lat="46.93734" lon="0.62302">
        <ele>85.900001525879</ele>
        <time>2020-02-16T08:04:40Z</time>
      </trkpt>
      <trkpt lat="46.93737" lon="0.62279">
        <ele>83.900001525879</ele>
        <time>2020-02-16T08:04:50Z</time>
      </trkpt>
      <trkpt lat="46.93739" lon="0.62262">
        <ele>80.900001525879</ele>
        <time>2020-02-16T08:04:57Z</time>
      </trkpt>
      <trkpt lat="46.9374" lon="0.62246">
        <ele>81.900001525879</ele>
        <time>2020-02-16T08:05:04Z</time>
      </trkpt>
      <trkpt lat="46.93738" lon="0.62231">
        <ele>82.900001525879</ele>
        <time>2020-02-16T08:05:13Z</time>
      </trkpt>
      <trkpt lat="46.93739" lon="0.62216">
        <ele>84.900001525879</ele>
        <time>2020-02-16T08:05:20Z</time>
      </trkpt>
      <trkpt lat="46.9374" lon="0.62202">
        <ele>83.900001525879</ele>
        <time>2020-02-16T08:05:25Z</time>
      </trkpt>
      <trkpt lat="46.9374" lon="0.62186">
        <ele>83.900001525879</ele>
        <time>2020-02-16T08:05:32Z</time>
      </trkpt>
      <trkpt lat="46.93743" lon="0.62163">
        <ele>83.900001525879</ele>
        <time>2020-02-16T08:05:42Z</time>
      </trkpt>
      <trkpt lat="46.93745" lon="0.6214">
        <ele>81.900001525879</ele>
        <time>2020-02-16T08:05:51Z</time>
      </trkpt>
      <trkpt lat="46.93748" lon="0.62117">
        <ele>81.900001525879</ele>
        <time>2020-02-16T08:06:00Z</time>
      </trkpt>
      <trkpt lat="46.93749" lon="0.6211">
        <ele>80.900001525879</ele>
        <time>2020-02-16T08:06:03Z</time>
      </trkpt>
      <trkpt lat="46.93749" lon="0.62092">
        <ele>83.900001525879</ele>
        <time>2020-02-16T08:06:12Z</time>
      </trkpt>
      <trkpt lat="46.93749" lon="0.62068">
        <ele>85.900001525879</ele>
        <time>2020-02-16T08:06:22Z</time>
      </trkpt>
      <trkpt lat="46.93746" lon="0.62043">
        <ele>84.900001525879</ele>
        <time>2020-02-16T08:06:34Z</time>
      </trkpt>
      <trkpt lat="46.93746" lon="0.62033">
        <ele>82.900001525879</ele>
        <time>2020-02-16T08:06:38Z</time>
      </trkpt>
      <trkpt lat="46.93746" lon="0.62023">
        <ele>82.900001525879</ele>
        <time>2020-02-16T08:06:42Z</time>
      </trkpt>
      <trkpt lat="46.93746" lon="0.6202">
        <ele>81.900001525879</ele>
        <time>2020-02-16T08:06:43Z</time>
      </trkpt>
      <trkpt lat="46.93743" lon="0.61996">
        <ele>81.900001525879</ele>
        <time>2020-02-16T08:06:52Z</time>
      </trkpt>
      <trkpt lat="46.9374" lon="0.61972">
        <ele>79.900001525879</ele>
        <time>2020-02-16T08:07:02Z</time>
      </trkpt>
      <trkpt lat="46.93736" lon="0.61948">
        <ele>78.900001525879</ele>
        <time>2020-02-16T08:07:12Z</time>
      </trkpt>
      <trkpt lat="46.93733" lon="0.61938">
        <ele>80.900001525879</ele>
        <time>2020-02-16T08:07:18Z</time>
      </trkpt>
      <trkpt lat="46.93732" lon="0.61934">
        <ele>81.900001525879</ele>
        <time>2020-02-16T08:07:20Z</time>
      </trkpt>
      <trkpt lat="46.9373" lon="0.61926">
        <ele>81.900001525879</ele>
        <time>2020-02-16T08:07:24Z</time>
      </trkpt>
      <trkpt lat="46.9373" lon="0.61903">
        <ele>79.900001525879</ele>
        <time>2020-02-16T08:07:32Z</time>
      </trkpt>
      <trkpt lat="46.93731" lon="0.61881">
        <ele>75.900001525879</ele>
        <time>2020-02-16T08:07:40Z</time>
      </trkpt>
      <trkpt lat="46.93731" lon="0.61865">
        <ele>72.900001525879</ele>
        <time>2020-02-16T08:07:46Z</time>
      </trkpt>
      <trkpt lat="46.93734" lon="0.61842">
        <ele>71.900001525879</ele>
        <time>2020-02-16T08:07:55Z</time>
      </trkpt>
      <trkpt lat="46.93736" lon="0.61819">
        <ele>69.900001525879</ele>
        <time>2020-02-16T08:08:04Z</time>
      </trkpt>
      <trkpt lat="46.9374" lon="0.61794">
        <ele>67.900001525879</ele>
        <time>2020-02-16T08:08:14Z</time>
      </trkpt>
      <trkpt lat="46.93742" lon="0.61772">
        <ele>66.900001525879</ele>
        <time>2020-02-16T08:08:24Z</time>
      </trkpt>
      <trkpt lat="46.93744" lon="0.61749">
        <ele>66.900001525879</ele>
        <time>2020-02-16T08:08:34Z</time>
      </trkpt>
      <trkpt lat="46.93747" lon="0.61724">
        <ele>65.900001525879</ele>
        <time>2020-02-16T08:08:44Z</time>
      </trkpt>
      <trkpt lat="46.9375" lon="0.617">
        <ele>63.900001525879</ele>
        <time>2020-02-16T08:08:54Z</time>
      </trkpt>
      <trkpt lat="46.93751" lon="0.61683">
        <ele>63.900001525879</ele>
        <time>2020-02-16T08:09:01Z</time>
      </trkpt>
      <trkpt lat="46.93752" lon="0.61658">
        <ele>61.900001525879</ele>
        <time>2020-02-16T08:09:11Z</time>
      </trkpt>
      <trkpt lat="46.93755" lon="0.61634">
        <ele>61.900001525879</ele>
        <time>2020-02-16T08:09:21Z</time>
      </trkpt>
      <trkpt lat="46.93757" lon="0.61607">
        <ele>61.900001525879</ele>
        <time>2020-02-16T08:09:33Z</time>
      </trkpt>
      <trkpt lat="46.93758" lon="0.61583">
        <ele>60.900001525879</ele>
        <time>2020-02-16T08:09:44Z</time>
      </trkpt>
      <trkpt lat="46.9376" lon="0.61559">
        <ele>60.900001525879</ele>
        <time>2020-02-16T08:09:54Z</time>
      </trkpt>
      <trkpt lat="46.93764" lon="0.61531">
        <ele>59.900001525879</ele>
        <time>2020-02-16T08:10:06Z</time>
      </trkpt>
      <trkpt lat="46.93766" lon="0.61516">
        <ele>59.900001525879</ele>
        <time>2020-02-16T08:10:12Z</time>
      </trkpt>
      <trkpt lat="46.93767" lon="0.61499">
        <ele>57.900001525879</ele>
        <time>2020-02-16T08:10:20Z</time>
      </trkpt>
      <trkpt lat="46.93769" lon="0.61476">
        <ele>58.900001525879</ele>
        <time>2020-02-16T08:10:30Z</time>
      </trkpt>
      <trkpt lat="46.93771" lon="0.61452">
        <ele>60.900001525879</ele>
        <time>2020-02-16T08:10:41Z</time>
      </trkpt>
      <trkpt lat="46.93773" lon="0.61428">
        <ele>61.900001525879</ele>
        <time>2020-02-16T08:10:50Z</time>
      </trkpt>
      <trkpt lat="46.93775" lon="0.61402">
        <ele>59.900001525879</ele>
        <time>2020-02-16T08:11:02Z</time>
      </trkpt>
      <trkpt lat="46.93778" lon="0.61378">
        <ele>59.900001525879</ele>
        <time>2020-02-16T08:11:12Z</time>
      </trkpt>
      <trkpt lat="46.93778" lon="0.61375">
        <ele>59.900001525879</ele>
        <time>2020-02-16T08:11:13Z</time>
      </trkpt>
      <trkpt lat="46.93776" lon="0.61348">
        <ele>60.900001525879</ele>
        <time>2020-02-16T08:11:26Z</time>
      </trkpt>
      <trkpt lat="46.93776" lon="0.6134">
        <ele>61.900001525879</ele>
        <time>2020-02-16T08:11:30Z</time>
      </trkpt>
      <trkpt lat="46.93775" lon="0.61315">
        <ele>61.900001525879</ele>
        <time>2020-02-16T08:11:40Z</time>
      </trkpt>
      <trkpt lat="46.93774" lon="0.61292">
        <ele>61.900001525879</ele>
        <time>2020-02-16T08:11:50Z</time>
      </trkpt>
      <trkpt lat="46.93774" lon="0.6128">
        <ele>61.900001525879</ele>
        <time>2020-02-16T08:11:54Z</time>
      </trkpt>
      <trkpt lat="46.93773" lon="0.61277">
        <ele>61.900001525879</ele>
        <time>2020-02-16T08:11:55Z</time>
      </trkpt>
      <trkpt lat="46.93772" lon="0.61266">
        <ele>62.900001525879</ele>
        <time>2020-02-16T08:12:00Z</time>
      </trkpt>
      <trkpt lat="46.93771" lon="0.61243">
        <ele>60.900001525879</ele>
        <time>2020-02-16T08:12:10Z</time>
      </trkpt>
      <trkpt lat="46.93771" lon="0.61241">
        <ele>60.900001525879</ele>
        <time>2020-02-16T08:12:11Z</time>
      </trkpt>
      <trkpt lat="46.93771" lon="0.61238">
        <ele>59.900001525879</ele>
        <time>2020-02-16T08:12:12Z</time>
      </trkpt>
      <trkpt lat="46.9377" lon="0.61235">
        <ele>59.900001525879</ele>
        <time>2020-02-16T08:12:13Z</time>
      </trkpt>
      <trkpt lat="46.93768" lon="0.61228">
        <ele>60.900001525879</ele>
        <time>2020-02-16T08:12:16Z</time>
      </trkpt>
      <trkpt lat="46.93762" lon="0.61217">
        <ele>62.900001525879</ele>
        <time>2020-02-16T08:12:22Z</time>
      </trkpt>
      <trkpt lat="46.93761" lon="0.61214">
        <ele>63.900001525879</ele>
        <time>2020-02-16T08:12:24Z</time>
      </trkpt>
      <trkpt lat="46.9376" lon="0.61201">
        <ele>66.900001525879</ele>
        <time>2020-02-16T08:12:30Z</time>
      </trkpt>
      <trkpt lat="46.93759" lon="0.61191">
        <ele>66.900001525879</ele>
        <time>2020-02-16T08:12:34Z</time>
      </trkpt>
      <trkpt lat="46.93757" lon="0.61167">
        <ele>65.900001525879</ele>
        <time>2020-02-16T08:12:43Z</time>
      </trkpt>
      <trkpt lat="46.93755" lon="0.61144">
        <ele>67.900001525879</ele>
        <time>2020-02-16T08:12:53Z</time>
      </trkpt>
      <trkpt lat="46.93754" lon="0.61132">
        <ele>66.900001525879</ele>
        <time>2020-02-16T08:12:58Z</time>
      </trkpt>
      <trkpt lat="46.93754" lon="0.61109">
        <ele>67.900001525879</ele>
        <time>2020-02-16T08:13:08Z</time>
      </trkpt>
      <trkpt lat="46.93754" lon="0.61085">
        <ele>67.900001525879</ele>
        <time>2020-02-16T08:13:18Z</time>
      </trkpt>
      <trkpt lat="46.93755" lon="0.61073">
        <ele>66.900001525879</ele>
        <time>2020-02-16T08:13:23Z</time>
      </trkpt>
      <trkpt lat="46.93755" lon="0.61053">
        <ele>65.900001525879</ele>
        <time>2020-02-16T08:13:31Z</time>
      </trkpt>
      <trkpt lat="46.93754" lon="0.61049">
        <ele>64.900001525879</ele>
        <time>2020-02-16T08:13:33Z</time>
      </trkpt>
      <trkpt lat="46.9375" lon="0.61044">
        <ele>62.900001525879</ele>
        <time>2020-02-16T08:13:37Z</time>
      </trkpt>
      <trkpt lat="46.93744" lon="0.6104">
        <ele>62.900001525879</ele>
        <time>2020-02-16T08:13:42Z</time>
      </trkpt>
      <trkpt lat="46.93738" lon="0.61039">
        <ele>59.900001525879</ele>
        <time>2020-02-16T08:13:46Z</time>
      </trkpt>
      <trkpt lat="46.93722" lon="0.61035">
        <ele>57.900001525879</ele>
        <time>2020-02-16T08:13:55Z</time>
      </trkpt>
      <trkpt lat="46.93706" lon="0.61031">
        <ele>57.900001525879</ele>
        <time>2020-02-16T08:14:05Z</time>
      </trkpt>
      <trkpt lat="46.93691" lon="0.61028">
        <ele>56.900001525879</ele>
        <time>2020-02-16T08:14:14Z</time>
      </trkpt>
      <trkpt lat="46.93683" lon="0.61027">
        <ele>56.900001525879</ele>
        <time>2020-02-16T08:14:19Z</time>
      </trkpt>
      <trkpt lat="46.93674" lon="0.61027">
        <ele>54.900001525879</ele>
        <time>2020-02-16T08:14:25Z</time>
      </trkpt>
      <trkpt lat="46.93658" lon="0.61024">
        <ele>56.900001525879</ele>
        <time>2020-02-16T08:14:35Z</time>
      </trkpt>
      <trkpt lat="46.93648" lon="0.61023">
        <ele>55.900001525879</ele>
        <time>2020-02-16T08:14:41Z</time>
      </trkpt>
      <trkpt lat="46.93643" lon="0.61023">
        <ele>54.900001525879</ele>
        <time>2020-02-16T08:14:44Z</time>
      </trkpt>
      <trkpt lat="46.93627" lon="0.6102">
        <ele>54.900001525879</ele>
        <time>2020-02-16T08:14:54Z</time>
      </trkpt>
      <trkpt lat="46.93612" lon="0.61016">
        <ele>53.900001525879</ele>
        <time>2020-02-16T08:15:03Z</time>
      </trkpt>
      <trkpt lat="46.93595" lon="0.61012">
        <ele>53.900001525879</ele>
        <time>2020-02-16T08:15:13Z</time>
      </trkpt>
      <trkpt lat="46.93578" lon="0.61008">
        <ele>54.900001525879</ele>
        <time>2020-02-16T08:15:23Z</time>
      </trkpt>
      <trkpt lat="46.93574" lon="0.61007">
        <ele>55.900001525879</ele>
        <time>2020-02-16T08:15:26Z</time>
      </trkpt>
      <trkpt lat="46.93572" lon="0.61006">
        <ele>55.900001525879</ele>
        <time>2020-02-16T08:15:27Z</time>
      </trkpt>
      <trkpt lat="46.93556" lon="0.61004">
        <ele>58.900001525879</ele>
        <time>2020-02-16T08:15:38Z</time>
      </trkpt>
      <trkpt lat="46.9354" lon="0.60999">
        <ele>58.900001525879</ele>
        <time>2020-02-16T08:15:49Z</time>
      </trkpt>
      <trkpt lat="46.93524" lon="0.60997">
        <ele>56.900001525879</ele>
        <time>2020-02-16T08:15:59Z</time>
      </trkpt>
      <trkpt lat="46.93508" lon="0.60992">
        <ele>57.900001525879</ele>
        <time>2020-02-16T08:16:09Z</time>
      </trkpt>
      <trkpt lat="46.93494" lon="0.60989">
        <ele>57.900001525879</ele>
        <time>2020-02-16T08:16:17Z</time>
      </trkpt>
      <trkpt lat="46.93484" lon="0.6098">
        <ele>57.900001525879</ele>
        <time>2020-02-16T08:16:24Z</time>
      </trkpt>
      <trkpt lat="46.9348" lon="0.60975">
        <ele>57.900001525879</ele>
        <time>2020-02-16T08:16:28Z</time>
      </trkpt>
      <trkpt lat="46.9347" lon="0.60955">
        <ele>55.900001525879</ele>
        <time>2020-02-16T08:16:39Z</time>
      </trkpt>
      <trkpt lat="46.93461" lon="0.60936">
        <ele>55.900001525879</ele>
        <time>2020-02-16T08:16:49Z</time>
      </trkpt>
      <trkpt lat="46.93457" lon="0.6092">
        <ele>56.900001525879</ele>
        <time>2020-02-16T08:16:57Z</time>
      </trkpt>
      <trkpt lat="46.93449" lon="0.60905">
        <ele>54.900001525879</ele>
        <time>2020-02-16T08:17:05Z</time>
      </trkpt>
      <trkpt lat="46.93447" lon="0.60903">
        <ele>54.900001525879</ele>
        <time>2020-02-16T08:17:06Z</time>
      </trkpt>
      <trkpt lat="46.93435" lon="0.60887">
        <ele>56.900001525879</ele>
        <time>2020-02-16T08:17:16Z</time>
      </trkpt>
      <trkpt lat="46.93427" lon="0.60867">
        <ele>54.900001525879</ele>
        <time>2020-02-16T08:17:26Z</time>
      </trkpt>
      <trkpt lat="46.93426" lon="0.6086">
        <ele>54.900001525879</ele>
        <time>2020-02-16T08:17:29Z</time>
      </trkpt>
      <trkpt lat="46.93415" lon="0.60842">
        <ele>56.900001525879</ele>
        <time>2020-02-16T08:17:38Z</time>
      </trkpt>
      <trkpt lat="46.93411" lon="0.60837">
        <ele>57.900001525879</ele>
        <time>2020-02-16T08:17:41Z</time>
      </trkpt>
      <trkpt lat="46.93405" lon="0.60831">
        <ele>59.900001525879</ele>
        <time>2020-02-16T08:17:46Z</time>
      </trkpt>
      <trkpt lat="46.93396" lon="0.60829">
        <ele>59.900001525879</ele>
        <time>2020-02-16T08:17:53Z</time>
      </trkpt>
      <trkpt lat="46.93375" lon="0.60822">
        <ele>55.900001525879</ele>
        <time>2020-02-16T08:18:07Z</time>
      </trkpt>
      <trkpt lat="46.93365" lon="0.60819">
        <ele>55.900001525879</ele>
        <time>2020-02-16T08:18:14Z</time>
      </trkpt>
      <trkpt lat="46.9336" lon="0.60818">
        <ele>53.900001525879</ele>
        <time>2020-02-16T08:18:18Z</time>
      </trkpt>
      <trkpt lat="46.93354" lon="0.60815">
        <ele>52.900001525879</ele>
        <time>2020-02-16T08:18:23Z</time>
      </trkpt>
      <trkpt lat="46.93341" lon="0.60813">
        <ele>50.900001525879</ele>
        <time>2020-02-16T08:18:31Z</time>
      </trkpt>
      <trkpt lat="46.93329" lon="0.60811">
        <ele>53.900001525879</ele>
        <time>2020-02-16T08:18:38Z</time>
      </trkpt>
      <trkpt lat="46.93313" lon="0.60807">
        <ele>55.900001525879</ele>
        <time>2020-02-16T08:18:47Z</time>
      </trkpt>
      <trkpt lat="46.93297" lon="0.60802">
        <ele>58.900001525879</ele>
        <time>2020-02-16T08:18:57Z</time>
      </trkpt>
      <trkpt lat="46.93281" lon="0.60797">
        <ele>58.900001525879</ele>
        <time>2020-02-16T08:19:07Z</time>
      </trkpt>
      <trkpt lat="46.93264" lon="0.6079">
        <ele>57.900001525879</ele>
        <time>2020-02-16T08:19:18Z</time>
      </trkpt>
      <trkpt lat="46.93255" lon="0.60787">
        <ele>58.900001525879</ele>
        <time>2020-02-16T08:19:24Z</time>
      </trkpt>
      <trkpt lat="46.93249" lon="0.60788">
        <ele>56.900001525879</ele>
        <time>2020-02-16T08:19:28Z</time>
      </trkpt>
      <trkpt lat="46.93232" lon="0.60784">
        <ele>57.900001525879</ele>
        <time>2020-02-16T08:19:39Z</time>
      </trkpt>
      <trkpt lat="46.93217" lon="0.60778">
        <ele>59.900001525879</ele>
        <time>2020-02-16T08:19:49Z</time>
      </trkpt>
      <trkpt lat="46.93201" lon="0.60775">
        <ele>57.900001525879</ele>
        <time>2020-02-16T08:19:59Z</time>
      </trkpt>
      <trkpt lat="46.93184" lon="0.60771">
        <ele>58.900001525879</ele>
        <time>2020-02-16T08:20:09Z</time>
      </trkpt>
      <trkpt lat="46.93168" lon="0.60768">
        <ele>56.900001525879</ele>
        <time>2020-02-16T08:20:19Z</time>
      </trkpt>
      <trkpt lat="46.93157" lon="0.60768">
        <ele>55.900001525879</ele>
        <time>2020-02-16T08:20:26Z</time>
      </trkpt>
      <trkpt lat="46.93151" lon="0.6077">
        <ele>55.900001525879</ele>
        <time>2020-02-16T08:20:31Z</time>
      </trkpt>
      <trkpt lat="46.9314" lon="0.60778">
        <ele>56.900001525879</ele>
        <time>2020-02-16T08:20:40Z</time>
      </trkpt>
      <trkpt lat="46.93127" lon="0.60791">
        <ele>57.900001525879</ele>
        <time>2020-02-16T08:20:51Z</time>
      </trkpt>
      <trkpt lat="46.93113" lon="0.60805">
        <ele>57.900001525879</ele>
        <time>2020-02-16T08:21:02Z</time>
      </trkpt>
      <trkpt lat="46.93108" lon="0.60811">
        <ele>57.900001525879</ele>
        <time>2020-02-16T08:21:07Z</time>
      </trkpt>
      <trkpt lat="46.93106" lon="0.60815">
        <ele>56.900001525879</ele>
        <time>2020-02-16T08:21:09Z</time>
      </trkpt>
      <trkpt lat="46.93105" lon="0.6082">
        <ele>54.900001525879</ele>
        <time>2020-02-16T08:21:12Z</time>
      </trkpt>
      <trkpt lat="46.93104" lon="0.60824">
        <ele>55.900001525879</ele>
        <time>2020-02-16T08:21:14Z</time>
      </trkpt>
      <trkpt lat="46.93104" lon="0.60827">
        <ele>54.900001525879</ele>
        <time>2020-02-16T08:21:16Z</time>
      </trkpt>
      <trkpt lat="46.93108" lon="0.60841">
        <ele>53.900001525879</ele>
        <time>2020-02-16T08:21:23Z</time>
      </trkpt>
      <trkpt lat="46.93116" lon="0.60861">
        <ele>53.900001525879</ele>
        <time>2020-02-16T08:21:33Z</time>
      </trkpt>
      <trkpt lat="46.9312" lon="0.60871">
        <ele>51.900001525879</ele>
        <time>2020-02-16T08:21:38Z</time>
      </trkpt>
      <trkpt lat="46.93121" lon="0.60874">
        <ele>51.900001525879</ele>
        <time>2020-02-16T08:21:39Z</time>
      </trkpt>
      <trkpt lat="46.93122" lon="0.60877">
        <ele>51.900001525879</ele>
        <time>2020-02-16T08:21:40Z</time>
      </trkpt>
      <trkpt lat="46.93122" lon="0.60881">
        <ele>50.900001525879</ele>
        <time>2020-02-16T08:21:42Z</time>
      </trkpt>
      <trkpt lat="46.93121" lon="0.60891">
        <ele>51.900001525879</ele>
        <time>2020-02-16T08:21:46Z</time>
      </trkpt>
      <trkpt lat="46.9312" lon="0.60893">
        <ele>52.900001525879</ele>
        <time>2020-02-16T08:21:47Z</time>
      </trkpt>
      <trkpt lat="46.93118" lon="0.609">
        <ele>51.900001525879</ele>
        <time>2020-02-16T08:21:50Z</time>
      </trkpt>
      <trkpt lat="46.93116" lon="0.60903">
        <ele>50.900001525879</ele>
        <time>2020-02-16T08:21:52Z</time>
      </trkpt>
      <trkpt lat="46.93109" lon="0.60904">
        <ele>49.900001525879</ele>
        <time>2020-02-16T08:21:57Z</time>
      </trkpt>
      <trkpt lat="46.931" lon="0.60901">
        <ele>52.900001525879</ele>
        <time>2020-02-16T08:22:03Z</time>
      </trkpt>
      <trkpt lat="46.93087" lon="0.60894">
        <ele>51.900001525879</ele>
        <time>2020-02-16T08:22:13Z</time>
      </trkpt>
      <trkpt lat="46.93071" lon="0.60881">
        <ele>49.900001525879</ele>
        <time>2020-02-16T08:22:25Z</time>
      </trkpt>
      <trkpt lat="46.93057" lon="0.60872">
        <ele>48.900001525879</ele>
        <time>2020-02-16T08:22:36Z</time>
      </trkpt>
      <trkpt lat="46.93048" lon="0.60867">
        <ele>48.900001525879</ele>
        <time>2020-02-16T08:22:42Z</time>
      </trkpt>
      <trkpt lat="46.93038" lon="0.60857">
        <ele>48.900001525879</ele>
        <time>2020-02-16T08:22:51Z</time>
      </trkpt>
      <trkpt lat="46.93036" lon="0.60854">
        <ele>47.900001525879</ele>
        <time>2020-02-16T08:22:53Z</time>
      </trkpt>
      <trkpt lat="46.93022" lon="0.60843">
        <ele>49.900001525879</ele>
        <time>2020-02-16T08:23:02Z</time>
      </trkpt>
      <trkpt lat="46.93009" lon="0.60831">
        <ele>49.900001525879</ele>
        <time>2020-02-16T08:23:10Z</time>
      </trkpt>
      <trkpt lat="46.92996" lon="0.60817">
        <ele>50.900001525879</ele>
        <time>2020-02-16T08:23:19Z</time>
      </trkpt>
      <trkpt lat="46.92984" lon="0.60805">
        <ele>50.900001525879</ele>
        <time>2020-02-16T08:23:29Z</time>
      </trkpt>
      <trkpt lat="46.92977" lon="0.608">
        <ele>51.900001525879</ele>
        <time>2020-02-16T08:23:34Z</time>
      </trkpt>
      <trkpt lat="46.92975" lon="0.60798">
        <ele>52.900001525879</ele>
        <time>2020-02-16T08:23:36Z</time>
      </trkpt>
      <trkpt lat="46.92972" lon="0.60792">
        <ele>54.900001525879</ele>
        <time>2020-02-16T08:23:40Z</time>
      </trkpt>
      <trkpt lat="46.92962" lon="0.60782">
        <ele>58.900001525879</ele>
        <time>2020-02-16T08:23:48Z</time>
      </trkpt>
      <trkpt lat="46.92957" lon="0.60777">
        <ele>59.900001525879</ele>
        <time>2020-02-16T08:23:52Z</time>
      </trkpt>
      <trkpt lat="46.92949" lon="0.60766">
        <ele>61.900001525879</ele>
        <time>2020-02-16T08:24:00Z</time>
      </trkpt>
      <trkpt lat="46.92939" lon="0.60748">
        <ele>62.900001525879</ele>
        <time>2020-02-16T08:24:10Z</time>
      </trkpt>
      <trkpt lat="46.92931" lon="0.60737">
        <ele>63.900001525879</ele>
        <time>2020-02-16T08:24:18Z</time>
      </trkpt>
      <trkpt lat="46.92926" lon="0.60725">
        <ele>64.900001525879</ele>
        <time>2020-02-16T08:24:26Z</time>
      </trkpt>
      <trkpt lat="46.9292" lon="0.60714">
        <ele>63.900001525879</ele>
        <time>2020-02-16T08:24:32Z</time>
      </trkpt>
      <trkpt lat="46.92915" lon="0.60701">
        <ele>64.900001525879</ele>
        <time>2020-02-16T08:24:40Z</time>
      </trkpt>
      <trkpt lat="46.92907" lon="0.60683">
        <ele>65.900001525879</ele>
        <time>2020-02-16T08:24:51Z</time>
      </trkpt>
      <trkpt lat="46.92901" lon="0.60659">
        <ele>64.900001525879</ele>
        <time>2020-02-16T08:25:02Z</time>
      </trkpt>
      <trkpt lat="46.92894" lon="0.60638">
        <ele>62.900001525879</ele>
        <time>2020-02-16T08:25:12Z</time>
      </trkpt>
      <trkpt lat="46.92888" lon="0.60625">
        <ele>62.900001525879</ele>
        <time>2020-02-16T08:25:20Z</time>
      </trkpt>
      <trkpt lat="46.92883" lon="0.60604">
        <ele>61.900001525879</ele>
        <time>2020-02-16T08:25:31Z</time>
      </trkpt>
      <trkpt lat="46.92881" lon="0.606">
        <ele>62.900001525879</ele>
        <time>2020-02-16T08:25:33Z</time>
      </trkpt>
      <trkpt lat="46.92879" lon="0.60589">
        <ele>59.900001525879</ele>
        <time>2020-02-16T08:25:38Z</time>
      </trkpt>
      <trkpt lat="46.92874" lon="0.60575">
        <ele>59.900001525879</ele>
        <time>2020-02-16T08:25:45Z</time>
      </trkpt>
      <trkpt lat="46.92873" lon="0.60571">
        <ele>59.900001525879</ele>
        <time>2020-02-16T08:25:47Z</time>
      </trkpt>
      <trkpt lat="46.92868" lon="0.60551">
        <ele>59.900001525879</ele>
        <time>2020-02-16T08:25:56Z</time>
      </trkpt>
      <trkpt lat="46.92865" lon="0.60545">
        <ele>59.900001525879</ele>
        <time>2020-02-16T08:25:59Z</time>
      </trkpt>
      <trkpt lat="46.92858" lon="0.60525">
        <ele>58.900001525879</ele>
        <time>2020-02-16T08:26:09Z</time>
      </trkpt>
      <trkpt lat="46.92857" lon="0.60518">
        <ele>59.900001525879</ele>
        <time>2020-02-16T08:26:13Z</time>
      </trkpt>
      <trkpt lat="46.92854" lon="0.60514">
        <ele>59.900001525879</ele>
        <time>2020-02-16T08:26:16Z</time>
      </trkpt>
      <trkpt lat="46.9285" lon="0.60505">
        <ele>58.900001525879</ele>
        <time>2020-02-16T08:26:21Z</time>
      </trkpt>
      <trkpt lat="46.92844" lon="0.60483">
        <ele>56.900001525879</ele>
        <time>2020-02-16T08:26:30Z</time>
      </trkpt>
      <trkpt lat="46.92839" lon="0.60463">
        <ele>55.900001525879</ele>
        <time>2020-02-16T08:26:38Z</time>
      </trkpt>
      <trkpt lat="46.92832" lon="0.60441">
        <ele>53.900001525879</ele>
        <time>2020-02-16T08:26:48Z</time>
      </trkpt>
      <trkpt lat="46.92826" lon="0.60421">
        <ele>53.900001525879</ele>
        <time>2020-02-16T08:26:57Z</time>
      </trkpt>
      <trkpt lat="46.92825" lon="0.60407">
        <ele>54.900001525879</ele>
        <time>2020-02-16T08:27:03Z</time>
      </trkpt>
      <trkpt lat="46.92825" lon="0.60398">
        <ele>55.900001525879</ele>
        <time>2020-02-16T08:27:07Z</time>
      </trkpt>
      <trkpt lat="46.92824" lon="0.60395">
        <ele>55.900001525879</ele>
        <time>2020-02-16T08:27:09Z</time>
      </trkpt>
      <trkpt lat="46.92813" lon="0.60378">
        <ele>54.900001525879</ele>
        <time>2020-02-16T08:27:18Z</time>
      </trkpt>
      <trkpt lat="46.92811" lon="0.60374">
        <ele>55.900001525879</ele>
        <time>2020-02-16T08:27:20Z</time>
      </trkpt>
      <trkpt lat="46.9281" lon="0.60369">
        <ele>55.900001525879</ele>
        <time>2020-02-16T08:27:23Z</time>
      </trkpt>
      <trkpt lat="46.92799" lon="0.60351">
        <ele>54.900001525879</ele>
        <time>2020-02-16T08:27:32Z</time>
      </trkpt>
      <trkpt lat="46.92797" lon="0.60348">
        <ele>54.900001525879</ele>
        <time>2020-02-16T08:27:34Z</time>
      </trkpt>
      <trkpt lat="46.92789" lon="0.60328">
        <ele>56.900001525879</ele>
        <time>2020-02-16T08:27:44Z</time>
      </trkpt>
      <trkpt lat="46.92786" lon="0.60319">
        <ele>56.900001525879</ele>
        <time>2020-02-16T08:27:48Z</time>
      </trkpt>
      <trkpt lat="46.92778" lon="0.60295">
        <ele>54.900001525879</ele>
        <time>2020-02-16T08:27:58Z</time>
      </trkpt>
      <trkpt lat="46.9277" lon="0.60279">
        <ele>56.900001525879</ele>
        <time>2020-02-16T08:28:06Z</time>
      </trkpt>
      <trkpt lat="46.92756" lon="0.60263">
        <ele>54.900001525879</ele>
        <time>2020-02-16T08:28:16Z</time>
      </trkpt>
      <trkpt lat="46.92746" lon="0.60254">
        <ele>53.900001525879</ele>
        <time>2020-02-16T08:28:24Z</time>
      </trkpt>
      <trkpt lat="46.92735" lon="0.60241">
        <ele>53.900001525879</ele>
        <time>2020-02-16T08:28:33Z</time>
      </trkpt>
      <trkpt lat="46.92721" lon="0.60227">
        <ele>54.900001525879</ele>
        <time>2020-02-16T08:28:43Z</time>
      </trkpt>
      <trkpt lat="46.92709" lon="0.60217">
        <ele>56.900001525879</ele>
        <time>2020-02-16T08:28:53Z</time>
      </trkpt>
      <trkpt lat="46.92702" lon="0.60209">
        <ele>56.900001525879</ele>
        <time>2020-02-16T08:28:59Z</time>
      </trkpt>
      <trkpt lat="46.9269" lon="0.60198">
        <ele>55.900001525879</ele>
        <time>2020-02-16T08:29:08Z</time>
      </trkpt>
      <trkpt lat="46.92682" lon="0.6019">
        <ele>57.900001525879</ele>
        <time>2020-02-16T08:29:14Z</time>
      </trkpt>
      <trkpt lat="46.92669" lon="0.60176">
        <ele>58.900001525879</ele>
        <time>2020-02-16T08:29:24Z</time>
      </trkpt>
      <trkpt lat="46.92656" lon="0.60165">
        <ele>54.900001525879</ele>
        <time>2020-02-16T08:29:33Z</time>
      </trkpt>
      <trkpt lat="46.92642" lon="0.60152">
        <ele>53.900001525879</ele>
        <time>2020-02-16T08:29:43Z</time>
      </trkpt>
      <trkpt lat="46.92636" lon="0.60146">
        <ele>54.900001525879</ele>
        <time>2020-02-16T08:29:47Z</time>
      </trkpt>
      <trkpt lat="46.92621" lon="0.60134">
        <ele>53.900001525879</ele>
        <time>2020-02-16T08:29:57Z</time>
      </trkpt>
      <trkpt lat="46.92607" lon="0.60122">
        <ele>53.900001525879</ele>
        <time>2020-02-16T08:30:07Z</time>
      </trkpt>
      <trkpt lat="46.92593" lon="0.6011">
        <ele>53.900001525879</ele>
        <time>2020-02-16T08:30:17Z</time>
      </trkpt>
      <trkpt lat="46.92579" lon="0.60097">
        <ele>52.900001525879</ele>
        <time>2020-02-16T08:30:27Z</time>
      </trkpt>
      <trkpt lat="46.92577" lon="0.60095">
        <ele>51.900001525879</ele>
        <time>2020-02-16T08:30:29Z</time>
      </trkpt>
      <trkpt lat="46.92575" lon="0.60094">
        <ele>51.900001525879</ele>
        <time>2020-02-16T08:30:31Z</time>
      </trkpt>
      <trkpt lat="46.92568" lon="0.60093">
        <ele>53.900001525879</ele>
        <time>2020-02-16T08:30:36Z</time>
      </trkpt>
      <trkpt lat="46.9256" lon="0.60094">
        <ele>51.900001525879</ele>
        <time>2020-02-16T08:30:44Z</time>
      </trkpt>
      <trkpt lat="46.92556" lon="0.60093">
        <ele>50.900001525879</ele>
        <time>2020-02-16T08:30:46Z</time>
      </trkpt>
      <trkpt lat="46.92546" lon="0.60086">
        <ele>48.900001525879</ele>
        <time>2020-02-16T08:30:52Z</time>
      </trkpt>
      <trkpt lat="46.92539" lon="0.6008">
        <ele>49.900001525879</ele>
        <time>2020-02-16T08:30:56Z</time>
      </trkpt>
      <trkpt lat="46.92537" lon="0.60077">
        <ele>49.900001525879</ele>
        <time>2020-02-16T08:30:58Z</time>
      </trkpt>
      <trkpt lat="46.92533" lon="0.60068">
        <ele>50.900001525879</ele>
        <time>2020-02-16T08:31:03Z</time>
      </trkpt>
      <trkpt lat="46.9253" lon="0.60058">
        <ele>52.900001525879</ele>
        <time>2020-02-16T08:31:08Z</time>
      </trkpt>
      <trkpt lat="46.9252" lon="0.60042">
        <ele>53.900001525879</ele>
        <time>2020-02-16T08:31:17Z</time>
      </trkpt>
      <trkpt lat="46.92514" lon="0.60033">
        <ele>53.900001525879</ele>
        <time>2020-02-16T08:31:23Z</time>
      </trkpt>
      <trkpt lat="46.92504" lon="0.60025">
        <ele>51.900001525879</ele>
        <time>2020-02-16T08:31:29Z</time>
      </trkpt>
      <trkpt lat="46.9249" lon="0.60011">
        <ele>51.900001525879</ele>
        <time>2020-02-16T08:31:39Z</time>
      </trkpt>
      <trkpt lat="46.92476" lon="0.59998">
        <ele>52.900001525879</ele>
        <time>2020-02-16T08:31:49Z</time>
      </trkpt>
      <trkpt lat="46.92462" lon="0.59983">
        <ele>52.900001525879</ele>
        <time>2020-02-16T08:31:59Z</time>
      </trkpt>
      <trkpt lat="46.92449" lon="0.5997">
        <ele>53.900001525879</ele>
        <time>2020-02-16T08:32:09Z</time>
      </trkpt>
      <trkpt lat="46.92438" lon="0.59959">
        <ele>50.900001525879</ele>
        <time>2020-02-16T08:32:17Z</time>
      </trkpt>
      <trkpt lat="46.92426" lon="0.59944">
        <ele>50.900001525879</ele>
        <time>2020-02-16T08:32:27Z</time>
      </trkpt>
      <trkpt lat="46.92414" lon="0.59929">
        <ele>50.900001525879</ele>
        <time>2020-02-16T08:32:37Z</time>
      </trkpt>
      <trkpt lat="46.92401" lon="0.59913">
        <ele>49.900001525879</ele>
        <time>2020-02-16T08:32:47Z</time>
      </trkpt>
      <trkpt lat="46.92387" lon="0.59899">
        <ele>47.900001525879</ele>
        <time>2020-02-16T08:32:57Z</time>
      </trkpt>
      <trkpt lat="46.92373" lon="0.59883">
        <ele>47.900001525879</ele>
        <time>2020-02-16T08:33:09Z</time>
      </trkpt>
      <trkpt lat="46.9236" lon="0.59869">
        <ele>46.900001525879</ele>
        <time>2020-02-16T08:33:21Z</time>
      </trkpt>
      <trkpt lat="46.92357" lon="0.59865">
        <ele>46.900001525879</ele>
        <time>2020-02-16T08:33:24Z</time>
      </trkpt>
      <trkpt lat="46.92355" lon="0.59862">
        <ele>47.900001525879</ele>
        <time>2020-02-16T08:33:27Z</time>
      </trkpt>
      <trkpt lat="46.92352" lon="0.59859">
        <ele>49.900001525879</ele>
        <time>2020-02-16T08:33:30Z</time>
      </trkpt>
      <trkpt lat="46.92345" lon="0.59855">
        <ele>50.900001525879</ele>
        <time>2020-02-16T08:33:36Z</time>
      </trkpt>
      <trkpt lat="46.92341" lon="0.59851">
        <ele>53.900001525879</ele>
        <time>2020-02-16T08:33:40Z</time>
      </trkpt>
      <trkpt lat="46.92327" lon="0.59839">
        <ele>55.900001525879</ele>
        <time>2020-02-16T08:33:51Z</time>
      </trkpt>
      <trkpt lat="46.92321" lon="0.59834">
        <ele>56.900001525879</ele>
        <time>2020-02-16T08:33:56Z</time>
      </trkpt>
      <trkpt lat="46.92319" lon="0.59831">
        <ele>56.900001525879</ele>
        <time>2020-02-16T08:33:58Z</time>
      </trkpt>
      <trkpt lat="46.92305" lon="0.59819">
        <ele>57.900001525879</ele>
        <time>2020-02-16T08:34:08Z</time>
      </trkpt>
      <trkpt lat="46.92293" lon="0.59803">
        <ele>56.900001525879</ele>
        <time>2020-02-16T08:34:19Z</time>
      </trkpt>
      <trkpt lat="46.9229" lon="0.598">
        <ele>56.900001525879</ele>
        <time>2020-02-16T08:34:21Z</time>
      </trkpt>
      <trkpt lat="46.92283" lon="0.59795">
        <ele>56.900001525879</ele>
        <time>2020-02-16T08:34:26Z</time>
      </trkpt>
      <trkpt lat="46.92279" lon="0.59791">
        <ele>58.900001525879</ele>
        <time>2020-02-16T08:34:29Z</time>
      </trkpt>
      <trkpt lat="46.92269" lon="0.59781">
        <ele>57.900001525879</ele>
        <time>2020-02-16T08:34:37Z</time>
      </trkpt>
      <trkpt lat="46.92265" lon="0.59778">
        <ele>58.900001525879</ele>
        <time>2020-02-16T08:34:41Z</time>
      </trkpt>
      <trkpt lat="46.92251" lon="0.59763">
        <ele>60.900001525879</ele>
        <time>2020-02-16T08:34:52Z</time>
      </trkpt>
      <trkpt lat="46.92245" lon="0.59756">
        <ele>58.900001525879</ele>
        <time>2020-02-16T08:34:57Z</time>
      </trkpt>
      <trkpt lat="46.92238" lon="0.59749">
        <ele>58.900001525879</ele>
        <time>2020-02-16T08:35:02Z</time>
      </trkpt>
      <trkpt lat="46.92224" lon="0.59738">
        <ele>58.900001525879</ele>
        <time>2020-02-16T08:35:12Z</time>
      </trkpt>
      <trkpt lat="46.92218" lon="0.59735">
        <ele>59.900001525879</ele>
        <time>2020-02-16T08:35:16Z</time>
      </trkpt>
      <trkpt lat="46.92212" lon="0.59731">
        <ele>59.900001525879</ele>
        <time>2020-02-16T08:35:20Z</time>
      </trkpt>
      <trkpt lat="46.92205" lon="0.59721">
        <ele>60.900001525879</ele>
        <time>2020-02-16T08:35:26Z</time>
      </trkpt>
      <trkpt lat="46.92192" lon="0.59709">
        <ele>59.900001525879</ele>
        <time>2020-02-16T08:35:35Z</time>
      </trkpt>
      <trkpt lat="46.92178" lon="0.59694">
        <ele>57.900001525879</ele>
        <time>2020-02-16T08:35:45Z</time>
      </trkpt>
      <trkpt lat="46.92171" lon="0.59687">
        <ele>57.900001525879</ele>
        <time>2020-02-16T08:35:51Z</time>
      </trkpt>
      <trkpt lat="46.92168" lon="0.59684">
        <ele>57.900001525879</ele>
        <time>2020-02-16T08:35:53Z</time>
      </trkpt>
      <trkpt lat="46.92158" lon="0.59674">
        <ele>57.900001525879</ele>
        <time>2020-02-16T08:36:01Z</time>
      </trkpt>
      <trkpt lat="46.92155" lon="0.59672">
        <ele>57.900001525879</ele>
        <time>2020-02-16T08:36:03Z</time>
      </trkpt>
      <trkpt lat="46.92146" lon="0.59663">
        <ele>58.900001525879</ele>
        <time>2020-02-16T08:36:10Z</time>
      </trkpt>
      <trkpt lat="46.92132" lon="0.5965">
        <ele>59.900001525879</ele>
        <time>2020-02-16T08:36:22Z</time>
      </trkpt>
      <trkpt lat="46.92123" lon="0.59642">
        <ele>60.900001525879</ele>
        <time>2020-02-16T08:36:29Z</time>
      </trkpt>
      <trkpt lat="46.92109" lon="0.59629">
        <ele>60.900001525879</ele>
        <time>2020-02-16T08:36:39Z</time>
      </trkpt>
      <trkpt lat="46.92095" lon="0.59614">
        <ele>59.900001525879</ele>
        <time>2020-02-16T08:36:51Z</time>
      </trkpt>
      <trkpt lat="46.92093" lon="0.59611">
        <ele>59.900001525879</ele>
        <time>2020-02-16T08:36:53Z</time>
      </trkpt>
      <trkpt lat="46.92088" lon="0.59607">
        <ele>60.900001525879</ele>
        <time>2020-02-16T08:36:57Z</time>
      </trkpt>
      <trkpt lat="46.92074" lon="0.59594">
        <ele>60.900001525879</ele>
        <time>2020-02-16T08:37:08Z</time>
      </trkpt>
      <trkpt lat="46.92065" lon="0.59583">
        <ele>58.900001525879</ele>
        <time>2020-02-16T08:37:15Z</time>
      </trkpt>
      <trkpt lat="46.92061" lon="0.5958">
        <ele>58.900001525879</ele>
        <time>2020-02-16T08:37:18Z</time>
      </trkpt>
      <trkpt lat="46.92053" lon="0.59569">
        <ele>57.900001525879</ele>
        <time>2020-02-16T08:37:25Z</time>
      </trkpt>
      <trkpt lat="46.92051" lon="0.59566">
        <ele>57.900001525879</ele>
        <time>2020-02-16T08:37:27Z</time>
      </trkpt>
      <trkpt lat="46.92044" lon="0.59561">
        <ele>58.900001525879</ele>
        <time>2020-02-16T08:37:32Z</time>
      </trkpt>
      <trkpt lat="46.92042" lon="0.59558">
        <ele>58.900001525879</ele>
        <time>2020-02-16T08:37:34Z</time>
      </trkpt>
      <trkpt lat="46.92029" lon="0.59544">
        <ele>57.900001525879</ele>
        <time>2020-02-16T08:37:45Z</time>
      </trkpt>
      <trkpt lat="46.92017" lon="0.5953">
        <ele>55.900001525879</ele>
        <time>2020-02-16T08:37:54Z</time>
      </trkpt>
      <trkpt lat="46.92002" lon="0.59517">
        <ele>57.900001525879</ele>
        <time>2020-02-16T08:38:04Z</time>
      </trkpt>
      <trkpt lat="46.91989" lon="0.59505">
        <ele>57.900001525879</ele>
        <time>2020-02-16T08:38:13Z</time>
      </trkpt>
      <trkpt lat="46.91975" lon="0.59492">
        <ele>58.900001525879</ele>
        <time>2020-02-16T08:38:23Z</time>
      </trkpt>
      <trkpt lat="46.91963" lon="0.59477">
        <ele>58.900001525879</ele>
        <time>2020-02-16T08:38:33Z</time>
      </trkpt>
      <trkpt lat="46.91951" lon="0.59462">
        <ele>59.900001525879</ele>
        <time>2020-02-16T08:38:44Z</time>
      </trkpt>
      <trkpt lat="46.91942" lon="0.59453">
        <ele>59.900001525879</ele>
        <time>2020-02-16T08:38:51Z</time>
      </trkpt>
      <trkpt lat="46.91933" lon="0.59441">
        <ele>59.900001525879</ele>
        <time>2020-02-16T08:38:59Z</time>
      </trkpt>
      <trkpt lat="46.91925" lon="0.59432">
        <ele>60.900001525879</ele>
        <time>2020-02-16T08:39:06Z</time>
      </trkpt>
      <trkpt lat="46.91912" lon="0.59418">
        <ele>60.900001525879</ele>
        <time>2020-02-16T08:39:17Z</time>
      </trkpt>
      <trkpt lat="46.919" lon="0.59403">
        <ele>58.900001525879</ele>
        <time>2020-02-16T08:39:26Z</time>
      </trkpt>
      <trkpt lat="46.91887" lon="0.59387">
        <ele>57.900001525879</ele>
        <time>2020-02-16T08:39:36Z</time>
      </trkpt>
      <trkpt lat="46.91873" lon="0.59371">
        <ele>58.900001525879</ele>
        <time>2020-02-16T08:39:48Z</time>
      </trkpt>
      <trkpt lat="46.9187" lon="0.59369">
        <ele>58.900001525879</ele>
        <time>2020-02-16T08:39:50Z</time>
      </trkpt>
      <trkpt lat="46.91867" lon="0.59363">
        <ele>58.900001525879</ele>
        <time>2020-02-16T08:39:53Z</time>
      </trkpt>
      <trkpt lat="46.91856" lon="0.59349">
        <ele>57.900001525879</ele>
        <time>2020-02-16T08:40:02Z</time>
      </trkpt>
      <trkpt lat="46.91851" lon="0.59342">
        <ele>57.900001525879</ele>
        <time>2020-02-16T08:40:06Z</time>
      </trkpt>
      <trkpt lat="46.91839" lon="0.59329">
        <ele>57.900001525879</ele>
        <time>2020-02-16T08:40:15Z</time>
      </trkpt>
      <trkpt lat="46.91825" lon="0.59314">
        <ele>58.900001525879</ele>
        <time>2020-02-16T08:40:26Z</time>
      </trkpt>
      <trkpt lat="46.91812" lon="0.59299">
        <ele>56.900001525879</ele>
        <time>2020-02-16T08:40:36Z</time>
      </trkpt>
      <trkpt lat="46.91805" lon="0.59291">
        <ele>56.900001525879</ele>
        <time>2020-02-16T08:40:43Z</time>
      </trkpt>
      <trkpt lat="46.91803" lon="0.59288">
        <ele>56.900001525879</ele>
        <time>2020-02-16T08:40:45Z</time>
      </trkpt>
      <trkpt lat="46.91799" lon="0.59284">
        <ele>56.900001525879</ele>
        <time>2020-02-16T08:40:49Z</time>
      </trkpt>
      <trkpt lat="46.9179" lon="0.59276">
        <ele>58.900001525879</ele>
        <time>2020-02-16T08:40:56Z</time>
      </trkpt>
      <trkpt lat="46.91776" lon="0.59261">
        <ele>56.900001525879</ele>
        <time>2020-02-16T08:41:07Z</time>
      </trkpt>
      <trkpt lat="46.91767" lon="0.59251">
        <ele>57.900001525879</ele>
        <time>2020-02-16T08:41:14Z</time>
      </trkpt>
      <trkpt lat="46.91762" lon="0.59242">
        <ele>57.900001525879</ele>
        <time>2020-02-16T08:41:20Z</time>
      </trkpt>
      <trkpt lat="46.9176" lon="0.59238">
        <ele>57.900001525879</ele>
        <time>2020-02-16T08:42:15Z</time>
      </trkpt>
      <trkpt lat="46.91758" lon="0.59237">
        <ele>56.900001525879</ele>
        <time>2020-02-16T08:42:17Z</time>
      </trkpt>
      <trkpt lat="46.91752" lon="0.59229">
        <ele>54.900001525879</ele>
        <time>2020-02-16T08:42:23Z</time>
      </trkpt>
      <trkpt lat="46.9175" lon="0.59225">
        <ele>54.900001525879</ele>
        <time>2020-02-16T08:42:25Z</time>
      </trkpt>
      <trkpt lat="46.91747" lon="0.59222">
        <ele>54.900001525879</ele>
        <time>2020-02-16T08:42:27Z</time>
      </trkpt>
      <trkpt lat="46.91734" lon="0.59214">
        <ele>54.900001525879</ele>
        <time>2020-02-16T08:42:36Z</time>
      </trkpt>
      <trkpt lat="46.91732" lon="0.59211">
        <ele>55.900001525879</ele>
        <time>2020-02-16T08:42:38Z</time>
      </trkpt>
      <trkpt lat="46.9173" lon="0.59206">
        <ele>56.900001525879</ele>
        <time>2020-02-16T08:42:41Z</time>
      </trkpt>
      <trkpt lat="46.91722" lon="0.59191">
        <ele>58.900001525879</ele>
        <time>2020-02-16T08:42:49Z</time>
      </trkpt>
      <trkpt lat="46.9172" lon="0.59188">
        <ele>58.900001525879</ele>
        <time>2020-02-16T08:42:51Z</time>
      </trkpt>
      <trkpt lat="46.91706" lon="0.59175">
        <ele>56.900001525879</ele>
        <time>2020-02-16T08:43:00Z</time>
      </trkpt>
      <trkpt lat="46.91692" lon="0.59161">
        <ele>54.900001525879</ele>
        <time>2020-02-16T08:43:10Z</time>
      </trkpt>
      <trkpt lat="46.91689" lon="0.59157">
        <ele>55.900001525879</ele>
        <time>2020-02-16T08:43:13Z</time>
      </trkpt>
      <trkpt lat="46.91677" lon="0.59143">
        <ele>55.900001525879</ele>
        <time>2020-02-16T08:43:22Z</time>
      </trkpt>
      <trkpt lat="46.91665" lon="0.59123">
        <ele>53.900001525879</ele>
        <time>2020-02-16T08:43:33Z</time>
      </trkpt>
      <trkpt lat="46.91652" lon="0.59108">
        <ele>53.900001525879</ele>
        <time>2020-02-16T08:43:43Z</time>
      </trkpt>
      <trkpt lat="46.91639" lon="0.59092">
        <ele>53.900001525879</ele>
        <time>2020-02-16T08:43:53Z</time>
      </trkpt>
      <trkpt lat="46.91632" lon="0.59082">
        <ele>53.900001525879</ele>
        <time>2020-02-16T08:43:59Z</time>
      </trkpt>
      <trkpt lat="46.91618" lon="0.59068">
        <ele>53.900001525879</ele>
        <time>2020-02-16T08:44:10Z</time>
      </trkpt>
      <trkpt lat="46.91605" lon="0.59054">
        <ele>53.900001525879</ele>
        <time>2020-02-16T08:44:20Z</time>
      </trkpt>
      <trkpt lat="46.91595" lon="0.59039">
        <ele>54.900001525879</ele>
        <time>2020-02-16T08:44:29Z</time>
      </trkpt>
      <trkpt lat="46.91581" lon="0.59025">
        <ele>53.900001525879</ele>
        <time>2020-02-16T08:44:39Z</time>
      </trkpt>
      <trkpt lat="46.91569" lon="0.5901">
        <ele>51.900001525879</ele>
        <time>2020-02-16T08:44:49Z</time>
      </trkpt>
      <trkpt lat="46.91558" lon="0.58994">
        <ele>52.900001525879</ele>
        <time>2020-02-16T08:44:59Z</time>
      </trkpt>
      <trkpt lat="46.91546" lon="0.58978">
        <ele>52.900001525879</ele>
        <time>2020-02-16T08:45:10Z</time>
      </trkpt>
      <trkpt lat="46.91535" lon="0.58963">
        <ele>53.900001525879</ele>
        <time>2020-02-16T08:45:20Z</time>
      </trkpt>
      <trkpt lat="46.91522" lon="0.58947">
        <ele>52.900001525879</ele>
        <time>2020-02-16T08:45:30Z</time>
      </trkpt>
      <trkpt lat="46.91509" lon="0.5893">
        <ele>50.900001525879</ele>
        <time>2020-02-16T08:45:40Z</time>
      </trkpt>
      <trkpt lat="46.91497" lon="0.58915">
        <ele>50.900001525879</ele>
        <time>2020-02-16T08:45:50Z</time>
      </trkpt>
      <trkpt lat="46.9149" lon="0.58907">
        <ele>51.900001525879</ele>
        <time>2020-02-16T08:45:56Z</time>
      </trkpt>
      <trkpt lat="46.91488" lon="0.58906">
        <ele>51.900001525879</ele>
        <time>2020-02-16T08:45:58Z</time>
      </trkpt>
      <trkpt lat="46.91486" lon="0.58907">
        <ele>52.900001525879</ele>
        <time>2020-02-16T08:46:01Z</time>
      </trkpt>
      <trkpt lat="46.91477" lon="0.58922">
        <ele>53.900001525879</ele>
        <time>2020-02-16T08:46:12Z</time>
      </trkpt>
      <trkpt lat="46.91472" lon="0.58931">
        <ele>56.900001525879</ele>
        <time>2020-02-16T08:46:18Z</time>
      </trkpt>
      <trkpt lat="46.91461" lon="0.58949">
        <ele>57.900001525879</ele>
        <time>2020-02-16T08:46:29Z</time>
      </trkpt>
      <trkpt lat="46.91453" lon="0.58963">
        <ele>56.900001525879</ele>
        <time>2020-02-16T08:46:37Z</time>
      </trkpt>
      <trkpt lat="46.91442" lon="0.58978">
        <ele>54.900001525879</ele>
        <time>2020-02-16T08:46:47Z</time>
      </trkpt>
      <trkpt lat="46.91431" lon="0.58995">
        <ele>55.900001525879</ele>
        <time>2020-02-16T08:46:58Z</time>
      </trkpt>
      <trkpt lat="46.9142" lon="0.59012">
        <ele>54.900001525879</ele>
        <time>2020-02-16T08:47:08Z</time>
      </trkpt>
      <trkpt lat="46.91408" lon="0.59029">
        <ele>54.900001525879</ele>
        <time>2020-02-16T08:47:18Z</time>
      </trkpt>
      <trkpt lat="46.91397" lon="0.59048">
        <ele>53.900001525879</ele>
        <time>2020-02-16T08:47:29Z</time>
      </trkpt>
      <trkpt lat="46.91387" lon="0.59065">
        <ele>52.900001525879</ele>
        <time>2020-02-16T08:47:39Z</time>
      </trkpt>
      <trkpt lat="46.91382" lon="0.59073">
        <ele>53.900001525879</ele>
        <time>2020-02-16T08:47:44Z</time>
      </trkpt>
      <trkpt lat="46.91373" lon="0.59083">
        <ele>54.900001525879</ele>
        <time>2020-02-16T08:47:52Z</time>
      </trkpt>
      <trkpt lat="46.91362" lon="0.591">
        <ele>54.900001525879</ele>
        <time>2020-02-16T08:48:02Z</time>
      </trkpt>
      <trkpt lat="46.9135" lon="0.59117">
        <ele>55.900001525879</ele>
        <time>2020-02-16T08:48:12Z</time>
      </trkpt>
      <trkpt lat="46.9134" lon="0.59135">
        <ele>54.900001525879</ele>
        <time>2020-02-16T08:48:22Z</time>
      </trkpt>
      <trkpt lat="46.91329" lon="0.59153">
        <ele>54.900001525879</ele>
        <time>2020-02-16T08:48:32Z</time>
      </trkpt>
      <trkpt lat="46.91317" lon="0.59169">
        <ele>54.900001525879</ele>
        <time>2020-02-16T08:48:42Z</time>
      </trkpt>
      <trkpt lat="46.91305" lon="0.59184">
        <ele>54.900001525879</ele>
        <time>2020-02-16T08:48:52Z</time>
      </trkpt>
      <trkpt lat="46.91294" lon="0.59201">
        <ele>53.900001525879</ele>
        <time>2020-02-16T08:49:02Z</time>
      </trkpt>
      <trkpt lat="46.91284" lon="0.59218">
        <ele>53.900001525879</ele>
        <time>2020-02-16T08:49:12Z</time>
      </trkpt>
      <trkpt lat="46.91273" lon="0.59236">
        <ele>53.900001525879</ele>
        <time>2020-02-16T08:49:23Z</time>
      </trkpt>
      <trkpt lat="46.91261" lon="0.59253">
        <ele>53.900001525879</ele>
        <time>2020-02-16T08:49:34Z</time>
      </trkpt>
      <trkpt lat="46.9125" lon="0.59271">
        <ele>54.900001525879</ele>
        <time>2020-02-16T08:49:44Z</time>
      </trkpt>
      <trkpt lat="46.91239" lon="0.59288">
        <ele>53.900001525879</ele>
        <time>2020-02-16T08:49:55Z</time>
      </trkpt>
      <trkpt lat="46.91228" lon="0.59305">
        <ele>54.900001525879</ele>
        <time>2020-02-16T08:50:05Z</time>
      </trkpt>
      <trkpt lat="46.91217" lon="0.59321">
        <ele>55.900001525879</ele>
        <time>2020-02-16T08:50:15Z</time>
      </trkpt>
      <trkpt lat="46.91206" lon="0.59339">
        <ele>55.900001525879</ele>
        <time>2020-02-16T08:50:25Z</time>
      </trkpt>
      <trkpt lat="46.91194" lon="0.59357">
        <ele>55.900001525879</ele>
        <time>2020-02-16T08:50:36Z</time>
      </trkpt>
      <trkpt lat="46.91183" lon="0.59373">
        <ele>55.900001525879</ele>
        <time>2020-02-16T08:50:46Z</time>
      </trkpt>
      <trkpt lat="46.91172" lon="0.59391">
        <ele>56.900001525879</ele>
        <time>2020-02-16T08:50:57Z</time>
      </trkpt>
      <trkpt lat="46.91167" lon="0.59399">
        <ele>56.900001525879</ele>
        <time>2020-02-16T08:51:02Z</time>
      </trkpt>
      <trkpt lat="46.91162" lon="0.59408">
        <ele>56.900001525879</ele>
        <time>2020-02-16T08:51:07Z</time>
      </trkpt>
      <trkpt lat="46.91151" lon="0.59425">
        <ele>56.900001525879</ele>
        <time>2020-02-16T08:51:18Z</time>
      </trkpt>
      <trkpt lat="46.9114" lon="0.59441">
        <ele>57.900001525879</ele>
        <time>2020-02-16T08:51:28Z</time>
      </trkpt>
      <trkpt lat="46.91129" lon="0.59458">
        <ele>57.900001525879</ele>
        <time>2020-02-16T08:51:38Z</time>
      </trkpt>
      <trkpt lat="46.9112" lon="0.59476">
        <ele>56.900001525879</ele>
        <time>2020-02-16T08:51:48Z</time>
      </trkpt>
      <trkpt lat="46.91117" lon="0.59482">
        <ele>56.900001525879</ele>
        <time>2020-02-16T08:51:51Z</time>
      </trkpt>
      <trkpt lat="46.91115" lon="0.59486">
        <ele>56.900001525879</ele>
        <time>2020-02-16T08:51:53Z</time>
      </trkpt>
      <trkpt lat="46.91112" lon="0.59489">
        <ele>55.900001525879</ele>
        <time>2020-02-16T08:51:55Z</time>
      </trkpt>
      <trkpt lat="46.91109" lon="0.59489">
        <ele>56.900001525879</ele>
        <time>2020-02-16T08:51:57Z</time>
      </trkpt>
      <trkpt lat="46.91095" lon="0.59482">
        <ele>56.900001525879</ele>
        <time>2020-02-16T08:52:07Z</time>
      </trkpt>
      <trkpt lat="46.9108" lon="0.59472">
        <ele>58.900001525879</ele>
        <time>2020-02-16T08:52:17Z</time>
      </trkpt>
      <trkpt lat="46.91066" lon="0.59461">
        <ele>58.900001525879</ele>
        <time>2020-02-16T08:52:27Z</time>
      </trkpt>
      <trkpt lat="46.91052" lon="0.5945">
        <ele>59.900001525879</ele>
        <time>2020-02-16T08:52:38Z</time>
      </trkpt>
      <trkpt lat="46.91037" lon="0.59439">
        <ele>60.900001525879</ele>
        <time>2020-02-16T08:52:48Z</time>
      </trkpt>
      <trkpt lat="46.91024" lon="0.59427">
        <ele>62.900001525879</ele>
        <time>2020-02-16T08:52:59Z</time>
      </trkpt>
      <trkpt lat="46.91009" lon="0.59417">
        <ele>62.900001525879</ele>
        <time>2020-02-16T08:53:09Z</time>
      </trkpt>
      <trkpt lat="46.90995" lon="0.59407">
        <ele>63.900001525879</ele>
        <time>2020-02-16T08:53:19Z</time>
      </trkpt>
      <trkpt lat="46.9098" lon="0.59397">
        <ele>62.900001525879</ele>
        <time>2020-02-16T08:53:29Z</time>
      </trkpt>
      <trkpt lat="46.90964" lon="0.59386">
        <ele>62.900001525879</ele>
        <time>2020-02-16T08:53:40Z</time>
      </trkpt>
      <trkpt lat="46.9095" lon="0.59375">
        <ele>62.900001525879</ele>
        <time>2020-02-16T08:53:51Z</time>
      </trkpt>
      <trkpt lat="46.90936" lon="0.59364">
        <ele>62.900001525879</ele>
        <time>2020-02-16T08:54:01Z</time>
      </trkpt>
      <trkpt lat="46.90932" lon="0.59361">
        <ele>62.900001525879</ele>
        <time>2020-02-16T08:54:04Z</time>
      </trkpt>
      <trkpt lat="46.90927" lon="0.59356">
        <ele>63.900001525879</ele>
        <time>2020-02-16T08:54:08Z</time>
      </trkpt>
      <trkpt lat="46.90924" lon="0.59353">
        <ele>61.900001525879</ele>
        <time>2020-02-16T08:54:10Z</time>
      </trkpt>
      <trkpt lat="46.90919" lon="0.59346">
        <ele>59.900001525879</ele>
        <time>2020-02-16T08:54:14Z</time>
      </trkpt>
      <trkpt lat="46.90913" lon="0.59338">
        <ele>59.900001525879</ele>
        <time>2020-02-16T08:54:19Z</time>
      </trkpt>
      <trkpt lat="46.90909" lon="0.59329">
        <ele>59.900001525879</ele>
        <time>2020-02-16T08:54:24Z</time>
      </trkpt>
      <trkpt lat="46.90907" lon="0.59326">
        <ele>60.900001525879</ele>
        <time>2020-02-16T08:54:26Z</time>
      </trkpt>
      <trkpt lat="46.90902" lon="0.5932">
        <ele>62.900001525879</ele>
        <time>2020-02-16T08:54:30Z</time>
      </trkpt>
      <trkpt lat="46.90895" lon="0.59319">
        <ele>65.900001525879</ele>
        <time>2020-02-16T08:54:35Z</time>
      </trkpt>
      <trkpt lat="46.90893" lon="0.59319">
        <ele>66.900001525879</ele>
        <time>2020-02-16T08:54:37Z</time>
      </trkpt>
      <trkpt lat="46.90891" lon="0.59321">
        <ele>66.900001525879</ele>
        <time>2020-02-16T08:54:39Z</time>
      </trkpt>
      <trkpt lat="46.90889" lon="0.59323">
        <ele>67.900001525879</ele>
        <time>2020-02-16T08:54:41Z</time>
      </trkpt>
      <trkpt lat="46.90887" lon="0.59325">
        <ele>67.900001525879</ele>
        <time>2020-02-16T08:54:43Z</time>
      </trkpt>
      <trkpt lat="46.90882" lon="0.59335">
        <ele>67.900001525879</ele>
        <time>2020-02-16T08:54:49Z</time>
      </trkpt>
      <trkpt lat="46.9088" lon="0.59343">
        <ele>66.900001525879</ele>
        <time>2020-02-16T08:54:53Z</time>
      </trkpt>
      <trkpt lat="46.90871" lon="0.59362">
        <ele>65.900001525879</ele>
        <time>2020-02-16T08:55:03Z</time>
      </trkpt>
      <trkpt lat="46.90866" lon="0.59374">
        <ele>63.900001525879</ele>
        <time>2020-02-16T08:55:09Z</time>
      </trkpt>
      <trkpt lat="46.90861" lon="0.59381">
        <ele>62.900001525879</ele>
        <time>2020-02-16T08:55:13Z</time>
      </trkpt>
      <trkpt lat="46.90854" lon="0.59398">
        <ele>60.900001525879</ele>
        <time>2020-02-16T08:55:21Z</time>
      </trkpt>
      <trkpt lat="46.90844" lon="0.59416">
        <ele>61.900001525879</ele>
        <time>2020-02-16T08:55:31Z</time>
      </trkpt>
      <trkpt lat="46.90838" lon="0.59428">
        <ele>61.900001525879</ele>
        <time>2020-02-16T08:55:38Z</time>
      </trkpt>
      <trkpt lat="46.90827" lon="0.59445">
        <ele>60.900001525879</ele>
        <time>2020-02-16T08:55:48Z</time>
      </trkpt>
      <trkpt lat="46.90817" lon="0.59463">
        <ele>60.900001525879</ele>
        <time>2020-02-16T08:55:59Z</time>
      </trkpt>
      <trkpt lat="46.90807" lon="0.59481">
        <ele>61.900001525879</ele>
        <time>2020-02-16T08:56:10Z</time>
      </trkpt>
      <trkpt lat="46.90797" lon="0.59499">
        <ele>62.900001525879</ele>
        <time>2020-02-16T08:56:21Z</time>
      </trkpt>
      <trkpt lat="46.90786" lon="0.59516">
        <ele>63.900001525879</ele>
        <time>2020-02-16T08:56:31Z</time>
      </trkpt>
      <trkpt lat="46.90775" lon="0.59537">
        <ele>63.900001525879</ele>
        <time>2020-02-16T08:56:43Z</time>
      </trkpt>
      <trkpt lat="46.90764" lon="0.59556">
        <ele>63.900001525879</ele>
        <time>2020-02-16T08:56:54Z</time>
      </trkpt>
      <trkpt lat="46.90754" lon="0.59574">
        <ele>65.900001525879</ele>
        <time>2020-02-16T08:57:04Z</time>
      </trkpt>
      <trkpt lat="46.90744" lon="0.59592">
        <ele>66.900001525879</ele>
        <time>2020-02-16T08:57:15Z</time>
      </trkpt>
      <trkpt lat="46.90733" lon="0.59611">
        <ele>67.900001525879</ele>
        <time>2020-02-16T08:57:26Z</time>
      </trkpt>
      <trkpt lat="46.90722" lon="0.59629">
        <ele>68.900001525879</ele>
        <time>2020-02-16T08:57:37Z</time>
      </trkpt>
      <trkpt lat="46.90712" lon="0.59649">
        <ele>68.900001525879</ele>
        <time>2020-02-16T08:57:48Z</time>
      </trkpt>
      <trkpt lat="46.90702" lon="0.59668">
        <ele>68.900001525879</ele>
        <time>2020-02-16T08:57:59Z</time>
      </trkpt>
      <trkpt lat="46.907" lon="0.59674">
        <ele>68.900001525879</ele>
        <time>2020-02-16T08:58:02Z</time>
      </trkpt>
      <trkpt lat="46.90698" lon="0.59678">
        <ele>68.900001525879</ele>
        <time>2020-02-16T08:58:04Z</time>
      </trkpt>
      <trkpt lat="46.90699" lon="0.59691">
        <ele>67.900001525879</ele>
        <time>2020-02-16T08:58:10Z</time>
      </trkpt>
      <trkpt lat="46.907" lon="0.59695">
        <ele>67.900001525879</ele>
        <time>2020-02-16T08:58:12Z</time>
      </trkpt>
      <trkpt lat="46.90702" lon="0.59699">
        <ele>66.900001525879</ele>
        <time>2020-02-16T08:58:14Z</time>
      </trkpt>
      <trkpt lat="46.90704" lon="0.59702">
        <ele>66.900001525879</ele>
        <time>2020-02-16T08:58:16Z</time>
      </trkpt>
      <trkpt lat="46.90717" lon="0.59713">
        <ele>64.900001525879</ele>
        <time>2020-02-16T08:58:26Z</time>
      </trkpt>
      <trkpt lat="46.90731" lon="0.59725">
        <ele>64.900001525879</ele>
        <time>2020-02-16T08:58:37Z</time>
      </trkpt>
      <trkpt lat="46.90744" lon="0.59735">
        <ele>66.900001525879</ele>
        <time>2020-02-16T08:58:47Z</time>
      </trkpt>
      <trkpt lat="46.90758" lon="0.59745">
        <ele>66.900001525879</ele>
        <time>2020-02-16T08:58:57Z</time>
      </trkpt>
      <trkpt lat="46.90772" lon="0.59755">
        <ele>66.900001525879</ele>
        <time>2020-02-16T08:59:08Z</time>
      </trkpt>
      <trkpt lat="46.90787" lon="0.59766">
        <ele>65.900001525879</ele>
        <time>2020-02-16T08:59:18Z</time>
      </trkpt>
      <trkpt lat="46.90801" lon="0.59777">
        <ele>66.900001525879</ele>
        <time>2020-02-16T08:59:28Z</time>
      </trkpt>
      <trkpt lat="46.90815" lon="0.59788">
        <ele>65.900001525879</ele>
        <time>2020-02-16T08:59:38Z</time>
      </trkpt>
      <trkpt lat="46.90829" lon="0.59798">
        <ele>64.900001525879</ele>
        <time>2020-02-16T08:59:48Z</time>
      </trkpt>
      <trkpt lat="46.90845" lon="0.5981">
        <ele>62.900001525879</ele>
        <time>2020-02-16T09:00:00Z</time>
      </trkpt>
      <trkpt lat="46.90858" lon="0.59823">
        <ele>62.900001525879</ele>
        <time>2020-02-16T09:00:09Z</time>
      </trkpt>
      <trkpt lat="46.90871" lon="0.59836">
        <ele>62.900001525879</ele>
        <time>2020-02-16T09:00:18Z</time>
      </trkpt>
      <trkpt lat="46.90884" lon="0.59849">
        <ele>63.900001525879</ele>
        <time>2020-02-16T09:00:27Z</time>
      </trkpt>
      <trkpt lat="46.90898" lon="0.59863">
        <ele>64.900001525879</ele>
        <time>2020-02-16T09:00:37Z</time>
      </trkpt>
      <trkpt lat="46.90912" lon="0.59874">
        <ele>64.900001525879</ele>
        <time>2020-02-16T09:00:47Z</time>
      </trkpt>
      <trkpt lat="46.90914" lon="0.59876">
        <ele>63.900001525879</ele>
        <time>2020-02-16T09:00:51Z</time>
      </trkpt>
      <trkpt lat="46.90928" lon="0.59889">
        <ele>65.900001525879</ele>
        <time>2020-02-16T09:01:02Z</time>
      </trkpt>
      <trkpt lat="46.90943" lon="0.59904">
        <ele>63.900001525879</ele>
        <time>2020-02-16T09:01:15Z</time>
      </trkpt>
      <trkpt lat="46.90957" lon="0.59917">
        <ele>61.900001525879</ele>
        <time>2020-02-16T09:01:25Z</time>
      </trkpt>
      <trkpt lat="46.90968" lon="0.59926">
        <ele>58.900001525879</ele>
        <time>2020-02-16T09:01:32Z</time>
      </trkpt>
      <trkpt lat="46.90984" lon="0.59934">
        <ele>57.900001525879</ele>
        <time>2020-02-16T09:01:41Z</time>
      </trkpt>
      <trkpt lat="46.90994" lon="0.59938">
        <ele>54.900001525879</ele>
        <time>2020-02-16T09:01:47Z</time>
      </trkpt>
      <trkpt lat="46.91011" lon="0.59942">
        <ele>53.900001525879</ele>
        <time>2020-02-16T09:01:57Z</time>
      </trkpt>
      <trkpt lat="46.91023" lon="0.59946">
        <ele>51.900001525879</ele>
        <time>2020-02-16T09:02:05Z</time>
      </trkpt>
      <trkpt lat="46.91039" lon="0.5995">
        <ele>49.900001525879</ele>
        <time>2020-02-16T09:02:15Z</time>
      </trkpt>
      <trkpt lat="46.91056" lon="0.59953">
        <ele>48.900001525879</ele>
        <time>2020-02-16T09:02:26Z</time>
      </trkpt>
      <trkpt lat="46.91071" lon="0.59956">
        <ele>49.900001525879</ele>
        <time>2020-02-16T09:02:36Z</time>
      </trkpt>
      <trkpt lat="46.91087" lon="0.59962">
        <ele>49.900001525879</ele>
        <time>2020-02-16T09:02:46Z</time>
      </trkpt>
      <trkpt lat="46.91093" lon="0.59964">
        <ele>49.900001525879</ele>
        <time>2020-02-16T09:02:50Z</time>
      </trkpt>
      <trkpt lat="46.91097" lon="0.59964">
        <ele>49.900001525879</ele>
        <time>2020-02-16T09:02:53Z</time>
      </trkpt>
      <trkpt lat="46.91113" lon="0.5997">
        <ele>50.900001525879</ele>
        <time>2020-02-16T09:03:03Z</time>
      </trkpt>
      <trkpt lat="46.9113" lon="0.59974">
        <ele>53.900001525879</ele>
        <time>2020-02-16T09:03:14Z</time>
      </trkpt>
      <trkpt lat="46.91145" lon="0.59981">
        <ele>52.900001525879</ele>
        <time>2020-02-16T09:03:24Z</time>
      </trkpt>
      <trkpt lat="46.9116" lon="0.59987">
        <ele>53.900001525879</ele>
        <time>2020-02-16T09:03:34Z</time>
      </trkpt>
      <trkpt lat="46.91175" lon="0.59994">
        <ele>55.900001525879</ele>
        <time>2020-02-16T09:03:44Z</time>
      </trkpt>
      <trkpt lat="46.91187" lon="0.60001">
        <ele>52.900001525879</ele>
        <time>2020-02-16T09:03:52Z</time>
      </trkpt>
      <trkpt lat="46.91202" lon="0.60011">
        <ele>50.900001525879</ele>
        <time>2020-02-16T09:04:03Z</time>
      </trkpt>
      <trkpt lat="46.91218" lon="0.60022">
        <ele>50.900001525879</ele>
        <time>2020-02-16T09:04:12Z</time>
      </trkpt>
      <trkpt lat="46.91227" lon="0.60028">
        <ele>52.900001525879</ele>
        <time>2020-02-16T09:04:18Z</time>
      </trkpt>
      <trkpt lat="46.91242" lon="0.60038">
        <ele>50.900001525879</ele>
        <time>2020-02-16T09:04:28Z</time>
      </trkpt>
      <trkpt lat="46.91257" lon="0.60046">
        <ele>48.900001525879</ele>
        <time>2020-02-16T09:04:38Z</time>
      </trkpt>
      <trkpt lat="46.91272" lon="0.60056">
        <ele>49.900001525879</ele>
        <time>2020-02-16T09:04:49Z</time>
      </trkpt>
      <trkpt lat="46.91288" lon="0.60066">
        <ele>47.900001525879</ele>
        <time>2020-02-16T09:05:00Z</time>
      </trkpt>
      <trkpt lat="46.91294" lon="0.6007">
        <ele>47.900001525879</ele>
        <time>2020-02-16T09:05:04Z</time>
      </trkpt>
      <trkpt lat="46.91296" lon="0.60071">
        <ele>48.900001525879</ele>
        <time>2020-02-16T09:05:06Z</time>
      </trkpt>
      <trkpt lat="46.9131" lon="0.60078">
        <ele>50.900001525879</ele>
        <time>2020-02-16T09:05:20Z</time>
      </trkpt>
      <trkpt lat="46.91325" lon="0.60088">
        <ele>51.900001525879</ele>
        <time>2020-02-16T09:05:29Z</time>
      </trkpt>
      <trkpt lat="46.91341" lon="0.60099">
        <ele>51.900001525879</ele>
        <time>2020-02-16T09:05:38Z</time>
      </trkpt>
      <trkpt lat="46.91355" lon="0.60109">
        <ele>52.900001525879</ele>
        <time>2020-02-16T09:05:48Z</time>
      </trkpt>
      <trkpt lat="46.9137" lon="0.60119">
        <ele>53.900001525879</ele>
        <time>2020-02-16T09:05:59Z</time>
      </trkpt>
      <trkpt lat="46.91387" lon="0.6013">
        <ele>53.900001525879</ele>
        <time>2020-02-16T09:06:11Z</time>
      </trkpt>
      <trkpt lat="46.91402" lon="0.60141">
        <ele>54.900001525879</ele>
        <time>2020-02-16T09:06:22Z</time>
      </trkpt>
      <trkpt lat="46.91417" lon="0.60151">
        <ele>53.900001525879</ele>
        <time>2020-02-16T09:06:32Z</time>
      </trkpt>
      <trkpt lat="46.91432" lon="0.60158">
        <ele>53.900001525879</ele>
        <time>2020-02-16T09:06:42Z</time>
      </trkpt>
      <trkpt lat="46.91447" lon="0.60166">
        <ele>51.900001525879</ele>
        <time>2020-02-16T09:06:52Z</time>
      </trkpt>
      <trkpt lat="46.91463" lon="0.60174">
        <ele>52.900001525879</ele>
        <time>2020-02-16T09:07:02Z</time>
      </trkpt>
      <trkpt lat="46.91475" lon="0.6018">
        <ele>49.900001525879</ele>
        <time>2020-02-16T09:07:10Z</time>
      </trkpt>
      <trkpt lat="46.91491" lon="0.60188">
        <ele>49.900001525879</ele>
        <time>2020-02-16T09:07:19Z</time>
      </trkpt>
      <trkpt lat="46.91506" lon="0.60198">
        <ele>48.900001525879</ele>
        <time>2020-02-16T09:07:29Z</time>
      </trkpt>
      <trkpt lat="46.91512" lon="0.60201">
        <ele>49.900001525879</ele>
        <time>2020-02-16T09:07:33Z</time>
      </trkpt>
      <trkpt lat="46.91527" lon="0.6021">
        <ele>48.900001525879</ele>
        <time>2020-02-16T09:07:43Z</time>
      </trkpt>
      <trkpt lat="46.91542" lon="0.6022">
        <ele>49.900001525879</ele>
        <time>2020-02-16T09:07:54Z</time>
      </trkpt>
      <trkpt lat="46.91556" lon="0.60232">
        <ele>50.900001525879</ele>
        <time>2020-02-16T09:08:04Z</time>
      </trkpt>
      <trkpt lat="46.9157" lon="0.60243">
        <ele>50.900001525879</ele>
        <time>2020-02-16T09:08:15Z</time>
      </trkpt>
      <trkpt lat="46.91585" lon="0.60256">
        <ele>49.900001525879</ele>
        <time>2020-02-16T09:08:27Z</time>
      </trkpt>
      <trkpt lat="46.91587" lon="0.60258">
        <ele>49.900001525879</ele>
        <time>2020-02-16T09:08:29Z</time>
      </trkpt>
      <trkpt lat="46.91602" lon="0.60269">
        <ele>53.900001525879</ele>
        <time>2020-02-16T09:08:42Z</time>
      </trkpt>
      <trkpt lat="46.91605" lon="0.60271">
        <ele>53.900001525879</ele>
        <time>2020-02-16T09:08:45Z</time>
      </trkpt>
      <trkpt lat="46.91608" lon="0.60276">
        <ele>53.900001525879</ele>
        <time>2020-02-16T09:08:48Z</time>
      </trkpt>
      <trkpt lat="46.91615" lon="0.60281">
        <ele>53.900001525879</ele>
        <time>2020-02-16T09:08:53Z</time>
      </trkpt>
      <trkpt lat="46.91617" lon="0.60282">
        <ele>54.900001525879</ele>
        <time>2020-02-16T09:08:55Z</time>
      </trkpt>
      <trkpt lat="46.91621" lon="0.60286">
        <ele>55.900001525879</ele>
        <time>2020-02-16T09:08:57Z</time>
      </trkpt>
      <trkpt lat="46.91622" lon="0.60287">
        <ele>55.900001525879</ele>
        <time>2020-02-16T09:08:58Z</time>
      </trkpt>
      <trkpt lat="46.91639" lon="0.60296">
        <ele>52.900001525879</ele>
        <time>2020-02-16T09:09:08Z</time>
      </trkpt>
      <trkpt lat="46.91651" lon="0.60302">
        <ele>51.900001525879</ele>
        <time>2020-02-16T09:09:17Z</time>
      </trkpt>
      <trkpt lat="46.91657" lon="0.60303">
        <ele>50.900001525879</ele>
        <time>2020-02-16T09:09:21Z</time>
      </trkpt>
      <trkpt lat="46.91666" lon="0.60305">
        <ele>52.900001525879</ele>
        <time>2020-02-16T09:09:27Z</time>
      </trkpt>
      <trkpt lat="46.91671" lon="0.60308">
        <ele>52.900001525879</ele>
        <time>2020-02-16T09:09:31Z</time>
      </trkpt>
      <trkpt lat="46.91687" lon="0.6031">
        <ele>53.900001525879</ele>
        <time>2020-02-16T09:09:41Z</time>
      </trkpt>
      <trkpt lat="46.91704" lon="0.6031">
        <ele>52.900001525879</ele>
        <time>2020-02-16T09:09:51Z</time>
      </trkpt>
      <trkpt lat="46.91715" lon="0.60311">
        <ele>54.900001525879</ele>
        <time>2020-02-16T09:09:57Z</time>
      </trkpt>
      <trkpt lat="46.91731" lon="0.60311">
        <ele>54.900001525879</ele>
        <time>2020-02-16T09:10:07Z</time>
      </trkpt>
      <trkpt lat="46.91748" lon="0.60313">
        <ele>55.900001525879</ele>
        <time>2020-02-16T09:10:17Z</time>
      </trkpt>
      <trkpt lat="46.91764" lon="0.60314">
        <ele>55.900001525879</ele>
        <time>2020-02-16T09:10:27Z</time>
      </trkpt>
      <trkpt lat="46.9178" lon="0.60315">
        <ele>55.900001525879</ele>
        <time>2020-02-16T09:10:37Z</time>
      </trkpt>
      <trkpt lat="46.91796" lon="0.60315">
        <ele>55.900001525879</ele>
        <time>2020-02-16T09:10:47Z</time>
      </trkpt>
      <trkpt lat="46.91812" lon="0.60316">
        <ele>54.900001525879</ele>
        <time>2020-02-16T09:10:57Z</time>
      </trkpt>
      <trkpt lat="46.91814" lon="0.60316">
        <ele>54.900001525879</ele>
        <time>2020-02-16T09:10:58Z</time>
      </trkpt>
      <trkpt lat="46.91821" lon="0.60319">
        <ele>53.900001525879</ele>
        <time>2020-02-16T09:11:02Z</time>
      </trkpt>
      <trkpt lat="46.91822" lon="0.6032">
        <ele>53.900001525879</ele>
        <time>2020-02-16T09:11:03Z</time>
      </trkpt>
      <trkpt lat="46.91826" lon="0.60324">
        <ele>53.900001525879</ele>
        <time>2020-02-16T09:11:06Z</time>
      </trkpt>
      <trkpt lat="46.91828" lon="0.60327">
        <ele>53.900001525879</ele>
        <time>2020-02-16T09:11:08Z</time>
      </trkpt>
      <trkpt lat="46.91841" lon="0.60338">
        <ele>52.900001525879</ele>
        <time>2020-02-16T09:11:17Z</time>
      </trkpt>
      <trkpt lat="46.91855" lon="0.60351">
        <ele>50.900001525879</ele>
        <time>2020-02-16T09:11:27Z</time>
      </trkpt>
      <trkpt lat="46.9186" lon="0.60356">
        <ele>50.900001525879</ele>
        <time>2020-02-16T09:11:30Z</time>
      </trkpt>
      <trkpt lat="46.91864" lon="0.60359">
        <ele>50.900001525879</ele>
        <time>2020-02-16T09:11:33Z</time>
      </trkpt>
      <trkpt lat="46.91878" lon="0.60373">
        <ele>50.900001525879</ele>
        <time>2020-02-16T09:11:43Z</time>
      </trkpt>
      <trkpt lat="46.91892" lon="0.60385">
        <ele>50.900001525879</ele>
        <time>2020-02-16T09:11:52Z</time>
      </trkpt>
      <trkpt lat="46.91906" lon="0.60399">
        <ele>50.900001525879</ele>
        <time>2020-02-16T09:12:02Z</time>
      </trkpt>
      <trkpt lat="46.91921" lon="0.60412">
        <ele>50.900001525879</ele>
        <time>2020-02-16T09:12:12Z</time>
      </trkpt>
      <trkpt lat="46.91934" lon="0.60425">
        <ele>51.900001525879</ele>
        <time>2020-02-16T09:12:21Z</time>
      </trkpt>
      <trkpt lat="46.91948" lon="0.60437">
        <ele>51.900001525879</ele>
        <time>2020-02-16T09:12:30Z</time>
      </trkpt>
      <trkpt lat="46.91961" lon="0.6045">
        <ele>51.900001525879</ele>
        <time>2020-02-16T09:12:39Z</time>
      </trkpt>
      <trkpt lat="46.91973" lon="0.6046">
        <ele>50.900001525879</ele>
        <time>2020-02-16T09:12:46Z</time>
      </trkpt>
      <trkpt lat="46.91974" lon="0.60461">
        <ele>50.900001525879</ele>
        <time>2020-02-16T09:12:47Z</time>
      </trkpt>
      <trkpt lat="46.91979" lon="0.60463">
        <ele>49.900001525879</ele>
        <time>2020-02-16T09:12:50Z</time>
      </trkpt>
      <trkpt lat="46.91993" lon="0.60476">
        <ele>49.900001525879</ele>
        <time>2020-02-16T09:12:59Z</time>
      </trkpt>
      <trkpt lat="46.92008" lon="0.60489">
        <ele>50.900001525879</ele>
        <time>2020-02-16T09:13:09Z</time>
      </trkpt>
      <trkpt lat="46.92021" lon="0.60502">
        <ele>50.900001525879</ele>
        <time>2020-02-16T09:13:19Z</time>
      </trkpt>
      <trkpt lat="46.92036" lon="0.60516">
        <ele>49.900001525879</ele>
        <time>2020-02-16T09:13:29Z</time>
      </trkpt>
      <trkpt lat="46.9205" lon="0.60528">
        <ele>50.900001525879</ele>
        <time>2020-02-16T09:13:38Z</time>
      </trkpt>
      <trkpt lat="46.92063" lon="0.60541">
        <ele>50.900001525879</ele>
        <time>2020-02-16T09:13:48Z</time>
      </trkpt>
      <trkpt lat="46.92077" lon="0.60555">
        <ele>50.900001525879</ele>
        <time>2020-02-16T09:13:58Z</time>
      </trkpt>
      <trkpt lat="46.92079" lon="0.60558">
        <ele>50.900001525879</ele>
        <time>2020-02-16T09:14:00Z</time>
      </trkpt>
      <trkpt lat="46.92093" lon="0.60571">
        <ele>50.900001525879</ele>
        <time>2020-02-16T09:14:10Z</time>
      </trkpt>
      <trkpt lat="46.92107" lon="0.60583">
        <ele>50.900001525879</ele>
        <time>2020-02-16T09:14:19Z</time>
      </trkpt>
      <trkpt lat="46.92116" lon="0.60591">
        <ele>49.900001525879</ele>
        <time>2020-02-16T09:14:25Z</time>
      </trkpt>
      <trkpt lat="46.92119" lon="0.60595">
        <ele>47.900001525879</ele>
        <time>2020-02-16T09:14:28Z</time>
      </trkpt>
      <trkpt lat="46.92123" lon="0.60605">
        <ele>49.900001525879</ele>
        <time>2020-02-16T09:14:43Z</time>
      </trkpt>
      <trkpt lat="46.92125" lon="0.60604">
        <ele>51.900001525879</ele>
        <time>2020-02-16T09:16:11Z</time>
      </trkpt>
      <trkpt lat="46.92135" lon="0.60607">
        <ele>51.900001525879</ele>
        <time>2020-02-16T09:16:28Z</time>
      </trkpt>
      <trkpt lat="46.92148" lon="0.6062">
        <ele>51.900001525879</ele>
        <time>2020-02-16T09:16:38Z</time>
      </trkpt>
      <trkpt lat="46.92162" lon="0.60634">
        <ele>52.900001525879</ele>
        <time>2020-02-16T09:16:48Z</time>
      </trkpt>
      <trkpt lat="46.92177" lon="0.60646">
        <ele>53.900001525879</ele>
        <time>2020-02-16T09:16:58Z</time>
      </trkpt>
      <trkpt lat="46.92193" lon="0.60662">
        <ele>52.900001525879</ele>
        <time>2020-02-16T09:17:09Z</time>
      </trkpt>
      <trkpt lat="46.92205" lon="0.60671">
        <ele>52.900001525879</ele>
        <time>2020-02-16T09:17:17Z</time>
      </trkpt>
      <trkpt lat="46.9222" lon="0.60686">
        <ele>53.900001525879</ele>
        <time>2020-02-16T09:17:28Z</time>
      </trkpt>
      <trkpt lat="46.92225" lon="0.60692">
        <ele>53.900001525879</ele>
        <time>2020-02-16T09:17:32Z</time>
      </trkpt>
      <trkpt lat="46.92239" lon="0.60705">
        <ele>53.900001525879</ele>
        <time>2020-02-16T09:17:42Z</time>
      </trkpt>
      <trkpt lat="46.92253" lon="0.60718">
        <ele>54.900001525879</ele>
        <time>2020-02-16T09:17:53Z</time>
      </trkpt>
      <trkpt lat="46.92268" lon="0.60731">
        <ele>54.900001525879</ele>
        <time>2020-02-16T09:18:04Z</time>
      </trkpt>
      <trkpt lat="46.92282" lon="0.60745">
        <ele>54.900001525879</ele>
        <time>2020-02-16T09:18:14Z</time>
      </trkpt>
      <trkpt lat="46.92296" lon="0.60757">
        <ele>53.900001525879</ele>
        <time>2020-02-16T09:18:24Z</time>
      </trkpt>
      <trkpt lat="46.9231" lon="0.60771">
        <ele>52.900001525879</ele>
        <time>2020-02-16T09:18:34Z</time>
      </trkpt>
      <trkpt lat="46.92323" lon="0.60783">
        <ele>52.900001525879</ele>
        <time>2020-02-16T09:18:43Z</time>
      </trkpt>
      <trkpt lat="46.92336" lon="0.60796">
        <ele>54.900001525879</ele>
        <time>2020-02-16T09:18:52Z</time>
      </trkpt>
      <trkpt lat="46.92351" lon="0.60809">
        <ele>54.900001525879</ele>
        <time>2020-02-16T09:19:02Z</time>
      </trkpt>
      <trkpt lat="46.92364" lon="0.60823">
        <ele>53.900001525879</ele>
        <time>2020-02-16T09:19:12Z</time>
      </trkpt>
      <trkpt lat="46.92378" lon="0.60836">
        <ele>53.900001525879</ele>
        <time>2020-02-16T09:19:22Z</time>
      </trkpt>
      <trkpt lat="46.92392" lon="0.60848">
        <ele>53.900001525879</ele>
        <time>2020-02-16T09:19:32Z</time>
      </trkpt>
      <trkpt lat="46.92405" lon="0.60861">
        <ele>54.900001525879</ele>
        <time>2020-02-16T09:19:41Z</time>
      </trkpt>
      <trkpt lat="46.92419" lon="0.60874">
        <ele>55.900001525879</ele>
        <time>2020-02-16T09:19:51Z</time>
      </trkpt>
      <trkpt lat="46.92432" lon="0.60886">
        <ele>54.900001525879</ele>
        <time>2020-02-16T09:20:01Z</time>
      </trkpt>
      <trkpt lat="46.92446" lon="0.609">
        <ele>53.900001525879</ele>
        <time>2020-02-16T09:20:11Z</time>
      </trkpt>
      <trkpt lat="46.9246" lon="0.60913">
        <ele>53.900001525879</ele>
        <time>2020-02-16T09:20:21Z</time>
      </trkpt>
      <trkpt lat="46.92473" lon="0.60926">
        <ele>54.900001525879</ele>
        <time>2020-02-16T09:20:31Z</time>
      </trkpt>
      <trkpt lat="46.92488" lon="0.60939">
        <ele>55.900001525879</ele>
        <time>2020-02-16T09:20:42Z</time>
      </trkpt>
      <trkpt lat="46.92502" lon="0.60952">
        <ele>55.900001525879</ele>
        <time>2020-02-16T09:20:52Z</time>
      </trkpt>
      <trkpt lat="46.92516" lon="0.60965">
        <ele>55.900001525879</ele>
        <time>2020-02-16T09:21:02Z</time>
      </trkpt>
      <trkpt lat="46.9253" lon="0.60977">
        <ele>54.900001525879</ele>
        <time>2020-02-16T09:21:12Z</time>
      </trkpt>
      <trkpt lat="46.9254" lon="0.60986">
        <ele>53.900001525879</ele>
        <time>2020-02-16T09:21:19Z</time>
      </trkpt>
      <trkpt lat="46.92554" lon="0.60998">
        <ele>53.900001525879</ele>
        <time>2020-02-16T09:21:28Z</time>
      </trkpt>
      <trkpt lat="46.92567" lon="0.6101">
        <ele>52.900001525879</ele>
        <time>2020-02-16T09:21:37Z</time>
      </trkpt>
      <trkpt lat="46.92581" lon="0.61024">
        <ele>51.900001525879</ele>
        <time>2020-02-16T09:21:47Z</time>
      </trkpt>
      <trkpt lat="46.92595" lon="0.61037">
        <ele>51.900001525879</ele>
        <time>2020-02-16T09:21:57Z</time>
      </trkpt>
      <trkpt lat="46.92609" lon="0.61049">
        <ele>51.900001525879</ele>
        <time>2020-02-16T09:22:07Z</time>
      </trkpt>
      <trkpt lat="46.92623" lon="0.61063">
        <ele>52.900001525879</ele>
        <time>2020-02-16T09:22:17Z</time>
      </trkpt>
      <trkpt lat="46.92637" lon="0.61074">
        <ele>52.900001525879</ele>
        <time>2020-02-16T09:22:27Z</time>
      </trkpt>
      <trkpt lat="46.92652" lon="0.61083">
        <ele>52.900001525879</ele>
        <time>2020-02-16T09:22:37Z</time>
      </trkpt>
      <trkpt lat="46.92657" lon="0.61087">
        <ele>52.900001525879</ele>
        <time>2020-02-16T09:22:41Z</time>
      </trkpt>
      <trkpt lat="46.92673" lon="0.61093">
        <ele>51.900001525879</ele>
        <time>2020-02-16T09:22:51Z</time>
      </trkpt>
      <trkpt lat="46.92689" lon="0.61098">
        <ele>53.900001525879</ele>
        <time>2020-02-16T09:23:01Z</time>
      </trkpt>
      <trkpt lat="46.92707" lon="0.61101">
        <ele>58.900001525879</ele>
        <time>2020-02-16T09:23:13Z</time>
      </trkpt>
      <trkpt lat="46.92724" lon="0.61101">
        <ele>60.900001525879</ele>
        <time>2020-02-16T09:23:24Z</time>
      </trkpt>
      <trkpt lat="46.92727" lon="0.61101">
        <ele>61.900001525879</ele>
        <time>2020-02-16T09:23:26Z</time>
      </trkpt>
      <trkpt lat="46.92735" lon="0.611">
        <ele>61.900001525879</ele>
        <time>2020-02-16T09:23:31Z</time>
      </trkpt>
      <trkpt lat="46.92741" lon="0.611">
        <ele>61.900001525879</ele>
        <time>2020-02-16T09:23:35Z</time>
      </trkpt>
      <trkpt lat="46.92758" lon="0.61099">
        <ele>62.900001525879</ele>
        <time>2020-02-16T09:23:45Z</time>
      </trkpt>
      <trkpt lat="46.92775" lon="0.61099">
        <ele>61.900001525879</ele>
        <time>2020-02-16T09:23:56Z</time>
      </trkpt>
      <trkpt lat="46.92791" lon="0.61098">
        <ele>61.900001525879</ele>
        <time>2020-02-16T09:24:06Z</time>
      </trkpt>
      <trkpt lat="46.92807" lon="0.61097">
        <ele>61.900001525879</ele>
        <time>2020-02-16T09:24:16Z</time>
      </trkpt>
      <trkpt lat="46.92824" lon="0.61092">
        <ele>61.900001525879</ele>
        <time>2020-02-16T09:24:26Z</time>
      </trkpt>
      <trkpt lat="46.9284" lon="0.61086">
        <ele>61.900001525879</ele>
        <time>2020-02-16T09:24:36Z</time>
      </trkpt>
      <trkpt lat="46.92856" lon="0.61079">
        <ele>59.900001525879</ele>
        <time>2020-02-16T09:24:46Z</time>
      </trkpt>
      <trkpt lat="46.92871" lon="0.61069">
        <ele>59.900001525879</ele>
        <time>2020-02-16T09:24:57Z</time>
      </trkpt>
      <trkpt lat="46.92886" lon="0.61056">
        <ele>57.900001525879</ele>
        <time>2020-02-16T09:25:08Z</time>
      </trkpt>
      <trkpt lat="46.92899" lon="0.61041">
        <ele>57.900001525879</ele>
        <time>2020-02-16T09:25:18Z</time>
      </trkpt>
      <trkpt lat="46.92911" lon="0.61025">
        <ele>57.900001525879</ele>
        <time>2020-02-16T09:25:28Z</time>
      </trkpt>
      <trkpt lat="46.92922" lon="0.61008">
        <ele>56.900001525879</ele>
        <time>2020-02-16T09:25:38Z</time>
      </trkpt>
      <trkpt lat="46.9293" lon="0.60994">
        <ele>58.900001525879</ele>
        <time>2020-02-16T09:25:46Z</time>
      </trkpt>
      <trkpt lat="46.92939" lon="0.60975">
        <ele>57.900001525879</ele>
        <time>2020-02-16T09:25:55Z</time>
      </trkpt>
      <trkpt lat="46.92948" lon="0.60951">
        <ele>55.900001525879</ele>
        <time>2020-02-16T09:26:06Z</time>
      </trkpt>
      <trkpt lat="46.92953" lon="0.60936">
        <ele>56.900001525879</ele>
        <time>2020-02-16T09:26:13Z</time>
      </trkpt>
      <trkpt lat="46.92958" lon="0.6093">
        <ele>57.900001525879</ele>
        <time>2020-02-16T09:26:17Z</time>
      </trkpt>
      <trkpt lat="46.9296" lon="0.60927">
        <ele>57.900001525879</ele>
        <time>2020-02-16T09:26:19Z</time>
      </trkpt>
      <trkpt lat="46.92962" lon="0.60921">
        <ele>57.900001525879</ele>
        <time>2020-02-16T09:26:22Z</time>
      </trkpt>
      <trkpt lat="46.92966" lon="0.60897">
        <ele>57.900001525879</ele>
        <time>2020-02-16T09:26:33Z</time>
      </trkpt>
      <trkpt lat="46.9297" lon="0.60873">
        <ele>56.900001525879</ele>
        <time>2020-02-16T09:26:43Z</time>
      </trkpt>
      <trkpt lat="46.92972" lon="0.60857">
        <ele>56.900001525879</ele>
        <time>2020-02-16T09:26:50Z</time>
      </trkpt>
      <trkpt lat="46.92973" lon="0.60853">
        <ele>57.900001525879</ele>
        <time>2020-02-16T09:26:52Z</time>
      </trkpt>
      <trkpt lat="46.92976" lon="0.60848">
        <ele>57.900001525879</ele>
        <time>2020-02-16T09:26:55Z</time>
      </trkpt>
      <trkpt lat="46.92979" lon="0.60845">
        <ele>57.900001525879</ele>
        <time>2020-02-16T09:26:57Z</time>
      </trkpt>
      <trkpt lat="46.92985" lon="0.60841">
        <ele>57.900001525879</ele>
        <time>2020-02-16T09:27:01Z</time>
      </trkpt>
      <trkpt lat="46.92988" lon="0.60839">
        <ele>57.900001525879</ele>
        <time>2020-02-16T09:27:03Z</time>
      </trkpt>
      <trkpt lat="46.92991" lon="0.60837">
        <ele>57.900001525879</ele>
        <time>2020-02-16T09:27:05Z</time>
      </trkpt>
      <trkpt lat="46.93" lon="0.60837">
        <ele>58.900001525879</ele>
        <time>2020-02-16T09:27:10Z</time>
      </trkpt>
      <trkpt lat="46.93004" lon="0.60837">
        <ele>58.900001525879</ele>
        <time>2020-02-16T09:27:12Z</time>
      </trkpt>
      <trkpt lat="46.93016" lon="0.60846">
        <ele>57.900001525879</ele>
        <time>2020-02-16T09:27:20Z</time>
      </trkpt>
      <trkpt lat="46.93029" lon="0.60858">
        <ele>57.900001525879</ele>
        <time>2020-02-16T09:27:30Z</time>
      </trkpt>
      <trkpt lat="46.93031" lon="0.60861">
        <ele>58.900001525879</ele>
        <time>2020-02-16T09:27:32Z</time>
      </trkpt>
      <trkpt lat="46.93046" lon="0.60872">
        <ele>60.900001525879</ele>
        <time>2020-02-16T09:27:42Z</time>
      </trkpt>
      <trkpt lat="46.93054" lon="0.60878">
        <ele>62.900001525879</ele>
        <time>2020-02-16T09:27:48Z</time>
      </trkpt>
      <trkpt lat="46.93069" lon="0.60887">
        <ele>60.900001525879</ele>
        <time>2020-02-16T09:27:58Z</time>
      </trkpt>
      <trkpt lat="46.93086" lon="0.60897">
        <ele>60.900001525879</ele>
        <time>2020-02-16T09:28:09Z</time>
      </trkpt>
      <trkpt lat="46.93096" lon="0.60906">
        <ele>59.900001525879</ele>
        <time>2020-02-16T09:28:16Z</time>
      </trkpt>
      <trkpt lat="46.93104" lon="0.60909">
        <ele>59.900001525879</ele>
        <time>2020-02-16T09:28:21Z</time>
      </trkpt>
      <trkpt lat="46.9311" lon="0.60909">
        <ele>59.900001525879</ele>
        <time>2020-02-16T09:28:24Z</time>
      </trkpt>
      <trkpt lat="46.93113" lon="0.60909">
        <ele>59.900001525879</ele>
        <time>2020-02-16T09:28:26Z</time>
      </trkpt>
      <trkpt lat="46.93116" lon="0.60907">
        <ele>57.900001525879</ele>
        <time>2020-02-16T09:28:28Z</time>
      </trkpt>
      <trkpt lat="46.93117" lon="0.60904">
        <ele>57.900001525879</ele>
        <time>2020-02-16T09:28:30Z</time>
      </trkpt>
      <trkpt lat="46.93119" lon="0.60895">
        <ele>58.900001525879</ele>
        <time>2020-02-16T09:28:34Z</time>
      </trkpt>
      <trkpt lat="46.93117" lon="0.60872">
        <ele>56.900001525879</ele>
        <time>2020-02-16T09:28:43Z</time>
      </trkpt>
      <trkpt lat="46.93117" lon="0.60869">
        <ele>56.900001525879</ele>
        <time>2020-02-16T09:28:44Z</time>
      </trkpt>
      <trkpt lat="46.93111" lon="0.60848">
        <ele>55.900001525879</ele>
        <time>2020-02-16T09:28:53Z</time>
      </trkpt>
      <trkpt lat="46.93103" lon="0.60829">
        <ele>54.900001525879</ele>
        <time>2020-02-16T09:29:02Z</time>
      </trkpt>
      <trkpt lat="46.93102" lon="0.60824">
        <ele>54.900001525879</ele>
        <time>2020-02-16T09:29:04Z</time>
      </trkpt>
      <trkpt lat="46.93101" lon="0.6082">
        <ele>55.900001525879</ele>
        <time>2020-02-16T09:29:06Z</time>
      </trkpt>
      <trkpt lat="46.93101" lon="0.60817">
        <ele>55.900001525879</ele>
        <time>2020-02-16T09:29:08Z</time>
      </trkpt>
      <trkpt lat="46.93102" lon="0.60813">
        <ele>55.900001525879</ele>
        <time>2020-02-16T09:29:10Z</time>
      </trkpt>
      <trkpt lat="46.93103" lon="0.6081">
        <ele>55.900001525879</ele>
        <time>2020-02-16T09:29:12Z</time>
      </trkpt>
      <trkpt lat="46.93113" lon="0.60802">
        <ele>57.900001525879</ele>
        <time>2020-02-16T09:29:20Z</time>
      </trkpt>
      <trkpt lat="46.93125" lon="0.60792">
        <ele>55.900001525879</ele>
        <time>2020-02-16T09:29:29Z</time>
      </trkpt>
      <trkpt lat="46.9313" lon="0.60786">
        <ele>55.900001525879</ele>
        <time>2020-02-16T09:29:33Z</time>
      </trkpt>
      <trkpt lat="46.93135" lon="0.60782">
        <ele>55.900001525879</ele>
        <time>2020-02-16T09:29:36Z</time>
      </trkpt>
      <trkpt lat="46.93141" lon="0.60775">
        <ele>55.900001525879</ele>
        <time>2020-02-16T09:29:41Z</time>
      </trkpt>
      <trkpt lat="46.93143" lon="0.60773">
        <ele>54.900001525879</ele>
        <time>2020-02-16T09:29:42Z</time>
      </trkpt>
      <trkpt lat="46.93151" lon="0.60769">
        <ele>57.900001525879</ele>
        <time>2020-02-16T09:29:47Z</time>
      </trkpt>
      <trkpt lat="46.93157" lon="0.60767">
        <ele>56.900001525879</ele>
        <time>2020-02-16T09:29:50Z</time>
      </trkpt>
      <trkpt lat="46.93165" lon="0.60768">
        <ele>59.900001525879</ele>
        <time>2020-02-16T09:29:55Z</time>
      </trkpt>
      <trkpt lat="46.93181" lon="0.60772">
        <ele>60.900001525879</ele>
        <time>2020-02-16T09:30:05Z</time>
      </trkpt>
      <trkpt lat="46.93194" lon="0.60776">
        <ele>61.900001525879</ele>
        <time>2020-02-16T09:30:13Z</time>
      </trkpt>
      <trkpt lat="46.93199" lon="0.60777">
        <ele>61.900001525879</ele>
        <time>2020-02-16T09:30:16Z</time>
      </trkpt>
      <trkpt lat="46.93215" lon="0.60782">
        <ele>62.900001525879</ele>
        <time>2020-02-16T09:30:26Z</time>
      </trkpt>
      <trkpt lat="46.93232" lon="0.60787">
        <ele>61.900001525879</ele>
        <time>2020-02-16T09:30:36Z</time>
      </trkpt>
      <trkpt lat="46.93248" lon="0.60792">
        <ele>61.900001525879</ele>
        <time>2020-02-16T09:30:46Z</time>
      </trkpt>
      <trkpt lat="46.93264" lon="0.60794">
        <ele>60.900001525879</ele>
        <time>2020-02-16T09:30:55Z</time>
      </trkpt>
      <trkpt lat="46.93278" lon="0.60799">
        <ele>62.900001525879</ele>
        <time>2020-02-16T09:31:04Z</time>
      </trkpt>
      <trkpt lat="46.93284" lon="0.60801">
        <ele>60.900001525879</ele>
        <time>2020-02-16T09:31:08Z</time>
      </trkpt>
      <trkpt lat="46.9329" lon="0.608">
        <ele>59.900001525879</ele>
        <time>2020-02-16T09:31:12Z</time>
      </trkpt>
      <trkpt lat="46.93307" lon="0.60806">
        <ele>60.900001525879</ele>
        <time>2020-02-16T09:31:24Z</time>
      </trkpt>
      <trkpt lat="46.93319" lon="0.60809">
        <ele>56.900001525879</ele>
        <time>2020-02-16T09:31:31Z</time>
      </trkpt>
      <trkpt lat="46.93335" lon="0.60814">
        <ele>57.900001525879</ele>
        <time>2020-02-16T09:31:42Z</time>
      </trkpt>
      <trkpt lat="46.93351" lon="0.60818">
        <ele>55.900001525879</ele>
        <time>2020-02-16T09:31:52Z</time>
      </trkpt>
      <trkpt lat="46.9337" lon="0.60822">
        <ele>52.900001525879</ele>
        <time>2020-02-16T09:32:03Z</time>
      </trkpt>
      <trkpt lat="46.93378" lon="0.60824">
        <ele>49.900001525879</ele>
        <time>2020-02-16T09:32:08Z</time>
      </trkpt>
      <trkpt lat="46.93395" lon="0.60828">
        <ele>47.900001525879</ele>
        <time>2020-02-16T09:32:18Z</time>
      </trkpt>
      <trkpt lat="46.93406" lon="0.60831">
        <ele>44.900001525879</ele>
        <time>2020-02-16T09:32:25Z</time>
      </trkpt>
      <trkpt lat="46.93421" lon="0.60843">
        <ele>45.900001525879</ele>
        <time>2020-02-16T09:32:35Z</time>
      </trkpt>
      <trkpt lat="46.93429" lon="0.60853">
        <ele>45.900001525879</ele>
        <time>2020-02-16T09:32:41Z</time>
      </trkpt>
      <trkpt lat="46.93431" lon="0.60856">
        <ele>46.900001525879</ele>
        <time>2020-02-16T09:32:43Z</time>
      </trkpt>
      <trkpt lat="46.93432" lon="0.6086">
        <ele>46.900001525879</ele>
        <time>2020-02-16T09:32:45Z</time>
      </trkpt>
      <trkpt lat="46.93433" lon="0.60867">
        <ele>46.900001525879</ele>
        <time>2020-02-16T09:32:48Z</time>
      </trkpt>
      <trkpt lat="46.93437" lon="0.60879">
        <ele>46.900001525879</ele>
        <time>2020-02-16T09:32:54Z</time>
      </trkpt>
      <trkpt lat="46.93447" lon="0.60898">
        <ele>45.900001525879</ele>
        <time>2020-02-16T09:33:03Z</time>
      </trkpt>
      <trkpt lat="46.93454" lon="0.60909">
        <ele>46.900001525879</ele>
        <time>2020-02-16T09:33:09Z</time>
      </trkpt>
      <trkpt lat="46.93456" lon="0.60913">
        <ele>46.900001525879</ele>
        <time>2020-02-16T09:33:11Z</time>
      </trkpt>
      <trkpt lat="46.93461" lon="0.60932">
        <ele>48.900001525879</ele>
        <time>2020-02-16T09:33:20Z</time>
      </trkpt>
      <trkpt lat="46.93464" lon="0.60939">
        <ele>48.900001525879</ele>
        <time>2020-02-16T09:33:24Z</time>
      </trkpt>
      <trkpt lat="46.93471" lon="0.60959">
        <ele>49.900001525879</ele>
        <time>2020-02-16T09:33:35Z</time>
      </trkpt>
      <trkpt lat="46.93483" lon="0.60977">
        <ele>48.900001525879</ele>
        <time>2020-02-16T09:33:45Z</time>
      </trkpt>
      <trkpt lat="46.93494" lon="0.60989">
        <ele>48.900001525879</ele>
        <time>2020-02-16T09:33:53Z</time>
      </trkpt>
      <trkpt lat="46.93502" lon="0.60992">
        <ele>48.900001525879</ele>
        <time>2020-02-16T09:33:57Z</time>
      </trkpt>
      <trkpt lat="46.93503" lon="0.60993">
        <ele>49.900001525879</ele>
        <time>2020-02-16T09:33:58Z</time>
      </trkpt>
      <trkpt lat="46.93508" lon="0.60993">
        <ele>49.900001525879</ele>
        <time>2020-02-16T09:34:01Z</time>
      </trkpt>
      <trkpt lat="46.93511" lon="0.60993">
        <ele>49.900001525879</ele>
        <time>2020-02-16T09:34:03Z</time>
      </trkpt>
      <trkpt lat="46.9353" lon="0.61001">
        <ele>54.900001525879</ele>
        <time>2020-02-16T09:34:15Z</time>
      </trkpt>
      <trkpt lat="46.93542" lon="0.61005">
        <ele>57.900001525879</ele>
        <time>2020-02-16T09:34:23Z</time>
      </trkpt>
      <trkpt lat="46.93549" lon="0.61004">
        <ele>57.900001525879</ele>
        <time>2020-02-16T09:34:27Z</time>
      </trkpt>
      <trkpt lat="46.93566" lon="0.61008">
        <ele>59.900001525879</ele>
        <time>2020-02-16T09:34:38Z</time>
      </trkpt>
      <trkpt lat="46.93583" lon="0.61014">
        <ele>61.900001525879</ele>
        <time>2020-02-16T09:34:49Z</time>
      </trkpt>
      <trkpt lat="46.93599" lon="0.61017">
        <ele>61.900001525879</ele>
        <time>2020-02-16T09:34:59Z</time>
      </trkpt>
      <trkpt lat="46.93615" lon="0.61023">
        <ele>60.900001525879</ele>
        <time>2020-02-16T09:35:09Z</time>
      </trkpt>
      <trkpt lat="46.93633" lon="0.61024">
        <ele>60.900001525879</ele>
        <time>2020-02-16T09:35:19Z</time>
      </trkpt>
      <trkpt lat="46.93649" lon="0.61027">
        <ele>62.900001525879</ele>
        <time>2020-02-16T09:35:30Z</time>
      </trkpt>
      <trkpt lat="46.93661" lon="0.61029">
        <ele>63.900001525879</ele>
        <time>2020-02-16T09:35:38Z</time>
      </trkpt>
      <trkpt lat="46.93676" lon="0.61028">
        <ele>65.900001525879</ele>
        <time>2020-02-16T09:35:47Z</time>
      </trkpt>
      <trkpt lat="46.93693" lon="0.61032">
        <ele>65.900001525879</ele>
        <time>2020-02-16T09:35:57Z</time>
      </trkpt>
      <trkpt lat="46.9371" lon="0.61036">
        <ele>65.900001525879</ele>
        <time>2020-02-16T09:36:07Z</time>
      </trkpt>
      <trkpt lat="46.93721" lon="0.61037">
        <ele>66.900001525879</ele>
        <time>2020-02-16T09:36:15Z</time>
      </trkpt>
      <trkpt lat="46.93728" lon="0.61036">
        <ele>65.900001525879</ele>
        <time>2020-02-16T09:36:19Z</time>
      </trkpt>
      <trkpt lat="46.93745" lon="0.61041">
        <ele>66.900001525879</ele>
        <time>2020-02-16T09:36:30Z</time>
      </trkpt>
      <trkpt lat="46.93753" lon="0.61042">
        <ele>66.900001525879</ele>
        <time>2020-02-16T09:36:35Z</time>
      </trkpt>
      <trkpt lat="46.93755" lon="0.61043">
        <ele>65.900001525879</ele>
        <time>2020-02-16T09:36:37Z</time>
      </trkpt>
      <trkpt lat="46.93757" lon="0.61046">
        <ele>65.900001525879</ele>
        <time>2020-02-16T09:36:39Z</time>
      </trkpt>
      <trkpt lat="46.93756" lon="0.61054">
        <ele>61.900001525879</ele>
        <time>2020-02-16T09:36:44Z</time>
      </trkpt>
      <trkpt lat="46.93755" lon="0.61074">
        <ele>59.900001525879</ele>
        <time>2020-02-16T09:36:53Z</time>
      </trkpt>
      <trkpt lat="46.93755" lon="0.611">
        <ele>57.900001525879</ele>
        <time>2020-02-16T09:37:03Z</time>
      </trkpt>
      <trkpt lat="46.93756" lon="0.61123">
        <ele>57.900001525879</ele>
        <time>2020-02-16T09:37:12Z</time>
      </trkpt>
      <trkpt lat="46.93756" lon="0.61146">
        <ele>57.900001525879</ele>
        <time>2020-02-16T09:37:21Z</time>
      </trkpt>
      <trkpt lat="46.93757" lon="0.6116">
        <ele>55.900001525879</ele>
        <time>2020-02-16T09:37:27Z</time>
      </trkpt>
      <trkpt lat="46.93761" lon="0.61166">
        <ele>58.900001525879</ele>
        <time>2020-02-16T09:37:30Z</time>
      </trkpt>
      <trkpt lat="46.93765" lon="0.61175">
        <ele>59.900001525879</ele>
        <time>2020-02-16T09:37:34Z</time>
      </trkpt>
      <trkpt lat="46.93766" lon="0.61179">
        <ele>60.900001525879</ele>
        <time>2020-02-16T09:37:36Z</time>
      </trkpt>
      <trkpt lat="46.93767" lon="0.61185">
        <ele>62.900001525879</ele>
        <time>2020-02-16T09:37:39Z</time>
      </trkpt>
      <trkpt lat="46.93769" lon="0.61208">
        <ele>62.900001525879</ele>
        <time>2020-02-16T09:37:48Z</time>
      </trkpt>
      <trkpt lat="46.93771" lon="0.61224">
        <ele>62.900001525879</ele>
        <time>2020-02-16T09:37:54Z</time>
      </trkpt>
      <trkpt lat="46.93771" lon="0.61229">
        <ele>62.900001525879</ele>
        <time>2020-02-16T09:37:56Z</time>
      </trkpt>
      <trkpt lat="46.93775" lon="0.6125">
        <ele>60.900001525879</ele>
        <time>2020-02-16T09:38:06Z</time>
      </trkpt>
      <trkpt lat="46.93778" lon="0.61275">
        <ele>60.900001525879</ele>
        <time>2020-02-16T09:38:16Z</time>
      </trkpt>
      <trkpt lat="46.9378" lon="0.613">
        <ele>64.900001525879</ele>
        <time>2020-02-16T09:38:27Z</time>
      </trkpt>
      <trkpt lat="46.93782" lon="0.61318">
        <ele>64.900001525879</ele>
        <time>2020-02-16T09:38:35Z</time>
      </trkpt>
      <trkpt lat="46.93781" lon="0.61343">
        <ele>65.900001525879</ele>
        <time>2020-02-16T09:38:46Z</time>
      </trkpt>
      <trkpt lat="46.93779" lon="0.6136">
        <ele>65.900001525879</ele>
        <time>2020-02-16T09:38:54Z</time>
      </trkpt>
      <trkpt lat="46.93778" lon="0.61365">
        <ele>64.900001525879</ele>
        <time>2020-02-16T09:38:56Z</time>
      </trkpt>
      <trkpt lat="46.93777" lon="0.6139">
        <ele>64.900001525879</ele>
        <time>2020-02-16T09:39:06Z</time>
      </trkpt>
      <trkpt lat="46.93776" lon="0.61398">
        <ele>65.900001525879</ele>
        <time>2020-02-16T09:39:10Z</time>
      </trkpt>
      <trkpt lat="46.93776" lon="0.61402">
        <ele>66.900001525879</ele>
        <time>2020-02-16T09:39:12Z</time>
      </trkpt>
      <trkpt lat="46.93777" lon="0.61405">
        <ele>66.900001525879</ele>
        <time>2020-02-16T09:39:13Z</time>
      </trkpt>
      <trkpt lat="46.93778" lon="0.61407">
        <ele>67.900001525879</ele>
        <time>2020-02-16T09:39:14Z</time>
      </trkpt>
      <trkpt lat="46.93781" lon="0.61409">
        <ele>66.900001525879</ele>
        <time>2020-02-16T09:39:16Z</time>
      </trkpt>
      <trkpt lat="46.9379" lon="0.6141">
        <ele>68.900001525879</ele>
        <time>2020-02-16T09:39:21Z</time>
      </trkpt>
      <trkpt lat="46.93792" lon="0.6141">
        <ele>68.900001525879</ele>
        <time>2020-02-16T09:39:22Z</time>
      </trkpt>
      <trkpt lat="46.93808" lon="0.61405">
        <ele>66.900001525879</ele>
        <time>2020-02-16T09:39:30Z</time>
      </trkpt>
      <trkpt lat="46.93824" lon="0.614">
        <ele>65.900001525879</ele>
        <time>2020-02-16T09:39:39Z</time>
      </trkpt>
      <trkpt lat="46.9384" lon="0.61393">
        <ele>66.900001525879</ele>
        <time>2020-02-16T09:39:49Z</time>
      </trkpt>
      <trkpt lat="46.93844" lon="0.6139">
        <ele>66.900001525879</ele>
        <time>2020-02-16T09:39:52Z</time>
      </trkpt>
      <trkpt lat="46.93852" lon="0.61388">
        <ele>66.900001525879</ele>
        <time>2020-02-16T09:39:57Z</time>
      </trkpt>
      <trkpt lat="46.93868" lon="0.6138">
        <ele>65.900001525879</ele>
        <time>2020-02-16T09:40:07Z</time>
      </trkpt>
      <trkpt lat="46.93884" lon="0.6137">
        <ele>63.900001525879</ele>
        <time>2020-02-16T09:40:16Z</time>
      </trkpt>
      <trkpt lat="46.93899" lon="0.61363">
        <ele>61.900001525879</ele>
        <time>2020-02-16T09:40:24Z</time>
      </trkpt>
      <trkpt lat="46.93915" lon="0.61355">
        <ele>60.900001525879</ele>
        <time>2020-02-16T09:40:33Z</time>
      </trkpt>
      <trkpt lat="46.93932" lon="0.61348">
        <ele>60.900001525879</ele>
        <time>2020-02-16T09:40:43Z</time>
      </trkpt>
      <trkpt lat="46.93947" lon="0.6134">
        <ele>60.900001525879</ele>
        <time>2020-02-16T09:40:52Z</time>
      </trkpt>
      <trkpt lat="46.93958" lon="0.61336">
        <ele>58.900001525879</ele>
        <time>2020-02-16T09:40:58Z</time>
      </trkpt>
      <trkpt lat="46.93974" lon="0.61328">
        <ele>59.900001525879</ele>
        <time>2020-02-16T09:41:07Z</time>
      </trkpt>
      <trkpt lat="46.93976" lon="0.61327">
        <ele>59.900001525879</ele>
        <time>2020-02-16T09:41:08Z</time>
      </trkpt>
      <trkpt lat="46.93979" lon="0.61325">
        <ele>59.900001525879</ele>
        <time>2020-02-16T09:41:10Z</time>
      </trkpt>
      <trkpt lat="46.93995" lon="0.61318">
        <ele>58.900001525879</ele>
        <time>2020-02-16T09:41:19Z</time>
      </trkpt>
      <trkpt lat="46.9401" lon="0.61311">
        <ele>58.900001525879</ele>
        <time>2020-02-16T09:41:28Z</time>
      </trkpt>
      <trkpt lat="46.94026" lon="0.61303">
        <ele>58.900001525879</ele>
        <time>2020-02-16T09:41:37Z</time>
      </trkpt>
      <trkpt lat="46.94029" lon="0.61301">
        <ele>58.900001525879</ele>
        <time>2020-02-16T09:41:39Z</time>
      </trkpt>
      <trkpt lat="46.94045" lon="0.61293">
        <ele>58.900001525879</ele>
        <time>2020-02-16T09:41:49Z</time>
      </trkpt>
      <trkpt lat="46.94061" lon="0.61285">
        <ele>59.900001525879</ele>
        <time>2020-02-16T09:41:58Z</time>
      </trkpt>
      <trkpt lat="46.94078" lon="0.61277">
        <ele>60.900001525879</ele>
        <time>2020-02-16T09:42:07Z</time>
      </trkpt>
      <trkpt lat="46.94093" lon="0.61272">
        <ele>60.900001525879</ele>
        <time>2020-02-16T09:42:16Z</time>
      </trkpt>
      <trkpt lat="46.9411" lon="0.61269">
        <ele>60.900001525879</ele>
        <time>2020-02-16T09:42:26Z</time>
      </trkpt>
      <trkpt lat="46.94128" lon="0.61266">
        <ele>61.900001525879</ele>
        <time>2020-02-16T09:42:35Z</time>
      </trkpt>
      <trkpt lat="46.94144" lon="0.61265">
        <ele>63.900001525879</ele>
        <time>2020-02-16T09:42:43Z</time>
      </trkpt>
      <trkpt lat="46.94153" lon="0.61267">
        <ele>65.900001525879</ele>
        <time>2020-02-16T09:42:48Z</time>
      </trkpt>
      <trkpt lat="46.94155" lon="0.61267">
        <ele>66.900001525879</ele>
        <time>2020-02-16T09:42:49Z</time>
      </trkpt>
      <trkpt lat="46.94158" lon="0.61269">
        <ele>68.900001525879</ele>
        <time>2020-02-16T09:42:51Z</time>
      </trkpt>
      <trkpt lat="46.94169" lon="0.61277">
        <ele>68.900001525879</ele>
        <time>2020-02-16T09:42:58Z</time>
      </trkpt>
      <trkpt lat="46.94171" lon="0.6128">
        <ele>68.900001525879</ele>
        <time>2020-02-16T09:43:00Z</time>
      </trkpt>
      <trkpt lat="46.94171" lon="0.61283">
        <ele>68.900001525879</ele>
        <time>2020-02-16T09:43:11Z</time>
      </trkpt>
      <trkpt lat="46.94174" lon="0.61284">
        <ele>69.900001525879</ele>
        <time>2020-02-16T09:44:11Z</time>
      </trkpt>
      <trkpt lat="46.94176" lon="0.61285">
        <ele>69.900001525879</ele>
        <time>2020-02-16T09:44:13Z</time>
      </trkpt>
      <trkpt lat="46.94191" lon="0.61303">
        <ele>69.900001525879</ele>
        <time>2020-02-16T09:44:23Z</time>
      </trkpt>
      <trkpt lat="46.94203" lon="0.61313">
        <ele>69.900001525879</ele>
        <time>2020-02-16T09:44:28Z</time>
      </trkpt>
      <trkpt lat="46.9421" lon="0.61321">
        <ele>69.900001525879</ele>
        <time>2020-02-16T09:44:31Z</time>
      </trkpt>
      <trkpt lat="46.94227" lon="0.61335">
        <ele>68.900001525879</ele>
        <time>2020-02-16T09:44:38Z</time>
      </trkpt>
      <trkpt lat="46.94242" lon="0.6135">
        <ele>66.900001525879</ele>
        <time>2020-02-16T09:44:46Z</time>
      </trkpt>
      <trkpt lat="46.94257" lon="0.61363">
        <ele>66.900001525879</ele>
        <time>2020-02-16T09:44:54Z</time>
      </trkpt>
      <trkpt lat="46.94272" lon="0.61375">
        <ele>66.900001525879</ele>
        <time>2020-02-16T09:45:02Z</time>
      </trkpt>
      <trkpt lat="46.94286" lon="0.61388">
        <ele>68.900001525879</ele>
        <time>2020-02-16T09:45:12Z</time>
      </trkpt>
      <trkpt lat="46.943" lon="0.61401">
        <ele>68.900001525879</ele>
        <time>2020-02-16T09:45:24Z</time>
      </trkpt>
      <trkpt lat="46.94314" lon="0.61414">
        <ele>67.900001525879</ele>
        <time>2020-02-16T09:45:35Z</time>
      </trkpt>
      <trkpt lat="46.94327" lon="0.61427">
        <ele>69.900001525879</ele>
        <time>2020-02-16T09:45:46Z</time>
      </trkpt>
      <trkpt lat="46.94343" lon="0.6144">
        <ele>69.900001525879</ele>
        <time>2020-02-16T09:45:58Z</time>
      </trkpt>
      <trkpt lat="46.94353" lon="0.61453">
        <ele>73.900001525879</ele>
        <time>2020-02-16T09:46:08Z</time>
      </trkpt>
      <trkpt lat="46.94364" lon="0.61465">
        <ele>78.900001525879</ele>
        <time>2020-02-16T09:46:18Z</time>
      </trkpt>
      <trkpt lat="46.94369" lon="0.6147">
        <ele>79.900001525879</ele>
        <time>2020-02-16T09:46:22Z</time>
      </trkpt>
      <trkpt lat="46.94379" lon="0.61483">
        <ele>82.900001525879</ele>
        <time>2020-02-16T09:46:32Z</time>
      </trkpt>
      <trkpt lat="46.9439" lon="0.61492">
        <ele>83.900001525879</ele>
        <time>2020-02-16T09:46:40Z</time>
      </trkpt>
      <trkpt lat="46.94407" lon="0.615">
        <ele>87.900001525879</ele>
        <time>2020-02-16T09:46:52Z</time>
      </trkpt>
      <trkpt lat="46.94414" lon="0.61502">
        <ele>87.900001525879</ele>
        <time>2020-02-16T09:46:57Z</time>
      </trkpt>
      <trkpt lat="46.9442" lon="0.61502">
        <ele>87.900001525879</ele>
        <time>2020-02-16T09:47:01Z</time>
      </trkpt>
      <trkpt lat="46.94428" lon="0.61505">
        <ele>88.900001525879</ele>
        <time>2020-02-16T09:47:06Z</time>
      </trkpt>
      <trkpt lat="46.94431" lon="0.61505">
        <ele>88.900001525879</ele>
        <time>2020-02-16T09:47:08Z</time>
      </trkpt>
      <trkpt lat="46.94447" lon="0.61509">
        <ele>91.900001525879</ele>
        <time>2020-02-16T09:47:18Z</time>
      </trkpt>
      <trkpt lat="46.94454" lon="0.61511">
        <ele>92.900001525879</ele>
        <time>2020-02-16T09:47:23Z</time>
      </trkpt>
      <trkpt lat="46.9446" lon="0.61511">
        <ele>95.900001525879</ele>
        <time>2020-02-16T09:47:27Z</time>
      </trkpt>
      <trkpt lat="46.94464" lon="0.61512">
        <ele>95.900001525879</ele>
        <time>2020-02-16T09:47:29Z</time>
      </trkpt>
      <trkpt lat="46.9448" lon="0.61523">
        <ele>99.900001525879</ele>
        <time>2020-02-16T09:47:41Z</time>
      </trkpt>
      <trkpt lat="46.94485" lon="0.61524">
        <ele>99.900001525879</ele>
        <time>2020-02-16T09:47:44Z</time>
      </trkpt>
      <trkpt lat="46.94488" lon="0.61524">
        <ele>103.90000152588</ele>
        <time>2020-02-16T09:47:46Z</time>
      </trkpt>
      <trkpt lat="46.94493" lon="0.61524">
        <ele>104.90000152588</ele>
        <time>2020-02-16T09:47:49Z</time>
      </trkpt>
      <trkpt lat="46.94499" lon="0.61524">
        <ele>107.90000152588</ele>
        <time>2020-02-16T09:47:53Z</time>
      </trkpt>
      <trkpt lat="46.94505" lon="0.61523">
        <ele>108.90000152588</ele>
        <time>2020-02-16T09:47:57Z</time>
      </trkpt>
      <trkpt lat="46.94508" lon="0.61525">
        <ele>107.90000152588</ele>
        <time>2020-02-16T09:47:59Z</time>
      </trkpt>
      <trkpt lat="46.94515" lon="0.6153">
        <ele>103.90000152588</ele>
        <time>2020-02-16T09:48:03Z</time>
      </trkpt>
      <trkpt lat="46.94518" lon="0.61533">
        <ele>102.90000152588</ele>
        <time>2020-02-16T09:48:05Z</time>
      </trkpt>
      <trkpt lat="46.94525" lon="0.61536">
        <ele>101.90000152588</ele>
        <time>2020-02-16T09:48:09Z</time>
      </trkpt>
      <trkpt lat="46.94546" lon="0.61543">
        <ele>97.900001525879</ele>
        <time>2020-02-16T09:48:23Z</time>
      </trkpt>
      <trkpt lat="46.94562" lon="0.61549">
        <ele>99.900001525879</ele>
        <time>2020-02-16T09:48:33Z</time>
      </trkpt>
      <trkpt lat="46.94576" lon="0.61553">
        <ele>101.90000152588</ele>
        <time>2020-02-16T09:48:43Z</time>
      </trkpt>
      <trkpt lat="46.94579" lon="0.61554">
        <ele>101.90000152588</ele>
        <time>2020-02-16T09:48:45Z</time>
      </trkpt>
      <trkpt lat="46.94586" lon="0.61556">
        <ele>102.90000152588</ele>
        <time>2020-02-16T09:48:49Z</time>
      </trkpt>
      <trkpt lat="46.94591" lon="0.6156">
        <ele>101.90000152588</ele>
        <time>2020-02-16T09:48:53Z</time>
      </trkpt>
      <trkpt lat="46.94606" lon="0.61566">
        <ele>98.900001525879</ele>
        <time>2020-02-16T09:49:03Z</time>
      </trkpt>
      <trkpt lat="46.94622" lon="0.61571">
        <ele>102.90000152588</ele>
        <time>2020-02-16T09:49:13Z</time>
      </trkpt>
      <trkpt lat="46.94627" lon="0.61573">
        <ele>104.90000152588</ele>
        <time>2020-02-16T09:49:16Z</time>
      </trkpt>
      <trkpt lat="46.94634" lon="0.61577">
        <ele>100.90000152588</ele>
        <time>2020-02-16T09:49:21Z</time>
      </trkpt>
      <trkpt lat="46.94642" lon="0.61579">
        <ele>102.90000152588</ele>
        <time>2020-02-16T09:49:26Z</time>
      </trkpt>
      <trkpt lat="46.94659" lon="0.61585">
        <ele>101.90000152588</ele>
        <time>2020-02-16T09:49:36Z</time>
      </trkpt>
      <trkpt lat="46.94666" lon="0.61585">
        <ele>101.90000152588</ele>
        <time>2020-02-16T09:49:41Z</time>
      </trkpt>
      <trkpt lat="46.94668" lon="0.61587">
        <ele>101.90000152588</ele>
        <time>2020-02-16T09:49:43Z</time>
      </trkpt>
      <trkpt lat="46.94675" lon="0.61588">
        <ele>103.90000152588</ele>
        <time>2020-02-16T09:49:47Z</time>
      </trkpt>
      <trkpt lat="46.94683" lon="0.61591">
        <ele>102.90000152588</ele>
        <time>2020-02-16T09:49:53Z</time>
      </trkpt>
      <trkpt lat="46.94691" lon="0.61594">
        <ele>104.90000152588</ele>
        <time>2020-02-16T09:49:58Z</time>
      </trkpt>
      <trkpt lat="46.94694" lon="0.61596">
        <ele>103.90000152588</ele>
        <time>2020-02-16T09:50:00Z</time>
      </trkpt>
      <trkpt lat="46.94698" lon="0.61598">
        <ele>104.90000152588</ele>
        <time>2020-02-16T09:50:03Z</time>
      </trkpt>
      <trkpt lat="46.94714" lon="0.61605">
        <ele>100.90000152588</ele>
        <time>2020-02-16T09:50:13Z</time>
      </trkpt>
      <trkpt lat="46.94726" lon="0.61607">
        <ele>99.900001525879</ele>
        <time>2020-02-16T09:50:19Z</time>
      </trkpt>
      <trkpt lat="46.9473" lon="0.6161">
        <ele>98.900001525879</ele>
        <time>2020-02-16T09:50:22Z</time>
      </trkpt>
      <trkpt lat="46.9474" lon="0.61611">
        <ele>98.900001525879</ele>
        <time>2020-02-16T09:50:28Z</time>
      </trkpt>
      <trkpt lat="46.94747" lon="0.61616">
        <ele>97.900001525879</ele>
        <time>2020-02-16T09:50:33Z</time>
      </trkpt>
      <trkpt lat="46.94757" lon="0.61619">
        <ele>97.900001525879</ele>
        <time>2020-02-16T09:50:39Z</time>
      </trkpt>
      <trkpt lat="46.94769" lon="0.61621">
        <ele>98.900001525879</ele>
        <time>2020-02-16T09:50:47Z</time>
      </trkpt>
      <trkpt lat="46.94773" lon="0.61624">
        <ele>97.900001525879</ele>
        <time>2020-02-16T09:50:50Z</time>
      </trkpt>
      <trkpt lat="46.94779" lon="0.61627">
        <ele>93.900001525879</ele>
        <time>2020-02-16T09:50:54Z</time>
      </trkpt>
      <trkpt lat="46.94786" lon="0.6163">
        <ele>93.900001525879</ele>
        <time>2020-02-16T09:50:58Z</time>
      </trkpt>
      <trkpt lat="46.94787" lon="0.61632">
        <ele>92.900001525879</ele>
        <time>2020-02-16T09:50:59Z</time>
      </trkpt>
      <trkpt lat="46.94791" lon="0.61636">
        <ele>91.900001525879</ele>
        <time>2020-02-16T09:51:02Z</time>
      </trkpt>
      <trkpt lat="46.94794" lon="0.61637">
        <ele>89.900001525879</ele>
        <time>2020-02-16T09:51:04Z</time>
      </trkpt>
      <trkpt lat="46.94795" lon="0.61637">
        <ele>89.900001525879</ele>
        <time>2020-02-16T09:51:05Z</time>
      </trkpt>
      <trkpt lat="46.94797" lon="0.61636">
        <ele>88.900001525879</ele>
        <time>2020-02-16T09:51:06Z</time>
      </trkpt>
      <trkpt lat="46.94799" lon="0.61635">
        <ele>88.900001525879</ele>
        <time>2020-02-16T09:51:07Z</time>
      </trkpt>
      <trkpt lat="46.94804" lon="0.61632">
        <ele>85.900001525879</ele>
        <time>2020-02-16T09:51:10Z</time>
      </trkpt>
      <trkpt lat="46.94805" lon="0.6163">
        <ele>85.900001525879</ele>
        <time>2020-02-16T09:51:11Z</time>
      </trkpt>
      <trkpt lat="46.94814" lon="0.61619">
        <ele>82.900001525879</ele>
        <time>2020-02-16T09:51:17Z</time>
      </trkpt>
      <trkpt lat="46.94825" lon="0.61603">
        <ele>79.900001525879</ele>
        <time>2020-02-16T09:51:26Z</time>
      </trkpt>
      <trkpt lat="46.94838" lon="0.61588">
        <ele>73.900001525879</ele>
        <time>2020-02-16T09:51:36Z</time>
      </trkpt>
      <trkpt lat="46.94849" lon="0.61576">
        <ele>70.900001525879</ele>
        <time>2020-02-16T09:51:43Z</time>
      </trkpt>
      <trkpt lat="46.9486" lon="0.61562">
        <ele>67.900001525879</ele>
        <time>2020-02-16T09:51:52Z</time>
      </trkpt>
      <trkpt lat="46.94871" lon="0.61542">
        <ele>66.900001525879</ele>
        <time>2020-02-16T09:52:05Z</time>
      </trkpt>
      <trkpt lat="46.94878" lon="0.61526">
        <ele>64.900001525879</ele>
        <time>2020-02-16T09:52:12Z</time>
      </trkpt>
      <trkpt lat="46.9488" lon="0.61518">
        <ele>64.900001525879</ele>
        <time>2020-02-16T09:52:15Z</time>
      </trkpt>
      <trkpt lat="46.94884" lon="0.61509">
        <ele>64.900001525879</ele>
        <time>2020-02-16T09:52:19Z</time>
      </trkpt>
      <trkpt lat="46.94886" lon="0.61503">
        <ele>65.900001525879</ele>
        <time>2020-02-16T09:52:22Z</time>
      </trkpt>
      <trkpt lat="46.94895" lon="0.61484">
        <ele>64.900001525879</ele>
        <time>2020-02-16T09:52:31Z</time>
      </trkpt>
      <trkpt lat="46.94899" lon="0.61472">
        <ele>63.900001525879</ele>
        <time>2020-02-16T09:52:36Z</time>
      </trkpt>
      <trkpt lat="46.94909" lon="0.61452">
        <ele>63.900001525879</ele>
        <time>2020-02-16T09:52:47Z</time>
      </trkpt>
      <trkpt lat="46.94911" lon="0.61447">
        <ele>63.900001525879</ele>
        <time>2020-02-16T09:52:50Z</time>
      </trkpt>
      <trkpt lat="46.94922" lon="0.61428">
        <ele>63.900001525879</ele>
        <time>2020-02-16T09:53:00Z</time>
      </trkpt>
      <trkpt lat="46.94935" lon="0.6141">
        <ele>63.900001525879</ele>
        <time>2020-02-16T09:53:11Z</time>
      </trkpt>
      <trkpt lat="46.94938" lon="0.61406">
        <ele>63.900001525879</ele>
        <time>2020-02-16T09:53:13Z</time>
      </trkpt>
      <trkpt lat="46.94949" lon="0.61398">
        <ele>62.900001525879</ele>
        <time>2020-02-16T09:53:20Z</time>
      </trkpt>
      <trkpt lat="46.94965" lon="0.61394">
        <ele>61.900001525879</ele>
        <time>2020-02-16T09:53:30Z</time>
      </trkpt>
      <trkpt lat="46.9498" lon="0.6139">
        <ele>62.900001525879</ele>
        <time>2020-02-16T09:53:40Z</time>
      </trkpt>
      <trkpt lat="46.94983" lon="0.6139">
        <ele>62.900001525879</ele>
        <time>2020-02-16T09:53:42Z</time>
      </trkpt>
      <trkpt lat="46.9499" lon="0.6139">
        <ele>63.900001525879</ele>
        <time>2020-02-16T09:53:46Z</time>
      </trkpt>
      <trkpt lat="46.95003" lon="0.61387">
        <ele>62.900001525879</ele>
        <time>2020-02-16T09:53:54Z</time>
      </trkpt>
      <trkpt lat="46.95011" lon="0.61384">
        <ele>62.900001525879</ele>
        <time>2020-02-16T09:53:59Z</time>
      </trkpt>
      <trkpt lat="46.95013" lon="0.61383">
        <ele>63.900001525879</ele>
        <time>2020-02-16T09:54:00Z</time>
      </trkpt>
      <trkpt lat="46.95023" lon="0.61373">
        <ele>62.900001525879</ele>
        <time>2020-02-16T09:54:07Z</time>
      </trkpt>
      <trkpt lat="46.95028" lon="0.61365">
        <ele>61.900001525879</ele>
        <time>2020-02-16T09:54:12Z</time>
      </trkpt>
      <trkpt lat="46.95037" lon="0.61342">
        <ele>62.900001525879</ele>
        <time>2020-02-16T09:54:23Z</time>
      </trkpt>
      <trkpt lat="46.95044" lon="0.61325">
        <ele>65.900001525879</ele>
        <time>2020-02-16T09:54:31Z</time>
      </trkpt>
      <trkpt lat="46.95053" lon="0.61306">
        <ele>64.900001525879</ele>
        <time>2020-02-16T09:54:41Z</time>
      </trkpt>
      <trkpt lat="46.95063" lon="0.61289">
        <ele>64.900001525879</ele>
        <time>2020-02-16T09:54:50Z</time>
      </trkpt>
      <trkpt lat="46.95074" lon="0.61272">
        <ele>63.900001525879</ele>
        <time>2020-02-16T09:54:59Z</time>
      </trkpt>
      <trkpt lat="46.95087" lon="0.61252">
        <ele>59.900001525879</ele>
        <time>2020-02-16T09:55:11Z</time>
      </trkpt>
      <trkpt lat="46.95101" lon="0.61234">
        <ele>58.900001525879</ele>
        <time>2020-02-16T09:55:22Z</time>
      </trkpt>
      <trkpt lat="46.95113" lon="0.61217">
        <ele>57.900001525879</ele>
        <time>2020-02-16T09:55:32Z</time>
      </trkpt>
      <trkpt lat="46.95126" lon="0.612">
        <ele>57.900001525879</ele>
        <time>2020-02-16T09:55:43Z</time>
      </trkpt>
      <trkpt lat="46.95138" lon="0.61184">
        <ele>58.900001525879</ele>
        <time>2020-02-16T09:55:53Z</time>
      </trkpt>
      <trkpt lat="46.9515" lon="0.61168">
        <ele>58.900001525879</ele>
        <time>2020-02-16T09:56:03Z</time>
      </trkpt>
      <trkpt lat="46.95161" lon="0.61152">
        <ele>55.900001525879</ele>
        <time>2020-02-16T09:56:12Z</time>
      </trkpt>
      <trkpt lat="46.95172" lon="0.61136">
        <ele>54.900001525879</ele>
        <time>2020-02-16T09:56:22Z</time>
      </trkpt>
      <trkpt lat="46.95185" lon="0.61119">
        <ele>54.900001525879</ele>
        <time>2020-02-16T09:56:32Z</time>
      </trkpt>
      <trkpt lat="46.95197" lon="0.61104">
        <ele>53.900001525879</ele>
        <time>2020-02-16T09:56:42Z</time>
      </trkpt>
      <trkpt lat="46.9521" lon="0.61089">
        <ele>54.900001525879</ele>
        <time>2020-02-16T09:56:52Z</time>
      </trkpt>
      <trkpt lat="46.95223" lon="0.61076">
        <ele>54.900001525879</ele>
        <time>2020-02-16T09:57:02Z</time>
      </trkpt>
      <trkpt lat="46.95237" lon="0.61064">
        <ele>54.900001525879</ele>
        <time>2020-02-16T09:57:12Z</time>
      </trkpt>
      <trkpt lat="46.95252" lon="0.61055">
        <ele>55.900001525879</ele>
        <time>2020-02-16T09:57:22Z</time>
      </trkpt>
      <trkpt lat="46.95268" lon="0.61045">
        <ele>54.900001525879</ele>
        <time>2020-02-16T09:57:32Z</time>
      </trkpt>
      <trkpt lat="46.95284" lon="0.61037">
        <ele>54.900001525879</ele>
        <time>2020-02-16T09:57:43Z</time>
      </trkpt>
      <trkpt lat="46.953" lon="0.61033">
        <ele>55.900001525879</ele>
        <time>2020-02-16T09:57:54Z</time>
      </trkpt>
      <trkpt lat="46.95316" lon="0.61031">
        <ele>54.900001525879</ele>
        <time>2020-02-16T09:58:04Z</time>
      </trkpt>
      <trkpt lat="46.95319" lon="0.6103">
        <ele>55.900001525879</ele>
        <time>2020-02-16T09:58:06Z</time>
      </trkpt>
      <trkpt lat="46.95335" lon="0.61029">
        <ele>56.900001525879</ele>
        <time>2020-02-16T09:58:16Z</time>
      </trkpt>
      <trkpt lat="46.9535" lon="0.61028">
        <ele>57.900001525879</ele>
        <time>2020-02-16T09:58:26Z</time>
      </trkpt>
      <trkpt lat="46.95367" lon="0.61027">
        <ele>57.900001525879</ele>
        <time>2020-02-16T09:58:36Z</time>
      </trkpt>
      <trkpt lat="46.95383" lon="0.61026">
        <ele>58.900001525879</ele>
        <time>2020-02-16T09:58:46Z</time>
      </trkpt>
      <trkpt lat="46.95396" lon="0.61025">
        <ele>60.900001525879</ele>
        <time>2020-02-16T09:58:54Z</time>
      </trkpt>
      <trkpt lat="46.95412" lon="0.61023">
        <ele>58.900001525879</ele>
        <time>2020-02-16T09:59:05Z</time>
      </trkpt>
      <trkpt lat="46.95428" lon="0.61022">
        <ele>58.900001525879</ele>
        <time>2020-02-16T09:59:15Z</time>
      </trkpt>
      <trkpt lat="46.95444" lon="0.61021">
        <ele>57.900001525879</ele>
        <time>2020-02-16T09:59:25Z</time>
      </trkpt>
      <trkpt lat="46.95461" lon="0.61021">
        <ele>56.900001525879</ele>
        <time>2020-02-16T09:59:36Z</time>
      </trkpt>
      <trkpt lat="46.95477" lon="0.6102">
        <ele>56.900001525879</ele>
        <time>2020-02-16T09:59:46Z</time>
      </trkpt>
      <trkpt lat="46.95493" lon="0.61019">
        <ele>57.900001525879</ele>
        <time>2020-02-16T09:59:56Z</time>
      </trkpt>
      <trkpt lat="46.95509" lon="0.61018">
        <ele>57.900001525879</ele>
        <time>2020-02-16T10:00:07Z</time>
      </trkpt>
      <trkpt lat="46.95525" lon="0.61017">
        <ele>56.900001525879</ele>
        <time>2020-02-16T10:00:17Z</time>
      </trkpt>
      <trkpt lat="46.95542" lon="0.61015">
        <ele>56.900001525879</ele>
        <time>2020-02-16T10:00:27Z</time>
      </trkpt>
      <trkpt lat="46.95552" lon="0.61012">
        <ele>58.900001525879</ele>
        <time>2020-02-16T10:00:33Z</time>
      </trkpt>
      <trkpt lat="46.95569" lon="0.61011">
        <ele>57.900001525879</ele>
        <time>2020-02-16T10:00:43Z</time>
      </trkpt>
      <trkpt lat="46.95585" lon="0.61006">
        <ele>57.900001525879</ele>
        <time>2020-02-16T10:00:54Z</time>
      </trkpt>
      <trkpt lat="46.95601" lon="0.61001">
        <ele>58.900001525879</ele>
        <time>2020-02-16T10:01:04Z</time>
      </trkpt>
      <trkpt lat="46.95609" lon="0.61">
        <ele>56.900001525879</ele>
        <time>2020-02-16T10:01:10Z</time>
      </trkpt>
      <trkpt lat="46.95626" lon="0.60992">
        <ele>52.900001525879</ele>
        <time>2020-02-16T10:01:21Z</time>
      </trkpt>
      <trkpt lat="46.9564" lon="0.60983">
        <ele>52.900001525879</ele>
        <time>2020-02-16T10:01:31Z</time>
      </trkpt>
      <trkpt lat="46.95647" lon="0.60978">
        <ele>52.900001525879</ele>
        <time>2020-02-16T10:01:36Z</time>
      </trkpt>
      <trkpt lat="46.95659" lon="0.60974">
        <ele>53.900001525879</ele>
        <time>2020-02-16T10:01:44Z</time>
      </trkpt>
      <trkpt lat="46.95665" lon="0.60973">
        <ele>51.900001525879</ele>
        <time>2020-02-16T10:01:48Z</time>
      </trkpt>
      <trkpt lat="46.95667" lon="0.60971">
        <ele>51.900001525879</ele>
        <time>2020-02-16T10:01:50Z</time>
      </trkpt>
      <trkpt lat="46.95674" lon="0.60964">
        <ele>50.900001525879</ele>
        <time>2020-02-16T10:01:55Z</time>
      </trkpt>
      <trkpt lat="46.95676" lon="0.60961">
        <ele>50.900001525879</ele>
        <time>2020-02-16T10:01:57Z</time>
      </trkpt>
      <trkpt lat="46.95679" lon="0.60954">
        <ele>49.900001525879</ele>
        <time>2020-02-16T10:02:00Z</time>
      </trkpt>
      <trkpt lat="46.9568" lon="0.60952">
        <ele>49.900001525879</ele>
        <time>2020-02-16T10:02:01Z</time>
      </trkpt>
      <trkpt lat="46.95685" lon="0.60946">
        <ele>48.900001525879</ele>
        <time>2020-02-16T10:02:05Z</time>
      </trkpt>
      <trkpt lat="46.95688" lon="0.60942">
        <ele>48.900001525879</ele>
        <time>2020-02-16T10:02:07Z</time>
      </trkpt>
      <trkpt lat="46.95689" lon="0.6094">
        <ele>48.900001525879</ele>
        <time>2020-02-16T10:02:08Z</time>
      </trkpt>
      <trkpt lat="46.95692" lon="0.60938">
        <ele>49.900001525879</ele>
        <time>2020-02-16T10:02:10Z</time>
      </trkpt>
      <trkpt lat="46.95696" lon="0.60938">
        <ele>52.900001525879</ele>
        <time>2020-02-16T10:02:13Z</time>
      </trkpt>
      <trkpt lat="46.95703" lon="0.60935">
        <ele>54.900001525879</ele>
        <time>2020-02-16T10:02:17Z</time>
      </trkpt>
      <trkpt lat="46.95705" lon="0.60935">
        <ele>54.900001525879</ele>
        <time>2020-02-16T10:02:18Z</time>
      </trkpt>
      <trkpt lat="46.95707" lon="0.60935">
        <ele>55.900001525879</ele>
        <time>2020-02-16T10:02:19Z</time>
      </trkpt>
      <trkpt lat="46.95718" lon="0.60938">
        <ele>56.900001525879</ele>
        <time>2020-02-16T10:02:25Z</time>
      </trkpt>
      <trkpt lat="46.9573" lon="0.60938">
        <ele>59.900001525879</ele>
        <time>2020-02-16T10:02:31Z</time>
      </trkpt>
      <trkpt lat="46.95736" lon="0.60939">
        <ele>58.900001525879</ele>
        <time>2020-02-16T10:02:34Z</time>
      </trkpt>
      <trkpt lat="46.95752" lon="0.60939">
        <ele>59.900001525879</ele>
        <time>2020-02-16T10:02:44Z</time>
      </trkpt>
      <trkpt lat="46.95755" lon="0.60939">
        <ele>60.900001525879</ele>
        <time>2020-02-16T10:02:46Z</time>
      </trkpt>
      <trkpt lat="46.95771" lon="0.60937">
        <ele>63.900001525879</ele>
        <time>2020-02-16T10:02:56Z</time>
      </trkpt>
      <trkpt lat="46.95776" lon="0.60939">
        <ele>64.900001525879</ele>
        <time>2020-02-16T10:02:59Z</time>
      </trkpt>
      <trkpt lat="46.95789" lon="0.6094">
        <ele>62.900001525879</ele>
        <time>2020-02-16T10:03:06Z</time>
      </trkpt>
      <trkpt lat="46.95804" lon="0.60939">
        <ele>59.900001525879</ele>
        <time>2020-02-16T10:03:14Z</time>
      </trkpt>
      <trkpt lat="46.95815" lon="0.60937">
        <ele>59.900001525879</ele>
        <time>2020-02-16T10:03:20Z</time>
      </trkpt>
      <trkpt lat="46.95819" lon="0.60935">
        <ele>59.900001525879</ele>
        <time>2020-02-16T10:03:23Z</time>
      </trkpt>
      <trkpt lat="46.95821" lon="0.60935">
        <ele>59.900001525879</ele>
        <time>2020-02-16T10:03:24Z</time>
      </trkpt>
      <trkpt lat="46.95831" lon="0.60935">
        <ele>57.900001525879</ele>
        <time>2020-02-16T10:03:30Z</time>
      </trkpt>
      <trkpt lat="46.95848" lon="0.60937">
        <ele>57.900001525879</ele>
        <time>2020-02-16T10:03:40Z</time>
      </trkpt>
      <trkpt lat="46.95864" lon="0.60936">
        <ele>57.900001525879</ele>
        <time>2020-02-16T10:03:49Z</time>
      </trkpt>
      <trkpt lat="46.95882" lon="0.60933">
        <ele>57.900001525879</ele>
        <time>2020-02-16T10:03:59Z</time>
      </trkpt>
      <trkpt lat="46.95898" lon="0.60931">
        <ele>57.900001525879</ele>
        <time>2020-02-16T10:04:09Z</time>
      </trkpt>
      <trkpt lat="46.95914" lon="0.60929">
        <ele>56.900001525879</ele>
        <time>2020-02-16T10:04:18Z</time>
      </trkpt>
      <trkpt lat="46.9593" lon="0.6093">
        <ele>56.900001525879</ele>
        <time>2020-02-16T10:04:27Z</time>
      </trkpt>
      <trkpt lat="46.95946" lon="0.60929">
        <ele>56.900001525879</ele>
        <time>2020-02-16T10:04:36Z</time>
      </trkpt>
      <trkpt lat="46.95952" lon="0.60927">
        <ele>56.900001525879</ele>
        <time>2020-02-16T10:04:40Z</time>
      </trkpt>
      <trkpt lat="46.95969" lon="0.60927">
        <ele>55.900001525879</ele>
        <time>2020-02-16T10:04:49Z</time>
      </trkpt>
      <trkpt lat="46.95985" lon="0.6093">
        <ele>56.900001525879</ele>
        <time>2020-02-16T10:04:58Z</time>
      </trkpt>
      <trkpt lat="46.95995" lon="0.60931">
        <ele>56.900001525879</ele>
        <time>2020-02-16T10:05:04Z</time>
      </trkpt>
      <trkpt lat="46.95997" lon="0.60931">
        <ele>56.900001525879</ele>
        <time>2020-02-16T10:05:05Z</time>
      </trkpt>
      <trkpt lat="46.96012" lon="0.60929">
        <ele>56.900001525879</ele>
        <time>2020-02-16T10:05:14Z</time>
      </trkpt>
      <trkpt lat="46.96021" lon="0.60931">
        <ele>56.900001525879</ele>
        <time>2020-02-16T10:05:19Z</time>
      </trkpt>
      <trkpt lat="46.96037" lon="0.60931">
        <ele>56.900001525879</ele>
        <time>2020-02-16T10:05:28Z</time>
      </trkpt>
      <trkpt lat="46.96052" lon="0.60931">
        <ele>57.900001525879</ele>
        <time>2020-02-16T10:05:37Z</time>
      </trkpt>
      <trkpt lat="46.96069" lon="0.6093">
        <ele>57.900001525879</ele>
        <time>2020-02-16T10:05:47Z</time>
      </trkpt>
      <trkpt lat="46.96085" lon="0.60931">
        <ele>56.900001525879</ele>
        <time>2020-02-16T10:05:57Z</time>
      </trkpt>
      <trkpt lat="46.96097" lon="0.60931">
        <ele>59.900001525879</ele>
        <time>2020-02-16T10:06:04Z</time>
      </trkpt>
      <trkpt lat="46.96115" lon="0.60931">
        <ele>58.900001525879</ele>
        <time>2020-02-16T10:06:14Z</time>
      </trkpt>
      <trkpt lat="46.96129" lon="0.60932">
        <ele>55.900001525879</ele>
        <time>2020-02-16T10:06:23Z</time>
      </trkpt>
      <trkpt lat="46.96145" lon="0.60931">
        <ele>55.900001525879</ele>
        <time>2020-02-16T10:06:33Z</time>
      </trkpt>
      <trkpt lat="46.96161" lon="0.60931">
        <ele>55.900001525879</ele>
        <time>2020-02-16T10:06:43Z</time>
      </trkpt>
      <trkpt lat="46.96164" lon="0.60931">
        <ele>55.900001525879</ele>
        <time>2020-02-16T10:06:45Z</time>
      </trkpt>
      <trkpt lat="46.96165" lon="0.60928">
        <ele>56.900001525879</ele>
        <time>2020-02-16T10:06:48Z</time>
      </trkpt>
      <trkpt lat="46.96168" lon="0.60929">
        <ele>56.900001525879</ele>
        <time>2020-02-16T10:09:03Z</time>
      </trkpt>
      <trkpt lat="46.96171" lon="0.60931">
        <ele>55.900001525879</ele>
        <time>2020-02-16T10:09:05Z</time>
      </trkpt>
      <trkpt lat="46.96178" lon="0.60931">
        <ele>54.900001525879</ele>
        <time>2020-02-16T10:09:11Z</time>
      </trkpt>
      <trkpt lat="46.96184" lon="0.60931">
        <ele>53.900001525879</ele>
        <time>2020-02-16T10:09:16Z</time>
      </trkpt>
      <trkpt lat="46.96187" lon="0.60932">
        <ele>53.900001525879</ele>
        <time>2020-02-16T10:09:18Z</time>
      </trkpt>
      <trkpt lat="46.96202" lon="0.60931">
        <ele>52.900001525879</ele>
        <time>2020-02-16T10:09:29Z</time>
      </trkpt>
      <trkpt lat="46.96206" lon="0.60931">
        <ele>52.900001525879</ele>
        <time>2020-02-16T10:09:32Z</time>
      </trkpt>
      <trkpt lat="46.96221" lon="0.60932">
        <ele>52.900001525879</ele>
        <time>2020-02-16T10:09:43Z</time>
      </trkpt>
      <trkpt lat="46.96237" lon="0.60932">
        <ele>52.900001525879</ele>
        <time>2020-02-16T10:09:55Z</time>
      </trkpt>
      <trkpt lat="46.96253" lon="0.60931">
        <ele>52.900001525879</ele>
        <time>2020-02-16T10:10:06Z</time>
      </trkpt>
      <trkpt lat="46.96258" lon="0.60931">
        <ele>54.900001525879</ele>
        <time>2020-02-16T10:10:10Z</time>
      </trkpt>
      <trkpt lat="46.96275" lon="0.60931">
        <ele>53.900001525879</ele>
        <time>2020-02-16T10:10:21Z</time>
      </trkpt>
      <trkpt lat="46.96291" lon="0.60931">
        <ele>54.900001525879</ele>
        <time>2020-02-16T10:10:32Z</time>
      </trkpt>
      <trkpt lat="46.96307" lon="0.6093">
        <ele>54.900001525879</ele>
        <time>2020-02-16T10:10:43Z</time>
      </trkpt>
      <trkpt lat="46.96323" lon="0.60931">
        <ele>55.900001525879</ele>
        <time>2020-02-16T10:10:53Z</time>
      </trkpt>
      <trkpt lat="46.96339" lon="0.60932">
        <ele>55.900001525879</ele>
        <time>2020-02-16T10:11:04Z</time>
      </trkpt>
      <trkpt lat="46.96355" lon="0.60931">
        <ele>55.900001525879</ele>
        <time>2020-02-16T10:11:14Z</time>
      </trkpt>
      <trkpt lat="46.96371" lon="0.60932">
        <ele>54.900001525879</ele>
        <time>2020-02-16T10:11:24Z</time>
      </trkpt>
      <trkpt lat="46.96387" lon="0.60932">
        <ele>54.900001525879</ele>
        <time>2020-02-16T10:11:35Z</time>
      </trkpt>
      <trkpt lat="46.96404" lon="0.60932">
        <ele>53.900001525879</ele>
        <time>2020-02-16T10:11:46Z</time>
      </trkpt>
      <trkpt lat="46.96422" lon="0.60932">
        <ele>53.900001525879</ele>
        <time>2020-02-16T10:11:57Z</time>
      </trkpt>
      <trkpt lat="46.96437" lon="0.60932">
        <ele>52.900001525879</ele>
        <time>2020-02-16T10:12:07Z</time>
      </trkpt>
      <trkpt lat="46.96454" lon="0.60931">
        <ele>52.900001525879</ele>
        <time>2020-02-16T10:12:19Z</time>
      </trkpt>
      <trkpt lat="46.96464" lon="0.60929">
        <ele>53.900001525879</ele>
        <time>2020-02-16T10:12:25Z</time>
      </trkpt>
      <trkpt lat="46.96481" lon="0.6093">
        <ele>52.900001525879</ele>
        <time>2020-02-16T10:12:35Z</time>
      </trkpt>
      <trkpt lat="46.96487" lon="0.60931">
        <ele>52.900001525879</ele>
        <time>2020-02-16T10:12:39Z</time>
      </trkpt>
      <trkpt lat="46.96503" lon="0.6093">
        <ele>51.900001525879</ele>
        <time>2020-02-16T10:12:50Z</time>
      </trkpt>
      <trkpt lat="46.9652" lon="0.60929">
        <ele>52.900001525879</ele>
        <time>2020-02-16T10:13:00Z</time>
      </trkpt>
      <trkpt lat="46.96537" lon="0.60928">
        <ele>53.900001525879</ele>
        <time>2020-02-16T10:13:11Z</time>
      </trkpt>
      <trkpt lat="46.96553" lon="0.60926">
        <ele>52.900001525879</ele>
        <time>2020-02-16T10:13:21Z</time>
      </trkpt>
      <trkpt lat="46.96569" lon="0.60926">
        <ele>51.900001525879</ele>
        <time>2020-02-16T10:13:32Z</time>
      </trkpt>
      <trkpt lat="46.96583" lon="0.60927">
        <ele>51.900001525879</ele>
        <time>2020-02-16T10:13:41Z</time>
      </trkpt>
      <trkpt lat="46.96591" lon="0.60925">
        <ele>51.900001525879</ele>
        <time>2020-02-16T10:13:46Z</time>
      </trkpt>
      <trkpt lat="46.96607" lon="0.60926">
        <ele>52.900001525879</ele>
        <time>2020-02-16T10:13:57Z</time>
      </trkpt>
      <trkpt lat="46.96616" lon="0.60926">
        <ele>52.900001525879</ele>
        <time>2020-02-16T10:14:03Z</time>
      </trkpt>
      <trkpt lat="46.96631" lon="0.60924">
        <ele>53.900001525879</ele>
        <time>2020-02-16T10:14:13Z</time>
      </trkpt>
      <trkpt lat="46.96643" lon="0.60924">
        <ele>54.900001525879</ele>
        <time>2020-02-16T10:14:21Z</time>
      </trkpt>
      <trkpt lat="46.9665" lon="0.60923">
        <ele>53.900001525879</ele>
        <time>2020-02-16T10:14:29Z</time>
      </trkpt>
      <trkpt lat="46.96664" lon="0.6092">
        <ele>52.900001525879</ele>
        <time>2020-02-16T10:14:40Z</time>
      </trkpt>
      <trkpt lat="46.96666" lon="0.60919">
        <ele>53.900001525879</ele>
        <time>2020-02-16T10:14:42Z</time>
      </trkpt>
      <trkpt lat="46.96669" lon="0.60918">
        <ele>53.900001525879</ele>
        <time>2020-02-16T10:14:44Z</time>
      </trkpt>
      <trkpt lat="46.96672" lon="0.60919">
        <ele>53.900001525879</ele>
        <time>2020-02-16T10:14:46Z</time>
      </trkpt>
      <trkpt lat="46.96679" lon="0.60918">
        <ele>53.900001525879</ele>
        <time>2020-02-16T10:14:51Z</time>
      </trkpt>
      <trkpt lat="46.96693" lon="0.60916">
        <ele>54.900001525879</ele>
        <time>2020-02-16T10:15:01Z</time>
      </trkpt>
      <trkpt lat="46.96699" lon="0.60914">
        <ele>53.900001525879</ele>
        <time>2020-02-16T10:15:05Z</time>
      </trkpt>
      <trkpt lat="46.96707" lon="0.60913">
        <ele>54.900001525879</ele>
        <time>2020-02-16T10:15:11Z</time>
      </trkpt>
      <trkpt lat="46.96711" lon="0.60913">
        <ele>53.900001525879</ele>
        <time>2020-02-16T10:15:14Z</time>
      </trkpt>
      <trkpt lat="46.96727" lon="0.6091">
        <ele>53.900001525879</ele>
        <time>2020-02-16T10:15:25Z</time>
      </trkpt>
      <trkpt lat="46.96737" lon="0.6091">
        <ele>52.900001525879</ele>
        <time>2020-02-16T10:15:32Z</time>
      </trkpt>
      <trkpt lat="46.96755" lon="0.60906">
        <ele>54.900001525879</ele>
        <time>2020-02-16T10:15:45Z</time>
      </trkpt>
      <trkpt lat="46.96759" lon="0.60906">
        <ele>54.900001525879</ele>
        <time>2020-02-16T10:15:48Z</time>
      </trkpt>
      <trkpt lat="46.96764" lon="0.60908">
        <ele>55.900001525879</ele>
        <time>2020-02-16T10:15:51Z</time>
      </trkpt>
      <trkpt lat="46.96766" lon="0.60908">
        <ele>55.900001525879</ele>
        <time>2020-02-16T10:15:53Z</time>
      </trkpt>
      <trkpt lat="46.96769" lon="0.60907">
        <ele>54.900001525879</ele>
        <time>2020-02-16T10:15:55Z</time>
      </trkpt>
      <trkpt lat="46.96773" lon="0.60905">
        <ele>55.900001525879</ele>
        <time>2020-02-16T10:15:58Z</time>
      </trkpt>
      <trkpt lat="46.96786" lon="0.60903">
        <ele>57.900001525879</ele>
        <time>2020-02-16T10:16:07Z</time>
      </trkpt>
      <trkpt lat="46.96794" lon="0.60903">
        <ele>57.900001525879</ele>
        <time>2020-02-16T10:16:12Z</time>
      </trkpt>
      <trkpt lat="46.9681" lon="0.609">
        <ele>59.900001525879</ele>
        <time>2020-02-16T10:16:23Z</time>
      </trkpt>
      <trkpt lat="46.96823" lon="0.60898">
        <ele>59.900001525879</ele>
        <time>2020-02-16T10:16:31Z</time>
      </trkpt>
      <trkpt lat="46.96835" lon="0.60899">
        <ele>57.900001525879</ele>
        <time>2020-02-16T10:16:39Z</time>
      </trkpt>
      <trkpt lat="46.96841" lon="0.60897">
        <ele>59.900001525879</ele>
        <time>2020-02-16T10:16:43Z</time>
      </trkpt>
      <trkpt lat="46.9685" lon="0.60897">
        <ele>62.900001525879</ele>
        <time>2020-02-16T10:16:49Z</time>
      </trkpt>
      <trkpt lat="46.96858" lon="0.60896">
        <ele>66.900001525879</ele>
        <time>2020-02-16T10:16:55Z</time>
      </trkpt>
      <trkpt lat="46.96867" lon="0.60895">
        <ele>70.900001525879</ele>
        <time>2020-02-16T10:17:01Z</time>
      </trkpt>
      <trkpt lat="46.96872" lon="0.60894">
        <ele>68.900001525879</ele>
        <time>2020-02-16T10:17:04Z</time>
      </trkpt>
      <trkpt lat="46.96885" lon="0.60893">
        <ele>69.900001525879</ele>
        <time>2020-02-16T10:17:12Z</time>
      </trkpt>
      <trkpt lat="46.96902" lon="0.60895">
        <ele>62.900001525879</ele>
        <time>2020-02-16T10:17:23Z</time>
      </trkpt>
      <trkpt lat="46.96908" lon="0.60895">
        <ele>59.900001525879</ele>
        <time>2020-02-16T10:17:27Z</time>
      </trkpt>
      <trkpt lat="46.96925" lon="0.60892">
        <ele>57.900001525879</ele>
        <time>2020-02-16T10:17:37Z</time>
      </trkpt>
      <trkpt lat="46.9694" lon="0.60891">
        <ele>56.900001525879</ele>
        <time>2020-02-16T10:17:47Z</time>
      </trkpt>
      <trkpt lat="46.96954" lon="0.60891">
        <ele>55.900001525879</ele>
        <time>2020-02-16T10:17:56Z</time>
      </trkpt>
      <trkpt lat="46.9697" lon="0.60888">
        <ele>54.900001525879</ele>
        <time>2020-02-16T10:18:06Z</time>
      </trkpt>
      <trkpt lat="46.96986" lon="0.60885">
        <ele>52.900001525879</ele>
        <time>2020-02-16T10:18:17Z</time>
      </trkpt>
      <trkpt lat="46.97003" lon="0.60881">
        <ele>54.900001525879</ele>
        <time>2020-02-16T10:18:28Z</time>
      </trkpt>
      <trkpt lat="46.97009" lon="0.6088">
        <ele>54.900001525879</ele>
        <time>2020-02-16T10:18:32Z</time>
      </trkpt>
      <trkpt lat="46.97013" lon="0.6088">
        <ele>53.900001525879</ele>
        <time>2020-02-16T10:18:35Z</time>
      </trkpt>
      <trkpt lat="46.97019" lon="0.60878">
        <ele>53.900001525879</ele>
        <time>2020-02-16T10:18:39Z</time>
      </trkpt>
      <trkpt lat="46.97027" lon="0.60877">
        <ele>53.900001525879</ele>
        <time>2020-02-16T10:18:44Z</time>
      </trkpt>
      <trkpt lat="46.97043" lon="0.60872">
        <ele>53.900001525879</ele>
        <time>2020-02-16T10:18:55Z</time>
      </trkpt>
      <trkpt lat="46.97061" lon="0.60867">
        <ele>52.900001525879</ele>
        <time>2020-02-16T10:19:07Z</time>
      </trkpt>
      <trkpt lat="46.97076" lon="0.60862">
        <ele>52.900001525879</ele>
        <time>2020-02-16T10:19:17Z</time>
      </trkpt>
      <trkpt lat="46.97079" lon="0.60861">
        <ele>52.900001525879</ele>
        <time>2020-02-16T10:19:19Z</time>
      </trkpt>
      <trkpt lat="46.97089" lon="0.60854">
        <ele>54.900001525879</ele>
        <time>2020-02-16T10:19:26Z</time>
      </trkpt>
      <trkpt lat="46.97099" lon="0.60851">
        <ele>54.900001525879</ele>
        <time>2020-02-16T10:19:33Z</time>
      </trkpt>
      <trkpt lat="46.97104" lon="0.6085">
        <ele>54.900001525879</ele>
        <time>2020-02-16T10:19:37Z</time>
      </trkpt>
      <trkpt lat="46.9711" lon="0.6085">
        <ele>54.900001525879</ele>
        <time>2020-02-16T10:19:41Z</time>
      </trkpt>
      <trkpt lat="46.9712" lon="0.60849">
        <ele>55.900001525879</ele>
        <time>2020-02-16T10:19:47Z</time>
      </trkpt>
      <trkpt lat="46.97127" lon="0.60846">
        <ele>54.900001525879</ele>
        <time>2020-02-16T10:19:52Z</time>
      </trkpt>
      <trkpt lat="46.97139" lon="0.60844">
        <ele>55.900001525879</ele>
        <time>2020-02-16T10:20:00Z</time>
      </trkpt>
      <trkpt lat="46.97153" lon="0.60836">
        <ele>56.900001525879</ele>
        <time>2020-02-16T10:20:10Z</time>
      </trkpt>
      <trkpt lat="46.97169" lon="0.60832">
        <ele>57.900001525879</ele>
        <time>2020-02-16T10:20:20Z</time>
      </trkpt>
      <trkpt lat="46.97185" lon="0.60827">
        <ele>56.900001525879</ele>
        <time>2020-02-16T10:20:31Z</time>
      </trkpt>
      <trkpt lat="46.97192" lon="0.60826">
        <ele>55.900001525879</ele>
        <time>2020-02-16T10:20:35Z</time>
      </trkpt>
      <trkpt lat="46.97208" lon="0.6082">
        <ele>56.900001525879</ele>
        <time>2020-02-16T10:20:45Z</time>
      </trkpt>
      <trkpt lat="46.97224" lon="0.60814">
        <ele>54.900001525879</ele>
        <time>2020-02-16T10:20:55Z</time>
      </trkpt>
      <trkpt lat="46.97233" lon="0.60812">
        <ele>55.900001525879</ele>
        <time>2020-02-16T10:21:01Z</time>
      </trkpt>
      <trkpt lat="46.9725" lon="0.60814">
        <ele>55.900001525879</ele>
        <time>2020-02-16T10:21:11Z</time>
      </trkpt>
      <trkpt lat="46.97253" lon="0.60816">
        <ele>54.900001525879</ele>
        <time>2020-02-16T10:21:13Z</time>
      </trkpt>
      <trkpt lat="46.97256" lon="0.60818">
        <ele>55.900001525879</ele>
        <time>2020-02-16T10:21:15Z</time>
      </trkpt>
      <trkpt lat="46.97259" lon="0.60825">
        <ele>53.900001525879</ele>
        <time>2020-02-16T10:21:19Z</time>
      </trkpt>
      <trkpt lat="46.97262" lon="0.60848">
        <ele>51.900001525879</ele>
        <time>2020-02-16T10:21:29Z</time>
      </trkpt>
      <trkpt lat="46.97263" lon="0.60864">
        <ele>53.900001525879</ele>
        <time>2020-02-16T10:21:37Z</time>
      </trkpt>
      <trkpt lat="46.97267" lon="0.60886">
        <ele>55.900001525879</ele>
        <time>2020-02-16T10:21:47Z</time>
      </trkpt>
      <trkpt lat="46.97271" lon="0.60909">
        <ele>55.900001525879</ele>
        <time>2020-02-16T10:21:57Z</time>
      </trkpt>
      <trkpt lat="46.97274" lon="0.6093">
        <ele>55.900001525879</ele>
        <time>2020-02-16T10:22:07Z</time>
      </trkpt>
      <trkpt lat="46.97277" lon="0.60946">
        <ele>55.900001525879</ele>
        <time>2020-02-16T10:22:14Z</time>
      </trkpt>
      <trkpt lat="46.97279" lon="0.60966">
        <ele>58.900001525879</ele>
        <time>2020-02-16T10:22:24Z</time>
      </trkpt>
      <trkpt lat="46.97281" lon="0.60981">
        <ele>59.900001525879</ele>
        <time>2020-02-16T10:22:31Z</time>
      </trkpt>
      <trkpt lat="46.97283" lon="0.61005">
        <ele>60.900001525879</ele>
        <time>2020-02-16T10:22:42Z</time>
      </trkpt>
      <trkpt lat="46.97284" lon="0.61019">
        <ele>61.900001525879</ele>
        <time>2020-02-16T10:22:49Z</time>
      </trkpt>
      <trkpt lat="46.97288" lon="0.61045">
        <ele>65.900001525879</ele>
        <time>2020-02-16T10:23:02Z</time>
      </trkpt>
      <trkpt lat="46.97288" lon="0.61049">
        <ele>65.900001525879</ele>
        <time>2020-02-16T10:23:04Z</time>
      </trkpt>
      <trkpt lat="46.9729" lon="0.61075">
        <ele>67.900001525879</ele>
        <time>2020-02-16T10:23:16Z</time>
      </trkpt>
      <trkpt lat="46.97289" lon="0.61097">
        <ele>68.900001525879</ele>
        <time>2020-02-16T10:23:27Z</time>
      </trkpt>
      <trkpt lat="46.97289" lon="0.61101">
        <ele>67.900001525879</ele>
        <time>2020-02-16T10:23:29Z</time>
      </trkpt>
      <trkpt lat="46.97289" lon="0.61125">
        <ele>68.900001525879</ele>
        <time>2020-02-16T10:23:39Z</time>
      </trkpt>
      <trkpt lat="46.97286" lon="0.61139">
        <ele>68.900001525879</ele>
        <time>2020-02-16T10:23:45Z</time>
      </trkpt>
      <trkpt lat="46.97284" lon="0.61145">
        <ele>69.900001525879</ele>
        <time>2020-02-16T10:23:48Z</time>
      </trkpt>
      <trkpt lat="46.97282" lon="0.61169">
        <ele>70.900001525879</ele>
        <time>2020-02-16T10:23:59Z</time>
      </trkpt>
      <trkpt lat="46.97282" lon="0.61177">
        <ele>71.900001525879</ele>
        <time>2020-02-16T10:24:03Z</time>
      </trkpt>
      <trkpt lat="46.97282" lon="0.61183">
        <ele>71.900001525879</ele>
        <time>2020-02-16T10:24:06Z</time>
      </trkpt>
      <trkpt lat="46.97281" lon="0.61192">
        <ele>71.900001525879</ele>
        <time>2020-02-16T10:24:10Z</time>
      </trkpt>
      <trkpt lat="46.97281" lon="0.6121">
        <ele>72.900001525879</ele>
        <time>2020-02-16T10:24:18Z</time>
      </trkpt>
      <trkpt lat="46.9728" lon="0.61222">
        <ele>72.900001525879</ele>
        <time>2020-02-16T10:24:24Z</time>
      </trkpt>
      <trkpt lat="46.97279" lon="0.61243">
        <ele>74.900001525879</ele>
        <time>2020-02-16T10:24:34Z</time>
      </trkpt>
      <trkpt lat="46.97278" lon="0.61265">
        <ele>73.900001525879</ele>
        <time>2020-02-16T10:24:43Z</time>
      </trkpt>
      <trkpt lat="46.97278" lon="0.6127">
        <ele>73.900001525879</ele>
        <time>2020-02-16T10:24:45Z</time>
      </trkpt>
      <trkpt lat="46.97277" lon="0.61286">
        <ele>74.900001525879</ele>
        <time>2020-02-16T10:24:53Z</time>
      </trkpt>
      <trkpt lat="46.97276" lon="0.61291">
        <ele>75.900001525879</ele>
        <time>2020-02-16T10:24:56Z</time>
      </trkpt>
      <trkpt lat="46.97276" lon="0.61302">
        <ele>75.900001525879</ele>
        <time>2020-02-16T10:25:02Z</time>
      </trkpt>
      <trkpt lat="46.97277" lon="0.61323">
        <ele>75.900001525879</ele>
        <time>2020-02-16T10:25:11Z</time>
      </trkpt>
      <trkpt lat="46.97278" lon="0.61346">
        <ele>75.900001525879</ele>
        <time>2020-02-16T10:25:21Z</time>
      </trkpt>
      <trkpt lat="46.97278" lon="0.61369">
        <ele>75.900001525879</ele>
        <time>2020-02-16T10:25:31Z</time>
      </trkpt>
      <trkpt lat="46.97278" lon="0.61377">
        <ele>75.900001525879</ele>
        <time>2020-02-16T10:25:34Z</time>
      </trkpt>
      <trkpt lat="46.97277" lon="0.61384">
        <ele>75.900001525879</ele>
        <time>2020-02-16T10:25:37Z</time>
      </trkpt>
      <trkpt lat="46.97277" lon="0.61394">
        <ele>76.900001525879</ele>
        <time>2020-02-16T10:25:41Z</time>
      </trkpt>
      <trkpt lat="46.97279" lon="0.61398">
        <ele>76.900001525879</ele>
        <time>2020-02-16T10:25:43Z</time>
      </trkpt>
      <trkpt lat="46.97288" lon="0.61419">
        <ele>77.900001525879</ele>
        <time>2020-02-16T10:25:53Z</time>
      </trkpt>
      <trkpt lat="46.97291" lon="0.61426">
        <ele>76.900001525879</ele>
        <time>2020-02-16T10:25:57Z</time>
      </trkpt>
      <trkpt lat="46.97293" lon="0.61428">
        <ele>75.900001525879</ele>
        <time>2020-02-16T10:25:58Z</time>
      </trkpt>
      <trkpt lat="46.97295" lon="0.61435">
        <ele>76.900001525879</ele>
        <time>2020-02-16T10:26:03Z</time>
      </trkpt>
      <trkpt lat="46.97296" lon="0.61439">
        <ele>76.900001525879</ele>
        <time>2020-02-16T10:26:05Z</time>
      </trkpt>
      <trkpt lat="46.97297" lon="0.61443">
        <ele>76.900001525879</ele>
        <time>2020-02-16T10:26:07Z</time>
      </trkpt>
      <trkpt lat="46.97304" lon="0.61458">
        <ele>75.900001525879</ele>
        <time>2020-02-16T10:26:15Z</time>
      </trkpt>
      <trkpt lat="46.97306" lon="0.61461">
        <ele>75.900001525879</ele>
        <time>2020-02-16T10:26:17Z</time>
      </trkpt>
      <trkpt lat="46.97309" lon="0.61463">
        <ele>75.900001525879</ele>
        <time>2020-02-16T10:26:19Z</time>
      </trkpt>
      <trkpt lat="46.97311" lon="0.61466">
        <ele>76.900001525879</ele>
        <time>2020-02-16T10:26:21Z</time>
      </trkpt>
      <trkpt lat="46.97316" lon="0.61478">
        <ele>76.900001525879</ele>
        <time>2020-02-16T10:26:27Z</time>
      </trkpt>
      <trkpt lat="46.97318" lon="0.61483">
        <ele>76.900001525879</ele>
        <time>2020-02-16T10:26:30Z</time>
      </trkpt>
      <trkpt lat="46.97319" lon="0.61486">
        <ele>76.900001525879</ele>
        <time>2020-02-16T10:26:31Z</time>
      </trkpt>
      <trkpt lat="46.97325" lon="0.61502">
        <ele>75.900001525879</ele>
        <time>2020-02-16T10:26:40Z</time>
      </trkpt>
      <trkpt lat="46.97332" lon="0.61515">
        <ele>75.900001525879</ele>
        <time>2020-02-16T10:26:47Z</time>
      </trkpt>
      <trkpt lat="46.97335" lon="0.61524">
        <ele>76.900001525879</ele>
        <time>2020-02-16T10:26:54Z</time>
      </trkpt>
      <trkpt lat="46.97337" lon="0.61526">
        <ele>77.900001525879</ele>
        <time>2020-02-16T10:26:57Z</time>
      </trkpt>
      <trkpt lat="46.9734" lon="0.61531">
        <ele>82.900001525879</ele>
        <time>2020-02-16T10:27:08Z</time>
      </trkpt>
      <trkpt lat="46.97344" lon="0.61534">
        <ele>81.900001525879</ele>
        <time>2020-02-16T10:27:11Z</time>
      </trkpt>
      <trkpt lat="46.97349" lon="0.61535">
        <ele>81.900001525879</ele>
        <time>2020-02-16T10:27:16Z</time>
      </trkpt>
      <trkpt lat="46.97351" lon="0.61535">
        <ele>81.900001525879</ele>
        <time>2020-02-16T10:27:18Z</time>
      </trkpt>
      <trkpt lat="46.97364" lon="0.61537">
        <ele>77.900001525879</ele>
        <time>2020-02-16T10:27:27Z</time>
      </trkpt>
      <trkpt lat="46.97382" lon="0.61537">
        <ele>75.900001525879</ele>
        <time>2020-02-16T10:27:39Z</time>
      </trkpt>
      <trkpt lat="46.97399" lon="0.61536">
        <ele>75.900001525879</ele>
        <time>2020-02-16T10:27:50Z</time>
      </trkpt>
      <trkpt lat="46.97413" lon="0.61536">
        <ele>78.900001525879</ele>
        <time>2020-02-16T10:27:57Z</time>
      </trkpt>
      <trkpt lat="46.97428" lon="0.61534">
        <ele>79.900001525879</ele>
        <time>2020-02-16T10:28:07Z</time>
      </trkpt>
      <trkpt lat="46.97444" lon="0.61534">
        <ele>78.900001525879</ele>
        <time>2020-02-16T10:28:18Z</time>
      </trkpt>
      <trkpt lat="46.9746" lon="0.61537">
        <ele>80.900001525879</ele>
        <time>2020-02-16T10:28:28Z</time>
      </trkpt>
      <trkpt lat="46.97477" lon="0.61539">
        <ele>82.900001525879</ele>
        <time>2020-02-16T10:28:38Z</time>
      </trkpt>
      <trkpt lat="46.97493" lon="0.61543">
        <ele>83.900001525879</ele>
        <time>2020-02-16T10:28:48Z</time>
      </trkpt>
      <trkpt lat="46.97508" lon="0.61549">
        <ele>83.900001525879</ele>
        <time>2020-02-16T10:28:57Z</time>
      </trkpt>
      <trkpt lat="46.97523" lon="0.61559">
        <ele>82.900001525879</ele>
        <time>2020-02-16T10:29:07Z</time>
      </trkpt>
      <trkpt lat="46.97539" lon="0.61568">
        <ele>83.900001525879</ele>
        <time>2020-02-16T10:29:17Z</time>
      </trkpt>
      <trkpt lat="46.97554" lon="0.61579">
        <ele>84.900001525879</ele>
        <time>2020-02-16T10:29:27Z</time>
      </trkpt>
      <trkpt lat="46.97569" lon="0.61589">
        <ele>84.900001525879</ele>
        <time>2020-02-16T10:29:37Z</time>
      </trkpt>
      <trkpt lat="46.97584" lon="0.61597">
        <ele>85.900001525879</ele>
        <time>2020-02-16T10:29:47Z</time>
      </trkpt>
      <trkpt lat="46.976" lon="0.61602">
        <ele>86.900001525879</ele>
        <time>2020-02-16T10:29:56Z</time>
      </trkpt>
      <trkpt lat="46.97616" lon="0.61606">
        <ele>86.900001525879</ele>
        <time>2020-02-16T10:30:06Z</time>
      </trkpt>
      <trkpt lat="46.97632" lon="0.6161">
        <ele>89.900001525879</ele>
        <time>2020-02-16T10:30:16Z</time>
      </trkpt>
      <trkpt lat="46.97648" lon="0.61614">
        <ele>90.900001525879</ele>
        <time>2020-02-16T10:30:25Z</time>
      </trkpt>
      <trkpt lat="46.97663" lon="0.6162">
        <ele>91.900001525879</ele>
        <time>2020-02-16T10:30:36Z</time>
      </trkpt>
      <trkpt lat="46.97679" lon="0.61625">
        <ele>90.900001525879</ele>
        <time>2020-02-16T10:30:46Z</time>
      </trkpt>
      <trkpt lat="46.97695" lon="0.61631">
        <ele>90.900001525879</ele>
        <time>2020-02-16T10:30:56Z</time>
      </trkpt>
      <trkpt lat="46.97712" lon="0.61636">
        <ele>92.900001525879</ele>
        <time>2020-02-16T10:31:07Z</time>
      </trkpt>
      <trkpt lat="46.97728" lon="0.61643">
        <ele>93.900001525879</ele>
        <time>2020-02-16T10:31:17Z</time>
      </trkpt>
      <trkpt lat="46.97744" lon="0.61648">
        <ele>94.900001525879</ele>
        <time>2020-02-16T10:31:27Z</time>
      </trkpt>
      <trkpt lat="46.9776" lon="0.61655">
        <ele>95.900001525879</ele>
        <time>2020-02-16T10:31:38Z</time>
      </trkpt>
      <trkpt lat="46.97776" lon="0.61661">
        <ele>95.900001525879</ele>
        <time>2020-02-16T10:31:48Z</time>
      </trkpt>
      <trkpt lat="46.97786" lon="0.61664">
        <ele>96.900001525879</ele>
        <time>2020-02-16T10:31:55Z</time>
      </trkpt>
      <trkpt lat="46.97798" lon="0.61665">
        <ele>96.900001525879</ele>
        <time>2020-02-16T10:32:03Z</time>
      </trkpt>
      <trkpt lat="46.97814" lon="0.61669">
        <ele>97.900001525879</ele>
        <time>2020-02-16T10:32:13Z</time>
      </trkpt>
      <trkpt lat="46.97831" lon="0.61673">
        <ele>98.900001525879</ele>
        <time>2020-02-16T10:32:23Z</time>
      </trkpt>
      <trkpt lat="46.97847" lon="0.61678">
        <ele>100.90000152588</ele>
        <time>2020-02-16T10:32:33Z</time>
      </trkpt>
      <trkpt lat="46.97863" lon="0.61684">
        <ele>101.90000152588</ele>
        <time>2020-02-16T10:32:44Z</time>
      </trkpt>
      <trkpt lat="46.97879" lon="0.61694">
        <ele>101.90000152588</ele>
        <time>2020-02-16T10:32:55Z</time>
      </trkpt>
      <trkpt lat="46.97885" lon="0.61701">
        <ele>102.90000152588</ele>
        <time>2020-02-16T10:33:00Z</time>
      </trkpt>
      <trkpt lat="46.97888" lon="0.61706">
        <ele>101.90000152588</ele>
        <time>2020-02-16T10:33:03Z</time>
      </trkpt>
      <trkpt lat="46.97893" lon="0.6171">
        <ele>102.90000152588</ele>
        <time>2020-02-16T10:33:07Z</time>
      </trkpt>
      <trkpt lat="46.97905" lon="0.61724">
        <ele>104.90000152588</ele>
        <time>2020-02-16T10:33:17Z</time>
      </trkpt>
      <trkpt lat="46.97916" lon="0.61731">
        <ele>106.90000152588</ele>
        <time>2020-02-16T10:33:24Z</time>
      </trkpt>
      <trkpt lat="46.97929" lon="0.61735">
        <ele>108.90000152588</ele>
        <time>2020-02-16T10:33:32Z</time>
      </trkpt>
      <trkpt lat="46.97945" lon="0.61735">
        <ele>109.90000152588</ele>
        <time>2020-02-16T10:33:42Z</time>
      </trkpt>
      <trkpt lat="46.97951" lon="0.61735">
        <ele>110.90000152588</ele>
        <time>2020-02-16T10:33:46Z</time>
      </trkpt>
      <trkpt lat="46.97953" lon="0.61738">
        <ele>109.90000152588</ele>
        <time>2020-02-16T10:33:48Z</time>
      </trkpt>
      <trkpt lat="46.97953" lon="0.61742">
        <ele>108.90000152588</ele>
        <time>2020-02-16T10:33:50Z</time>
      </trkpt>
      <trkpt lat="46.97952" lon="0.61746">
        <ele>106.90000152588</ele>
        <time>2020-02-16T10:33:52Z</time>
      </trkpt>
      <trkpt lat="46.97949" lon="0.6175">
        <ele>106.90000152588</ele>
        <time>2020-02-16T10:33:54Z</time>
      </trkpt>
      <trkpt lat="46.97938" lon="0.61763">
        <ele>105.90000152588</ele>
        <time>2020-02-16T10:34:03Z</time>
      </trkpt>
      <trkpt lat="46.97925" lon="0.61776">
        <ele>104.90000152588</ele>
        <time>2020-02-16T10:34:12Z</time>
      </trkpt>
      <trkpt lat="46.97913" lon="0.6179">
        <ele>104.90000152588</ele>
        <time>2020-02-16T10:34:22Z</time>
      </trkpt>
      <trkpt lat="46.97902" lon="0.61805">
        <ele>105.90000152588</ele>
        <time>2020-02-16T10:34:32Z</time>
      </trkpt>
      <trkpt lat="46.97891" lon="0.61822">
        <ele>105.90000152588</ele>
        <time>2020-02-16T10:34:42Z</time>
      </trkpt>
      <trkpt lat="46.9788" lon="0.61839">
        <ele>106.90000152588</ele>
        <time>2020-02-16T10:34:52Z</time>
      </trkpt>
      <trkpt lat="46.97869" lon="0.61855">
        <ele>105.90000152588</ele>
        <time>2020-02-16T10:35:02Z</time>
      </trkpt>
      <trkpt lat="46.97858" lon="0.61872">
        <ele>106.90000152588</ele>
        <time>2020-02-16T10:35:13Z</time>
      </trkpt>
      <trkpt lat="46.9785" lon="0.61884">
        <ele>106.90000152588</ele>
        <time>2020-02-16T10:35:21Z</time>
      </trkpt>
      <trkpt lat="46.97845" lon="0.61895">
        <ele>107.90000152588</ele>
        <time>2020-02-16T10:35:27Z</time>
      </trkpt>
      <trkpt lat="46.97837" lon="0.61908">
        <ele>105.90000152588</ele>
        <time>2020-02-16T10:35:35Z</time>
      </trkpt>
      <trkpt lat="46.97832" lon="0.61924">
        <ele>105.90000152588</ele>
        <time>2020-02-16T10:35:42Z</time>
      </trkpt>
      <trkpt lat="46.97828" lon="0.61948">
        <ele>105.90000152588</ele>
        <time>2020-02-16T10:35:52Z</time>
      </trkpt>
      <trkpt lat="46.97824" lon="0.61968">
        <ele>106.90000152588</ele>
        <time>2020-02-16T10:36:01Z</time>
      </trkpt>
      <trkpt lat="46.97818" lon="0.6199">
        <ele>107.90000152588</ele>
        <time>2020-02-16T10:36:11Z</time>
      </trkpt>
      <trkpt lat="46.97815" lon="0.62002">
        <ele>107.90000152588</ele>
        <time>2020-02-16T10:36:17Z</time>
      </trkpt>
      <trkpt lat="46.9781" lon="0.62017">
        <ele>109.90000152588</ele>
        <time>2020-02-16T10:36:25Z</time>
      </trkpt>
      <trkpt lat="46.97809" lon="0.62021">
        <ele>110.90000152588</ele>
        <time>2020-02-16T10:36:27Z</time>
      </trkpt>
      <trkpt lat="46.97804" lon="0.62033">
        <ele>110.90000152588</ele>
        <time>2020-02-16T10:36:33Z</time>
      </trkpt>
      <trkpt lat="46.97796" lon="0.62042">
        <ele>109.90000152588</ele>
        <time>2020-02-16T10:36:39Z</time>
      </trkpt>
      <trkpt lat="46.97782" lon="0.62053">
        <ele>110.90000152588</ele>
        <time>2020-02-16T10:36:48Z</time>
      </trkpt>
      <trkpt lat="46.97778" lon="0.62055">
        <ele>110.90000152588</ele>
        <time>2020-02-16T10:36:50Z</time>
      </trkpt>
      <trkpt lat="46.97777" lon="0.62057">
        <ele>111.90000152588</ele>
        <time>2020-02-16T10:36:51Z</time>
      </trkpt>
      <trkpt lat="46.97762" lon="0.62064">
        <ele>112.90000152588</ele>
        <time>2020-02-16T10:36:59Z</time>
      </trkpt>
      <trkpt lat="46.97746" lon="0.62072">
        <ele>114.90000152588</ele>
        <time>2020-02-16T10:37:09Z</time>
      </trkpt>
      <trkpt lat="46.97741" lon="0.62075">
        <ele>114.90000152588</ele>
        <time>2020-02-16T10:37:12Z</time>
      </trkpt>
      <trkpt lat="46.97726" lon="0.62084">
        <ele>116.90000152588</ele>
        <time>2020-02-16T10:37:22Z</time>
      </trkpt>
      <trkpt lat="46.97715" lon="0.62092">
        <ele>118.90000152588</ele>
        <time>2020-02-16T10:37:30Z</time>
      </trkpt>
      <trkpt lat="46.97711" lon="0.62095">
        <ele>118.90000152588</ele>
        <time>2020-02-16T10:37:33Z</time>
      </trkpt>
      <trkpt lat="46.97709" lon="0.62097">
        <ele>119.90000152588</ele>
        <time>2020-02-16T10:37:35Z</time>
      </trkpt>
      <trkpt lat="46.97703" lon="0.62106">
        <ele>121.90000152588</ele>
        <time>2020-02-16T10:37:42Z</time>
      </trkpt>
      <trkpt lat="46.97689" lon="0.62116">
        <ele>124.90000152588</ele>
        <time>2020-02-16T10:37:53Z</time>
      </trkpt>
      <trkpt lat="46.97674" lon="0.62126">
        <ele>123.90000152588</ele>
        <time>2020-02-16T10:38:04Z</time>
      </trkpt>
      <trkpt lat="46.97659" lon="0.62138">
        <ele>122.90000152588</ele>
        <time>2020-02-16T10:38:15Z</time>
      </trkpt>
      <trkpt lat="46.9765" lon="0.62146">
        <ele>123.90000152588</ele>
        <time>2020-02-16T10:38:23Z</time>
      </trkpt>
      <trkpt lat="46.97643" lon="0.6215">
        <ele>121.90000152588</ele>
        <time>2020-02-16T10:38:31Z</time>
      </trkpt>
      <trkpt lat="46.97631" lon="0.6216">
        <ele>122.90000152588</ele>
        <time>2020-02-16T10:38:41Z</time>
      </trkpt>
      <trkpt lat="46.97626" lon="0.62162">
        <ele>121.90000152588</ele>
        <time>2020-02-16T10:38:44Z</time>
      </trkpt>
      <trkpt lat="46.97621" lon="0.62166">
        <ele>122.90000152588</ele>
        <time>2020-02-16T10:38:47Z</time>
      </trkpt>
      <trkpt lat="46.97615" lon="0.62169">
        <ele>121.90000152588</ele>
        <time>2020-02-16T10:38:51Z</time>
      </trkpt>
      <trkpt lat="46.976" lon="0.62179">
        <ele>120.90000152588</ele>
        <time>2020-02-16T10:39:01Z</time>
      </trkpt>
      <trkpt lat="46.97593" lon="0.62184">
        <ele>120.90000152588</ele>
        <time>2020-02-16T10:39:07Z</time>
      </trkpt>
      <trkpt lat="46.97584" lon="0.62192">
        <ele>118.90000152588</ele>
        <time>2020-02-16T10:39:14Z</time>
      </trkpt>
      <trkpt lat="46.97579" lon="0.62195">
        <ele>115.90000152588</ele>
        <time>2020-02-16T10:39:18Z</time>
      </trkpt>
      <trkpt lat="46.97565" lon="0.62205">
        <ele>113.90000152588</ele>
        <time>2020-02-16T10:39:27Z</time>
      </trkpt>
      <trkpt lat="46.97548" lon="0.62214">
        <ele>109.90000152588</ele>
        <time>2020-02-16T10:39:38Z</time>
      </trkpt>
      <trkpt lat="46.97534" lon="0.62225">
        <ele>108.90000152588</ele>
        <time>2020-02-16T10:39:49Z</time>
      </trkpt>
      <trkpt lat="46.97519" lon="0.62235">
        <ele>108.90000152588</ele>
        <time>2020-02-16T10:40:00Z</time>
      </trkpt>
      <trkpt lat="46.97507" lon="0.62245">
        <ele>107.90000152588</ele>
        <time>2020-02-16T10:40:10Z</time>
      </trkpt>
      <trkpt lat="46.97491" lon="0.62256">
        <ele>108.90000152588</ele>
        <time>2020-02-16T10:40:23Z</time>
      </trkpt>
      <trkpt lat="46.97478" lon="0.62263">
        <ele>108.90000152588</ele>
        <time>2020-02-16T10:40:32Z</time>
      </trkpt>
      <trkpt lat="46.97461" lon="0.62268">
        <ele>108.90000152588</ele>
        <time>2020-02-16T10:40:43Z</time>
      </trkpt>
      <trkpt lat="46.97458" lon="0.62268">
        <ele>108.90000152588</ele>
        <time>2020-02-16T10:40:45Z</time>
      </trkpt>
      <trkpt lat="46.97455" lon="0.62268">
        <ele>107.90000152588</ele>
        <time>2020-02-16T10:40:47Z</time>
      </trkpt>
      <trkpt lat="46.97452" lon="0.62266">
        <ele>107.90000152588</ele>
        <time>2020-02-16T10:40:49Z</time>
      </trkpt>
      <trkpt lat="46.97449" lon="0.62261">
        <ele>107.90000152588</ele>
        <time>2020-02-16T10:40:53Z</time>
      </trkpt>
      <trkpt lat="46.97447" lon="0.62257">
        <ele>107.90000152588</ele>
        <time>2020-02-16T10:40:55Z</time>
      </trkpt>
      <trkpt lat="46.97443" lon="0.62235">
        <ele>107.90000152588</ele>
        <time>2020-02-16T10:41:05Z</time>
      </trkpt>
      <trkpt lat="46.97441" lon="0.62212">
        <ele>106.90000152588</ele>
        <time>2020-02-16T10:41:16Z</time>
      </trkpt>
      <trkpt lat="46.97438" lon="0.62193">
        <ele>104.90000152588</ele>
        <time>2020-02-16T10:41:24Z</time>
      </trkpt>
      <trkpt lat="46.97438" lon="0.62189">
        <ele>103.90000152588</ele>
        <time>2020-02-16T10:41:26Z</time>
      </trkpt>
      <trkpt lat="46.97436" lon="0.62163">
        <ele>102.90000152588</ele>
        <time>2020-02-16T10:41:38Z</time>
      </trkpt>
      <trkpt lat="46.97433" lon="0.62141">
        <ele>101.90000152588</ele>
        <time>2020-02-16T10:41:48Z</time>
      </trkpt>
      <trkpt lat="46.9743" lon="0.62118">
        <ele>100.90000152588</ele>
        <time>2020-02-16T10:41:58Z</time>
      </trkpt>
      <trkpt lat="46.97429" lon="0.621">
        <ele>99.900001525879</ele>
        <time>2020-02-16T10:42:06Z</time>
      </trkpt>
      <trkpt lat="46.97429" lon="0.62078">
        <ele>98.900001525879</ele>
        <time>2020-02-16T10:42:16Z</time>
      </trkpt>
      <trkpt lat="46.9743" lon="0.62059">
        <ele>97.900001525879</ele>
        <time>2020-02-16T10:42:24Z</time>
      </trkpt>
      <trkpt lat="46.97429" lon="0.6205">
        <ele>97.900001525879</ele>
        <time>2020-02-16T10:42:28Z</time>
      </trkpt>
      <trkpt lat="46.9743" lon="0.62032">
        <ele>97.900001525879</ele>
        <time>2020-02-16T10:42:36Z</time>
      </trkpt>
      <trkpt lat="46.97427" lon="0.62007">
        <ele>96.900001525879</ele>
        <time>2020-02-16T10:42:47Z</time>
      </trkpt>
      <trkpt lat="46.97423" lon="0.61984">
        <ele>95.900001525879</ele>
        <time>2020-02-16T10:42:57Z</time>
      </trkpt>
      <trkpt lat="46.97421" lon="0.61972">
        <ele>95.900001525879</ele>
        <time>2020-02-16T10:43:02Z</time>
      </trkpt>
      <trkpt lat="46.97419" lon="0.61966">
        <ele>95.900001525879</ele>
        <time>2020-02-16T10:43:05Z</time>
      </trkpt>
      <trkpt lat="46.97417" lon="0.61959">
        <ele>95.900001525879</ele>
        <time>2020-02-16T10:43:08Z</time>
      </trkpt>
      <trkpt lat="46.97415" lon="0.61936">
        <ele>93.900001525879</ele>
        <time>2020-02-16T10:43:17Z</time>
      </trkpt>
      <trkpt lat="46.97413" lon="0.61919">
        <ele>92.900001525879</ele>
        <time>2020-02-16T10:43:24Z</time>
      </trkpt>
      <trkpt lat="46.97408" lon="0.61896">
        <ele>92.900001525879</ele>
        <time>2020-02-16T10:43:34Z</time>
      </trkpt>
      <trkpt lat="46.97405" lon="0.61874">
        <ele>91.900001525879</ele>
        <time>2020-02-16T10:43:43Z</time>
      </trkpt>
      <trkpt lat="46.97401" lon="0.61854">
        <ele>89.900001525879</ele>
        <time>2020-02-16T10:43:52Z</time>
      </trkpt>
      <trkpt lat="46.97397" lon="0.61832">
        <ele>90.900001525879</ele>
        <time>2020-02-16T10:44:01Z</time>
      </trkpt>
      <trkpt lat="46.97394" lon="0.61809">
        <ele>89.900001525879</ele>
        <time>2020-02-16T10:44:11Z</time>
      </trkpt>
      <trkpt lat="46.9739" lon="0.61786">
        <ele>88.900001525879</ele>
        <time>2020-02-16T10:44:20Z</time>
      </trkpt>
      <trkpt lat="46.97386" lon="0.61763">
        <ele>86.900001525879</ele>
        <time>2020-02-16T10:44:30Z</time>
      </trkpt>
      <trkpt lat="46.97382" lon="0.6174">
        <ele>86.900001525879</ele>
        <time>2020-02-16T10:44:40Z</time>
      </trkpt>
      <trkpt lat="46.97377" lon="0.61718">
        <ele>85.900001525879</ele>
        <time>2020-02-16T10:44:50Z</time>
      </trkpt>
      <trkpt lat="46.97375" lon="0.617">
        <ele>85.900001525879</ele>
        <time>2020-02-16T10:44:57Z</time>
      </trkpt>
      <trkpt lat="46.97372" lon="0.61676">
        <ele>83.900001525879</ele>
        <time>2020-02-16T10:45:06Z</time>
      </trkpt>
      <trkpt lat="46.9737" lon="0.61657">
        <ele>83.900001525879</ele>
        <time>2020-02-16T10:45:14Z</time>
      </trkpt>
      <trkpt lat="46.9737" lon="0.61653">
        <ele>83.900001525879</ele>
        <time>2020-02-16T10:45:16Z</time>
      </trkpt>
      <trkpt lat="46.97371" lon="0.61639">
        <ele>83.900001525879</ele>
        <time>2020-02-16T10:45:22Z</time>
      </trkpt>
      <trkpt lat="46.9737" lon="0.61637">
        <ele>83.900001525879</ele>
        <time>2020-02-16T10:45:23Z</time>
      </trkpt>
      <trkpt lat="46.97369" lon="0.61634">
        <ele>82.900001525879</ele>
        <time>2020-02-16T10:45:24Z</time>
      </trkpt>
      <trkpt lat="46.97363" lon="0.61614">
        <ele>82.900001525879</ele>
        <time>2020-02-16T10:45:32Z</time>
      </trkpt>
      <trkpt lat="46.97359" lon="0.61591">
        <ele>81.900001525879</ele>
        <time>2020-02-16T10:45:42Z</time>
      </trkpt>
      <trkpt lat="46.97357" lon="0.61579">
        <ele>81.900001525879</ele>
        <time>2020-02-16T10:45:47Z</time>
      </trkpt>
      <trkpt lat="46.97356" lon="0.61565">
        <ele>82.900001525879</ele>
        <time>2020-02-16T10:45:53Z</time>
      </trkpt>
      <trkpt lat="46.97356" lon="0.61562">
        <ele>82.900001525879</ele>
        <time>2020-02-16T10:45:54Z</time>
      </trkpt>
      <trkpt lat="46.97355" lon="0.6156">
        <ele>82.900001525879</ele>
        <time>2020-02-16T10:45:55Z</time>
      </trkpt>
      <trkpt lat="46.97355" lon="0.61557">
        <ele>82.900001525879</ele>
        <time>2020-02-16T10:45:56Z</time>
      </trkpt>
      <trkpt lat="46.97353" lon="0.61553">
        <ele>81.900001525879</ele>
        <time>2020-02-16T10:45:58Z</time>
      </trkpt>
      <trkpt lat="46.97351" lon="0.61551">
        <ele>81.900001525879</ele>
        <time>2020-02-16T10:45:59Z</time>
      </trkpt>
      <trkpt lat="46.97345" lon="0.61543">
        <ele>80.900001525879</ele>
        <time>2020-02-16T10:46:03Z</time>
      </trkpt>
      <trkpt lat="46.97344" lon="0.61541">
        <ele>79.900001525879</ele>
        <time>2020-02-16T10:46:04Z</time>
      </trkpt>
      <trkpt lat="46.97341" lon="0.6154">
        <ele>80.900001525879</ele>
        <time>2020-02-16T10:46:06Z</time>
      </trkpt>
      <trkpt lat="46.97328" lon="0.61542">
        <ele>79.900001525879</ele>
        <time>2020-02-16T10:46:15Z</time>
      </trkpt>
      <trkpt lat="46.97326" lon="0.61545">
        <ele>78.900001525879</ele>
        <time>2020-02-16T10:46:19Z</time>
      </trkpt>
      <trkpt lat="46.97326" lon="0.61548">
        <ele>75.900001525879</ele>
        <time>2020-02-16T10:47:07Z</time>
      </trkpt>
      <trkpt lat="46.97326" lon="0.61549">
        <ele>75.900001525879</ele>
        <time>2020-02-16T10:47:12Z</time>
      </trkpt>
      <trkpt lat="46.97326" lon="0.61549">
        <ele>75.900001525879</ele>
        <time>2020-02-16T10:47:13Z</time>
      </trkpt>
    </trkseg>
  </trk>
</gpx>